[[{"header":{"parameterUnit":"m.s-1","parameterCategory":1,"la1":30.6,"la2":29.2853,"lo1":-89.7004,"lo2":-87.6739,"dy":0.0162,"dx":0.0183,"nx":112,"ny":82,"refTime":"2023-08-10T06:00:00:Z","depth":0,"parameterNumber":2,"parameterNumberName":"U-component_of_WINDS"},"data":[0.0,0.0,0.0,0.0,0.0,0.0,0.0,0.0,0.0,0.0,0.0,0.0,0.0,0.0,0.0,0.0,0.0,0.0,0.0,0.0,0.0,0.0,0.0,0.0,0.0,0.0,0.0,0.0,0.0,0.0,0.0,0.0,0.0,0.0,0.0,0.0,0.0,0.0,0.0,0.0,0.0,0.0,0.0,0.0,0.0,0.0,0.0,0.0,0.0,0.0,0.0,0.0,0.0,0.0,0.0,0.0,0.0,0.0,0.0,0.0,0.0,0.0,0.0,0.0,0.0,0.0,0.0,0.0,0.0,0.0,0.0,0.0,0.0,0.0,0.0,0.0,0.0,0.0,0.0,0.0,0.0,0.0,0.0,0.0,0.0,0.0,0.0,0.0,0.0,0.0,-1.3309,-1.4725,-1.7811,-1.9933,-2.0267,-2.1216,-2.0842,-1.8624,0.0,0.0,0.0,0.0,0.0,0.0,0.0,0.0,0.0,0.0,0.0,0.0,0.0,0.0,0.0,0.0,0.0,0.0,0.0,0.0,0.0,0.0,0.0,0.0,0.0,0.0,0.0,0.0,0.0,0.0,0.0,0.0,0.0,0.0,0.0,0.0,0.0,0.0,0.0,0.0,0.0,0.0,0.0,0.0,0.0,0.0,0.0,0.0,0.0,0.0,0.0,0.0,0.0,0.0,0.0,0.0,0.0,0.0,0.0,0.0,0.0,0.0,0.0,0.0,0.0,0.0,0.0,0.0,0.0,0.0,0.0,0.0,0.0,0.0,0.0,0.0,0.0,0.0,0.0,0.0,0.0,0.0,0.0,0.0,0.0,0.0,0.0,0.0,0.0,0.0,0.0,0.0,0.0,0.0,0.0,0.0,0.0,0.0,0.0,0.0,0.0,0.0,0.0,0.0,-1.468,-1.716,-1.8858,-2.0013,-2.0561,-2.0775,-2.0187,-1.8597,0.0,0.0,0.0,0.0,0.0,0.0,0.0,0.0,0.0,0.0,0.0,0.0,0.0,0.0,0.0,0.0,0.0,0.0,0.0,0.0,0.0,0.0,0.0,0.0,0.0,0.0,0.0,0.0,0.0,0.0,0.0,0.0,0.0,0.0,0.0,0.0,0.0,0.0,0.0,0.0,0.0,0.0,0.0,0.0,0.0,0.0,0.0,0.0,0.0,0.0,0.0,0.0,0.0,0.0,0.0,0.0,0.0,0.0,0.0,0.0,0.0,0.0,0.0,0.0,0.0,0.0,0.0,0.0,0.0,0.0,0.0,0.0,0.0,0.0,0.0,0.0,0.0,0.0,0.0,0.0,0.0,0.0,0.0,0.0,0.0,0.0,0.0,0.0,0.0,0.0,0.0,0.0,0.0,0.0,0.0,0.0,0.0,0.0,0.0,0.0,0.0,0.0,0.0,-1.4033,-1.6074,-1.7795,-1.9239,-2.0147,-2.0414,-2.0588,-2.0054,-1.8584,-1.8597,0.0,0.0,0.0,0.0,0.0,0.0,0.0,0.0,0.0,0.0,0.0,0.0,0.0,0.0,0.0,0.0,0.0,0.0,0.0,0.0,0.0,0.0,0.0,0.0,0.0,0.0,0.0,0.0,0.0,0.0,0.0,0.0,0.0,0.0,0.0,0.0,0.0,0.0,0.0,0.0,0.0,0.0,0.0,0.0,0.0,0.0,0.0,0.0,0.0,0.0,0.0,0.0,0.0,0.0,0.0,0.0,0.0,0.0,0.0,0.0,0.0,0.0,0.0,0.0,0.0,0.0,0.0,0.0,0.0,0.0,0.0,0.0,0.0,0.0,0.0,0.0,0.0,0.0,0.0,0.0,0.0,0.0,0.0,0.0,0.0,0.0,0.0,0.0,0.0,0.0,0.0,0.0,0.0,0.0,0.0,0.0,0.0,0.0,0.0,0.0,0.0,0.0,-1.6008,-1.7154,-1.7995,-1.9341,-2.0167,-2.0167,-2.0321,-1.9826,-1.8571,-1.8009,0.0,0.0,0.0,0.0,0.0,0.0,0.0,0.0,0.0,0.0,0.0,0.0,0.0,0.0,0.0,0.0,0.0,0.0,0.0,0.0,0.0,0.0,0.0,0.0,0.0,0.0,0.0,0.0,0.0,0.0,0.0,0.0,0.0,0.0,0.0,0.0,0.0,0.0,0.0,0.0,0.0,0.0,0.0,0.0,0.0,0.0,0.0,0.0,0.0,0.0,0.0,0.0,0.0,0.0,0.0,0.0,0.0,0.0,0.0,0.0,0.0,0.0,0.0,0.0,0.0,0.0,0.0,0.0,0.0,0.0,0.0,0.0,0.0,0.0,0.0,0.0,0.0,0.0,0.0,0.0,0.0,0.0,0.0,0.0,0.0,0.0,0.0,0.0,0.0,0.0,0.0,0.0,0.0,0.0,0.0,0.0,0.0,0.0,0.0,0.0,0.0,0.0,-1.6877,-1.7514,-1.8357,-1.9519,-2.0167,-2.0167,-1.976,-1.9185,-1.8531,-1.7422,0.0,0.0,0.0,0.0,0.0,0.0,0.0,0.0,0.0,0.0,0.0,0.0,0.0,0.0,0.0,0.0,0.0,0.0,0.0,0.0,0.0,0.0,0.0,0.0,0.0,0.0,0.0,0.0,0.0,0.0,0.0,0.0,0.0,0.0,0.0,0.0,0.0,0.0,0.0,0.0,0.0,0.0,0.0,0.0,0.0,0.0,0.0,0.0,0.0,0.0,0.0,0.0,0.0,0.0,0.0,0.0,0.0,0.0,0.0,0.0,0.0,0.0,0.0,0.0,0.0,0.0,0.0,0.0,0.0,0.0,0.0,0.0,0.0,0.0,0.0,0.0,0.0,0.0,0.0,0.0,0.0,0.0,0.0,0.0,0.0,0.0,0.0,0.0,0.0,0.0,0.0,0.0,0.0,0.0,0.0,0.0,0.0,0.0,0.0,0.0,0.0,0.0,-1.7128,-1.7769,-1.8664,-1.9639,-2.0307,-2.0494,-2.0307,-1.9706,-1.8557,0.0,0.0,0.0,0.0,0.0,0.0,0.0,0.0,0.0,0.0,0.0,0.0,0.0,0.0,0.0,0.0,0.0,0.0,0.0,0.0,0.0,0.0,0.0,0.0,0.0,0.0,0.0,0.0,0.0,0.0,0.0,0.0,0.0,0.0,0.0,0.0,0.0,0.0,0.0,0.0,0.0,0.0,0.0,0.0,0.0,0.0,0.0,0.0,0.0,0.0,0.0,0.0,0.0,0.0,0.0,0.0,0.0,0.0,0.0,0.0,0.0,0.0,0.0,0.0,0.0,0.0,0.0,0.0,0.0,0.0,0.0,0.0,0.0,0.0,0.0,0.0,0.0,0.0,0.0,0.0,0.0,0.0,0.0,0.0,0.0,0.0,0.0,0.0,0.0,0.0,0.0,0.0,0.0,0.0,0.0,0.0,0.0,0.0,0.0,0.0,0.0,0.0,-1.6633,-1.7221,-1.7929,-1.8824,-1.9706,-2.0361,-2.0655,-2.0254,-1.9599,-1.8691,0.0,0.0,0.0,0.0,0.0,0.0,0.0,0.0,0.0,0.0,0.0,0.0,0.0,0.0,0.0,0.0,0.0,0.0,0.0,0.0,0.0,0.0,0.0,0.0,0.0,0.0,0.0,0.0,0.0,0.0,0.0,0.0,0.0,0.0,0.0,0.0,0.0,0.0,0.0,0.0,0.0,0.0,0.0,0.0,0.0,0.0,0.0,0.0,0.0,0.0,0.0,0.0,0.0,0.0,0.0,0.0,0.0,0.0,0.0,0.0,0.0,0.0,0.0,0.0,0.0,0.0,0.0,0.0,0.0,0.0,0.0,0.0,0.0,0.0,0.0,0.0,0.0,0.0,0.0,0.0,0.0,0.0,0.0,0.0,0.0,0.0,0.0,0.0,0.0,0.0,0.0,0.0,0.0,0.0,0.0,0.0,0.0,0.0,0.0,0.0,0.0,0.0,-1.6633,-1.7221,-1.7929,-1.8838,-1.9647,-2.0361,-2.0655,-1.9345,-1.8624,0.0,0.0,0.0,0.0,0.0,0.0,0.0,0.0,0.0,0.0,0.0,0.0,0.0,0.0,0.0,0.0,0.0,0.0,0.0,0.0,0.0,0.0,0.0,0.0,0.0,0.0,0.0,0.0,0.0,0.0,0.0,0.0,0.0,0.0,0.0,0.0,0.0,0.0,0.0,0.0,0.0,0.0,0.0,0.0,0.0,0.0,0.0,0.0,0.0,0.0,0.0,0.0,0.0,0.0,0.0,0.0,0.0,0.0,0.0,0.0,0.0,0.0,0.0,0.0,0.0,0.0,0.0,0.0,0.0,0.0,0.0,0.0,0.0,0.0,0.0,0.0,0.0,0.0,0.0,0.0,0.0,0.0,0.0,0.0,0.0,0.0,0.0,0.0,0.0,0.0,0.0,0.0,0.0,0.0,0.0,0.0,0.0,0.0,0.0,0.0,0.0,0.0,0.0,-1.7066,-1.8105,-1.9034,-1.9515,-1.996,-2.0361,-2.0655,-1.9893,-1.9185,-1.8651,0.0,0.0,0.0,0.0,0.0,0.0,0.0,0.0,0.0,0.0,0.0,0.0,0.0,0.0,0.0,0.0,0.0,0.0,0.0,0.0,0.0,0.0,0.0,0.0,0.0,0.0,0.0,0.0,0.0,0.0,0.0,0.0,0.0,0.0,0.0,0.0,0.0,0.0,0.0,0.0,0.0,0.0,0.0,0.0,0.0,0.0,0.0,0.0,0.0,0.0,0.0,0.0,0.0,0.0,0.0,0.0,0.0,0.0,0.0,0.0,0.0,0.0,0.0,0.0,0.0,0.0,0.0,0.0,0.0,0.0,0.0,0.0,0.0,0.0,0.0,0.0,0.0,0.0,0.0,0.0,0.0,0.0,0.0,0.0,0.0,0.0,0.0,0.0,0.0,0.0,0.0,0.0,0.0,0.0,0.0,0.0,0.0,0.0,0.0,0.0,0.0,0.0,-1.8956,-1.9369,-1.9881,-2.0608,-2.0509,-2.0767,-2.1796,-2.0624,-1.9757,-1.9681,0.0,0.0,0.0,0.0,0.0,0.0,0.0,0.0,0.0,0.0,0.0,0.0,0.0,0.0,0.0,0.0,0.0,0.0,0.0,0.0,0.0,0.0,0.0,0.0,0.0,0.0,0.0,0.0,0.0,0.0,0.0,0.0,0.0,0.0,0.0,0.0,0.0,0.0,0.0,0.0,0.0,0.0,0.0,0.0,0.0,0.0,0.0,0.0,0.0,0.0,0.0,0.0,0.0,0.0,0.0,0.0,0.0,0.0,0.0,0.0,0.0,0.0,0.0,0.0,0.0,0.0,0.0,0.0,0.0,0.0,0.0,0.0,0.0,0.0,0.0,0.0,0.0,0.0,0.0,0.0,0.0,0.0,0.0,0.0,0.0,0.0,0.0,0.0,0.0,0.0,0.0,0.0,0.0,0.0,0.0,0.0,0.0,0.0,0.0,0.0,0.0,0.0,-2.1492,-2.0982,-2.0837,-2.2193,-2.1655,-2.1878,-2.3623,-2.1491,-2.0422,-2.136,0.0,0.0,0.0,0.0,0.0,0.0,0.0,0.0,0.0,0.0,0.0,0.0,0.0,0.0,0.0,0.0,0.0,0.0,0.0,0.0,0.0,0.0,0.0,0.0,0.0,0.0,0.0,0.0,0.0,0.0,0.0,0.0,0.0,0.0,0.0,0.0,0.0,0.0,0.0,0.0,0.0,0.0,0.0,0.0,0.0,0.0,0.0,0.0,0.0,0.0,0.0,0.0,0.0,0.0,0.0,0.0,0.0,0.0,0.0,0.0,-1.4014,-1.3115,0.0,0.0,0.0,0.0,0.0,0.0,0.0,0.0,0.0,0.0,0.0,0.0,0.0,0.0,0.0,0.0,0.0,0.0,0.0,0.0,0.0,0.0,0.0,0.0,0.0,0.0,0.0,0.0,0.0,0.0,0.0,0.0,0.0,0.0,0.0,0.0,0.0,0.0,0.0,0.0,-2.1022,-2.2689,-2.4054,-2.4734,-2.4627,-2.4695,-2.5136,-2.3275,-2.1861,-2.143,-1.902,0.0,0.0,0.0,0.0,0.0,0.0,0.0,0.0,0.0,0.0,0.0,0.0,0.0,0.0,0.0,0.0,0.0,0.0,0.0,0.0,0.0,0.0,0.0,0.0,0.0,0.0,0.0,0.0,0.0,0.0,0.0,0.0,0.0,0.0,0.0,0.0,0.0,0.0,0.0,0.0,0.0,0.0,0.0,0.0,0.0,0.0,0.0,0.0,0.0,0.0,0.0,0.0,0.0,0.0,0.0,0.0,0.0,0.0,0.0,-1.7255,-1.6207,0.0,0.0,0.0,0.0,0.0,0.0,0.0,0.0,0.0,0.0,0.0,0.0,0.0,0.0,0.0,0.0,0.0,0.0,0.0,0.0,0.0,0.0,0.0,0.0,0.0,0.0,0.0,0.0,0.0,0.0,0.0,0.0,0.0,0.0,0.0,0.0,0.0,0.0,0.0,0.0,-2.3207,-2.4505,-2.5663,-2.6544,-2.6142,-2.6064,-2.6917,-2.4436,-2.2925,-2.2974,-1.9984,0.0,0.0,0.0,0.0,0.0,0.0,0.0,0.0,0.0,0.0,0.0,0.0,0.0,0.0,0.0,0.0,0.0,0.0,0.0,0.0,0.0,0.0,0.0,0.0,0.0,0.0,0.0,0.0,0.0,0.0,0.0,0.0,0.0,0.0,0.0,0.0,0.0,0.0,0.0,0.0,0.0,0.0,0.0,0.0,0.0,0.0,0.0,0.0,0.0,0.0,0.0,0.0,0.0,-2.0441,-2.1658,-2.326,-2.3567,-2.3487,-2.299,-2.0797,-2.0005,-2.0201,-2.0441,0.0,0.0,0.0,0.0,0.0,0.0,0.0,0.0,0.0,0.0,0.0,0.0,0.0,0.0,0.0,0.0,0.0,0.0,0.0,0.0,0.0,0.0,-2.2575,-2.2973,-2.4622,-2.5256,-2.2213,0.0,0.0,0.0,0.0,0.0,0.0,0.0,0.0,0.0,0.0,0.0,-2.5613,-2.6336,-2.703,-2.818,-2.7439,-2.7254,-2.8289,-2.5479,-2.3816,-2.4343,-2.1002,-1.8718,0.0,0.0,0.0,0.0,0.0,0.0,0.0,0.0,0.0,0.0,0.0,0.0,0.0,0.0,0.0,0.0,0.0,0.0,0.0,0.0,0.0,0.0,0.0,0.0,0.0,0.0,0.0,0.0,0.0,0.0,0.0,0.0,-1.7125,-1.7085,0.0,0.0,0.0,0.0,0.0,0.0,0.0,0.0,0.0,0.0,0.0,0.0,0.0,-1.9083,-2.0876,-2.2144,-2.2867,-2.3139,-2.3971,-2.4555,-2.4796,-2.509,-2.5464,-2.5852,-2.5537,0.0,-2.1697,-2.1737,0.0,0.0,0.0,0.0,0.0,0.0,0.0,0.0,0.0,0.0,0.0,0.0,0.0,0.0,0.0,0.0,0.0,0.0,0.0,0.0,0.0,0.0,-2.5414,-2.4132,-2.6154,-2.8192,-2.7628,-2.5869,-2.4188,-2.3402,-2.2485,-2.1938,0.0,0.0,0.0,0.0,0.0,0.0,-2.5433,-2.7672,-2.9465,-3.0393,-3.0353,-2.9785,-2.8486,-2.6661,-2.4823,-2.3091,-2.0906,-1.9519,-1.9202,-1.9155,0.0,0.0,0.0,0.0,0.0,0.0,0.0,0.0,0.0,0.0,0.0,0.0,0.0,0.0,0.0,0.0,0.0,0.0,0.0,0.0,0.0,0.0,0.0,0.0,0.0,0.0,0.0,0.0,0.0,-1.7315,-1.7769,-1.7259,-1.7822,-1.8183,0.0,0.0,0.0,0.0,0.0,0.0,0.0,0.0,0.0,-2.0451,-2.1414,-2.241,-2.3474,-2.481,-2.5651,-2.5985,-2.6881,-2.7388,-2.7562,-2.7682,-2.7883,-2.8123,-2.7949,-2.6947,-2.5358,-2.4195,-2.318,-2.2285,0.0,0.0,0.0,0.0,-2.1643,-2.1977,-2.2485,-2.2579,-2.2472,-2.2472,0.0,0.0,0.0,0.0,0.0,0.0,0.0,-2.4707,-2.5472,-2.7503,-2.9351,-2.9076,-3.0818,-3.2416,-3.2087,-3.0307,-2.8425,-2.716,-2.661,-2.6244,-2.575,-2.3913,0.0,0.0,0.0,-2.5569,-2.7115,-2.926,-3.082,-3.1211,-3.125,-3.0838,-2.9922,-2.7452,-2.561,-2.4639,-2.1704,-2.031,-2.0974,-2.0747,-2.1039,0.0,0.0,0.0,0.0,0.0,0.0,0.0,0.0,0.0,0.0,0.0,0.0,0.0,0.0,0.0,0.0,0.0,0.0,0.0,0.0,0.0,0.0,0.0,0.0,0.0,0.0,0.0,0.0,-1.7782,-1.8183,-1.7407,-1.825,-1.8758,0.0,0.0,0.0,0.0,0.0,0.0,-2.183,-2.2458,-2.3153,-2.3968,-2.4783,-2.5424,-2.5865,-2.7028,-2.7869,-2.839,-2.9058,-2.9526,-2.982,-2.974,-2.9713,-2.9686,-2.9312,-2.8898,-2.8408,-2.6266,-2.485,-2.3928,-2.3166,-2.2792,-2.2686,-2.2913,-2.318,-2.3598,-2.4195,-2.4382,-2.4235,-2.3794,-2.3635,-2.3363,-2.2143,0.0,0.0,0.0,0.0,-2.7985,-2.9413,-3.1282,-3.294,-3.3258,-3.4588,-3.5586,-3.5137,-3.3867,-3.2266,-3.043,-2.9883,-2.9473,-2.875,-2.6793,0.0,-2.6645,-2.6866,-2.7413,-2.8843,-3.0503,-3.1523,-3.1523,-3.1426,-3.1034,-3.0294,-2.7991,-2.647,-2.6045,-2.3263,-2.2122,-2.3145,-2.2996,-2.3125,-2.3662,0.0,0.0,0.0,0.0,0.0,0.0,0.0,0.0,0.0,0.0,0.0,0.0,0.0,0.0,0.0,0.0,0.0,0.0,0.0,0.0,0.0,0.0,0.0,0.0,0.0,0.0,0.0,0.0,0.0,-1.7635,-1.9092,0.0,0.0,0.0,0.0,-2.0949,-2.2031,-2.3073,-2.3995,-2.4609,-2.5571,-2.7001,-2.7712,-2.8364,-2.9232,-2.9593,-2.9913,-3.0221,-3.0274,-3.0448,-3.0715,-3.0448,-3.0314,-3.0287,-2.9713,-2.9446,-2.9259,-2.7175,-2.6119,-2.5718,-2.4556,-2.4275,-2.4502,-2.4442,-2.4716,-2.497,-2.5024,-2.485,-2.4743,-2.5545,-2.6252,-2.6672,-2.604,-2.6624,0.0,0.0,-3.0647,-3.1164,-3.2093,-3.404,-3.5566,-3.466,-3.5576,-3.6484,-3.6055,-3.5234,-3.3945,-3.1836,-2.9785,-2.8633,-2.9375,0.0,-2.6682,-2.8481,-2.8575,-2.8858,-2.9968,-3.0918,-3.1523,-3.1523,-3.1152,-3.0294,-2.8664,-2.8349,-2.7632,-2.6106,-2.583,-2.5736,-2.5841,-2.6128,-2.643,-2.6846,-2.6517,0.0,0.0,0.0,0.0,0.0,0.0,0.0,0.0,0.0,0.0,0.0,0.0,0.0,0.0,0.0,0.0,0.0,0.0,0.0,0.0,0.0,0.0,0.0,0.0,0.0,0.0,0.0,0.0,-2.0154,-2.1376,0.0,-2.179,-2.1951,-2.2445,-2.3313,-2.4115,-2.5197,-2.6667,-2.7308,-2.8123,-2.9219,-2.9459,-2.99,-3.0595,-3.0702,-3.0808,-3.0915,-3.1116,-3.1156,-3.1062,-3.0768,-3.0635,-3.0608,-3.002,-2.9766,-2.9686,-2.8764,-2.7869,-2.7014,-2.6413,-2.6012,-2.5785,-2.5972,-2.6226,-2.652,-2.6694,-2.6694,-2.6772,-2.7762,-2.8786,-2.9731,-3.0292,-3.0763,-3.1468,-3.3501,-3.4146,-3.4566,-3.5667,-3.6617,-3.7241,-3.7158,-3.7344,-3.7363,-3.6934,-3.6152,-3.5234,-3.4219,-3.2266,-3.0801,-3.082,-2.993,-2.9508,-3.0412,-3.0797,-3.1178,-3.1795,-3.2148,-3.2226,-3.1973,-3.1543,-3.0936,-3.0098,-2.9039,-2.8063,-2.7221,-2.5898,-2.5545,-2.6296,-2.5872,-2.6117,-2.699,-2.6859,-2.666,0.0,0.0,0.0,0.0,0.0,0.0,0.0,0.0,0.0,0.0,0.0,0.0,0.0,0.0,0.0,0.0,0.0,0.0,0.0,0.0,0.0,0.0,0.0,0.0,0.0,-2.004,-2.1269,-2.2058,-2.3367,-2.4168,-2.4075,-2.4422,-2.501,-2.5905,-2.6707,-2.7749,-2.9112,-2.9566,-3.0087,-3.0782,-3.0795,-3.0982,-3.137,-3.137,-3.137,-3.1383,-3.157,-3.1517,-3.1209,-3.0929,-3.0742,-3.0621,-3.0127,-2.986,-2.9753,-2.9566,-2.8898,-2.7989,-2.7789,-2.7415,-2.7001,-2.7201,-2.7388,-2.7754,-2.8662,-2.891,-2.9015,-3.0432,-3.1785,-3.2907,-3.3605,-3.4195,-3.4853,-3.6216,-3.666,-3.6894,-3.7891,-3.8144,-3.8184,-3.832,-3.8027,-3.7598,-3.7168,-3.6523,-3.5898,-3.5469,-3.3887,-3.25,-3.2207,-3.1699,-3.1523,-3.207,-3.2285,-3.2539,-3.2949,-3.2754,-3.2422,-3.1992,-3.1562,-3.1133,-3.0703,-2.9808,-2.892,-2.8234,-2.6897,-2.6335,-2.6902,-2.6478,-2.6567,-2.7246,-2.6953,-2.6602,-2.6172,0.0,0.0,0.0,0.0,0.0,0.0,0.0,0.0,0.0,0.0,0.0,0.0,0.0,0.0,0.0,0.0,0.0,0.0,0.0,0.0,0.0,0.0,0.0,-1.947,-2.1216,-2.2739,-2.338,-2.501,-2.5972,-2.5692,-2.7228,-2.8364,-2.8684,-2.9766,-3.0662,-3.1223,-3.1249,-3.1383,-3.1664,-3.1664,-3.1664,-3.1664,-3.1664,-3.1664,-3.1664,-3.1664,-3.1517,-3.1236,-3.0929,-3.0635,-3.0354,-3.0034,-2.9753,-2.9499,-2.9472,-2.9138,-2.8617,-2.8604,-2.8417,-2.8234,-2.8305,-2.8305,-2.8712,-3.0744,-3.1347,-3.1564,-3.3643,-3.5228,-3.6279,-3.5788,-3.6752,-3.7988,-3.7949,-3.7969,-3.8086,-3.8476,-3.8594,-3.8476,-3.8027,-3.7617,-3.7207,-3.6758,-3.6348,-3.5918,-3.5488,-3.4375,-3.3476,-3.3437,-3.2773,-3.2519,-3.3301,-3.3066,0.0,-3.3359,-3.2676,-3.1992,-3.1582,-3.1152,-3.0723,-3.0254,-3.0625,-3.0312,-2.8984,-2.8867,-2.8496,-2.7708,-2.8008,-2.8027,-2.7689,-2.6816,-2.6142,-2.5684,0.0,0.0,0.0,0.0,0.0,0.0,0.0,0.0,0.0,0.0,0.0,0.0,0.0,0.0,0.0,0.0,0.0,0.0,0.0,0.0,0.0,-2.0575,-2.1416,-2.1283,-2.3046,-2.481,-2.6039,-2.7749,-2.8885,-2.9018,-2.9847,-3.0501,-3.0808,-3.1316,-3.169,-3.1851,-3.1864,-3.1797,-3.1677,-3.1664,-3.1664,-3.1664,-3.1664,-3.1664,-3.1664,-3.1664,-3.1623,-3.153,-3.1022,-3.0755,-3.0635,-2.9913,-2.9673,-2.9766,-2.9339,-2.9072,-2.8898,-2.8684,-2.8417,-2.8389,-2.9941,-3.1572,-3.3038,-3.3594,-3.4747,-3.6126,-3.6684,-3.8236,-3.9702,-3.8898,-3.9198,-3.9609,-3.8652,-3.8848,-3.9238,-3.8711,-3.8809,-3.8848,-3.8105,-3.7832,-3.7559,-3.6816,-3.6582,-3.6367,-3.5937,-3.5312,-3.4648,-3.4004,-3.3945,-3.3867,-3.3476,-3.332,-3.3184,-3.2988,-3.2226,-3.1777,-3.1973,-3.1601,-3.1172,-3.0742,-3.0508,-2.9844,-2.8555,-2.7891,-2.7305,-2.6758,-2.6543,-2.6543,-2.6738,-2.6816,-2.6301,0.0,0.0,0.0,0.0,0.0,0.0,0.0,0.0,0.0,0.0,0.0,0.0,0.0,0.0,0.0,0.0,0.0,0.0,0.0,0.0,0.0,0.0,-2.3498,-2.5442,-2.6112,-2.635,-2.6907,-2.839,-3.0746,-3.2366,-3.269,-3.4175,-3.5271,-3.5463,-3.4746,-3.4682,-3.5662,-3.3574,-3.2722,-3.352,-3.2287,-3.1664,-3.1664,-3.1664,-3.1664,-3.1664,-3.1664,-3.1597,-3.1463,-3.1009,-3.0662,-3.0394,-2.9753,-2.9432,-2.9339,-2.9005,-2.8778,-2.8657,0.0,0.0,0.0,0.0,-3.3594,-3.4813,-3.5719,-3.6842,-3.8054,-3.8961,-4.0178,-4.1055,-4.0371,-4.0332,-4.0332,-3.9394,-3.9355,-3.9492,-3.8965,-3.8887,-3.8769,-3.8086,-3.7793,-3.748,-3.6816,-3.6523,-3.6328,-3.6074,-3.582,0.0,-3.4492,-3.4394,-3.4316,-3.4004,-3.3496,-3.3066,-3.2832,-3.2051,-3.1543,-3.1621,-3.1406,-3.0996,-3.0391,-3.0098,0.0,0.0,0.0,-2.6836,-2.6406,-2.6152,0.0,0.0,0.0,-2.6808,-2.5825,-2.7078,0.0,0.0,-2.6072,-2.6009,0.0,0.0,0.0,0.0,0.0,0.0,0.0,0.0,0.0,0.0,0.0,0.0,0.0,0.0,0.0,0.0,-2.7188,-3.036,-3.2535,-3.0918,-3.0028,-3.1235,-3.4183,-3.6139,-3.6412,-3.8972,-4.0673,-4.0623,-3.8729,-3.8485,-4.0545,-3.606,0.0,0.0,0.0,-3.2219,-3.2502,-3.1908,-3.1826,-3.2124,-3.1826,-3.1503,-3.1263,-3.0942,-3.0515,-2.9993,-2.9606,-2.9152,-2.8698,-2.8848,-2.8887,-2.8908,-2.8941,-3.0197,-3.2366,-3.4327,-3.5218,-3.5719,-3.7578,0.0,0.0,-4.0588,-4.1172,-4.1094,-4.0644,-4.0566,-4.0488,-3.9961,-3.959,-3.9316,-3.916,-3.8848,-3.8457,-3.7969,-3.7539,-3.7109,-3.6699,-3.6289,-3.6016,-3.6016,-3.6016,-3.5762,-3.498,-3.4453,-3.4238,-3.4512,-3.3555,-3.2773,-3.2734,-3.2012,-3.1367,-3.0996,-3.0957,0.0,-2.9841,-2.9685,-2.9098,-2.7865,-2.7285,-2.6855,-2.6465,-2.6465,-2.6641,-2.7012,-2.7441,-2.748,-2.709,-2.7519,-2.7787,-2.7787,-2.7344,-2.7168,0.0,0.0,0.0,0.0,0.0,0.0,0.0,0.0,0.0,0.0,0.0,0.0,0.0,0.0,0.0,-2.8623,-3.0876,-3.3575,-3.7394,-3.7922,-3.7923,-3.7697,-3.8877,-3.9633,-3.9328,-4.0063,-4.0384,-4.0104,-3.9666,-3.9682,-4.0165,-3.8885,-3.8302,-3.8873,-3.6141,-3.5602,-3.7528,-3.3429,-3.2429,-3.4592,-3.2335,0.0,-3.157,-3.1036,-3.0728,-3.0568,-2.9566,-2.9192,-2.9434,-3.0424,-3.1865,-3.3283,-3.1565,-3.3249,-3.6682,-3.7082,-3.839,-4.0021,-4.0431,-4.0588,-4.0607,-4.1094,-4.1172,-4.1094,-4.0644,-4.0762,0.0,-3.9668,-3.9785,-4.0019,-3.8965,-3.8633,-3.8379,-3.7598,-3.709,-3.668,-3.623,-3.6074,-3.6016,-3.6016,-3.6016,-3.5976,-3.5801,-3.5098,-3.4375,-3.3769,-3.3164,-3.2676,-3.2344,-3.1836,-3.1484,-3.1406,-3.1406,-3.1191,-3.0684,-2.998,-2.916,-2.8223,-2.7441,-2.6973,-2.6894,-2.6894,-2.6934,-2.7012,-2.7441,-2.7669,-2.7591,-2.7969,-2.8164,-2.8164,-2.8086,-2.8047,0.0,0.0,0.0,0.0,0.0,0.0,0.0,0.0,0.0,0.0,0.0,-2.4448,-2.5016,0.0,-3.081,-3.3578,-3.6302,-3.8791,-4.1093,-4.3046,-4.32,-4.0393,-4.1749,-4.2716,-4.2259,-4.3519,-4.4227,-4.3756,-4.2504,-4.2412,-4.3812,-4.1016,-4.0075,-4.1378,-3.8624,-3.7081,-3.6999,-3.4382,-3.3044,-3.303,-3.162,-3.1089,-3.1209,-3.0782,-3.0421,-3.01,-2.9352,-2.9544,-3.061,-3.2349,-3.4327,-3.6201,-3.5056,-3.5943,-3.8054,-3.9119,-4.0275,-4.1172,-4.1172,-4.1172,-4.1133,-4.0918,-4.0996,-4.1094,-4.0644,-4.0684,-4.0703,-4.0039,-3.9863,-3.9668,-3.8809,-3.8418,-3.8086,-3.7441,-3.6973,-3.6621,-3.6387,-3.6172,-3.6016,-3.6016,-3.5859,-3.5625,-3.5391,-3.4824,-3.4316,-3.4101,-3.334,-3.2715,-3.2519,-3.1914,-3.1523,-3.1523,-3.1328,-3.1016,-3.0586,-2.9746,-2.8965,-2.834,-2.7695,-2.7344,-2.7344,-2.7344,-2.7344,-2.7344,-2.7754,-2.7988,-2.7988,-2.8184,-2.8301,-2.8301,-2.8301,-2.8301,0.0,0.0,0.0,0.0,0.0,0.0,0.0,-2.3169,-2.3436,-2.3186,-2.6255,-2.9319,-3.0351,-3.3621,-3.6741,-3.8339,-4.1267,-4.3558,-4.4322,-4.6572,-4.6568,-4.2474,-4.4155,-4.548,-4.5095,-4.6786,-4.7793,-4.7363,-4.5359,-4.4925,-4.6703,-4.2943,-4.1565,-4.3217,-4.0925,-3.8663,-3.6386,-3.5349,-3.3751,-3.1587,-3.1031,-3.0742,-3.0782,-3.0488,-3.01,-2.9633,-2.9642,-3.0765,-3.2792,-3.4653,-3.6672,-3.8566,-3.864,-3.8621,-3.8803,-4.0509,-4.1172,-4.1172,-4.1172,-4.1172,-4.1113,-4.0762,-4.084,-4.0976,-4.0625,-4.0527,-4.0488,-4.0312,-3.9824,-3.9199,-3.8613,-3.8125,-3.7695,-3.7266,-3.6855,-3.6543,-3.6543,-3.6269,-3.6016,-3.6016,-3.5684,-3.5273,-3.4902,-3.4414,-3.416,-3.4414,-3.3574,-3.2851,-3.2695,-3.207,-3.1582,-3.1406,-3.1094,-3.0703,-3.0234,-2.957,-2.8984,-2.8574,-2.8144,-2.791,-2.791,-2.7885,-2.7845,-2.7845,-2.8125,-2.8301,-2.8301,-2.8301,-2.8301,-2.8301,-2.8301,-2.8301,-2.7266,-2.6248,-2.5806,-2.7275,-2.5252,-2.3505,0.0,-2.6837,-2.785,-2.8564,-3.1863,-3.4748,-3.5268,-3.6811,-3.9069,-4.2425,-4.3416,-4.4746,-4.7333,-4.7632,-4.7456,-4.6896,-4.7443,-4.7631,-4.7315,-4.7106,-4.6894,-4.6484,-4.6162,-4.5325,-4.3832,-4.4843,-4.4806,-4.3307,-4.2568,-4.2067,-4.1745,-3.6935,-3.444,-3.4418,-3.172,-3.0541,-3.0782,-3.0488,-3.0327,-3.0388,-3.1425,-3.3917,-3.7197,-3.7855,-3.9197,-4.088,-4.1248,-4.117,-4.0841,-4.1094,-4.1172,-4.1172,-4.1172,-4.1172,-4.1172,-4.1113,-4.0879,-4.0586,-4.0547,-4.0527,-4.0351,-3.957,-3.957,-3.9531,-3.832,-3.7676,-3.7266,-3.6836,-3.6406,-3.6094,-3.6094,-3.6055,-3.6016,-3.6016,-3.5684,-3.5371,-3.5332,-3.4629,-3.3965,-3.3613,-3.3437,-3.3086,-3.2344,-3.2148,-3.1816,-3.1035,-3.0918,-3.0703,-3.0234,-3.0117,-2.9883,-2.9453,-2.9023,-2.8769,-2.8769,-2.8418,-2.8223,-2.8223,-2.8262,-2.8301,-2.8301,-2.8301,-2.8301,-2.8301,-2.8301,-2.8301,-2.7559,-2.754,-2.7749,-2.8141,-2.8298,-2.857,-2.9677,-3.0795,-3.188,-3.3011,-3.6512,-3.9405,-3.971,-4.1897,-4.4186,-4.5716,-4.6053,-4.6323,-4.6951,-4.6953,-4.6562,-4.582,-4.5879,-4.6308,-4.7129,-4.7031,-4.6758,-4.6328,-4.6308,-4.5928,-4.5091,-4.584,-4.5812,-4.4731,-4.47,-4.3111,-3.9647,-3.7598,-3.5027,-3.1966,-3.075,-3.0167,-3.0274,-3.0154,-3.0602,-3.1596,-3.3199,-3.5458,-3.7993,-3.9463,-4.0506,-4.1191,-4.1367,-4.1328,-4.1172,-4.1172,-4.1172,-4.1172,-4.1172,-4.1172,-4.1133,-4.0879,-4.084,-4.0801,-4.0312,-4.0156,-4.0019,-3.9375,-3.916,-3.8887,-3.7832,-3.7422,-3.7129,-3.6445,-3.6152,-3.6016,-3.6016,-3.6016,-3.6016,-3.6016,-3.5684,-3.5312,-3.5039,-3.4473,-3.3926,-3.3496,-3.3418,-3.3203,-3.2598,-3.2324,-3.1896,-3.0976,-3.0898,-3.082,-3.0625,-3.0351,-3.0117,-2.9941,-2.9531,-2.918,-2.8926,-2.875,-2.8535,-2.8301,-2.8301,-2.8301,-2.8301,-2.8301,-2.8301,-2.8301,-2.8301,-2.8301,-2.8105,-2.8726,-2.9241,-2.9355,-3.1042,-3.2683,-3.2878,-3.4479,-3.624,-3.7287,-4.0534,-4.323,-4.3421,-4.5572,-4.7226,-4.7226,-4.7129,-4.6797,-4.6055,-4.5742,-4.5156,-4.3984,-4.375,-4.4219,-4.5547,-4.6113,-4.6328,-4.6152,-4.623,-4.6026,-4.5285,-4.5822,-4.5716,-4.4693,-4.496,-4.2729,-3.7628,-3.724,-3.4695,-3.0034,-2.9873,-2.9847,-2.9913,-3.0431,-3.1903,-3.4198,-3.5427,-3.7031,-3.8961,-4.0644,-4.1269,-4.1191,-4.1308,-4.1269,-4.1172,-4.1172,-4.1172,-4.1172,-4.1172,-4.1172,-4.1113,-4.0801,-4.0762,-4.0703,-4.0078,-3.9805,-3.9609,-3.916,-3.8887,-3.8535,-3.7559,-3.7305,-3.709,-3.623,-3.6016,-3.6016,-3.6016,-3.6016,-3.6016,-3.6016,-3.5586,-3.5098,-3.4766,-3.4258,-3.3789,-3.3476,-3.3418,-3.3262,-3.2851,-3.2324,-3.1699,-3.0976,-3.0898,-3.0898,-3.0898,-3.0586,-3.0391,-3.0391,-2.998,-2.9551,-2.9121,-2.8984,-2.8769,-2.8476,-2.8457,-2.8457,-2.8457,-2.8457,-2.8398,-2.8301,-2.8301,-2.8301,-2.9,-2.8899,-2.8747,-3.0974,-3.2175,-3.3133,-3.3946,-3.7766,-4.1196,-4.1546,-4.4008,-4.6182,-4.6182,-4.6308,-4.6348,-4.6348,-4.5996,-4.5566,-4.5117,-4.4316,-4.3457,-4.2598,-4.2129,-4.2051,-4.2519,-4.4082,-4.5254,-4.5664,-4.6074,-4.5285,-4.2818,-4.4641,-4.4606,-4.222,-4.215,-4.079,-3.7903,-3.5673,-3.3118,-3.0341,-2.9766,-2.9646,-2.999,-3.177,-3.4917,-3.8804,-3.841,-3.9332,-4.1133,-4.1601,-4.1543,-4.1211,-4.1621,-4.1523,-4.1172,-4.1172,-4.1172,-4.1172,-4.1172,-4.1172,-4.1172,-4.1152,-4.0605,-3.9922,-3.9902,-3.959,-3.9141,-3.8711,-3.8887,-3.8887,-3.7617,-3.7305,-3.709,-3.623,-3.6016,-3.6016,-3.6016,-3.6016,-3.6016,-3.6016,-3.5312,-3.4726,-3.4707,-3.4004,-3.3437,-3.3418,-3.3418,-3.3262,-3.2851,-3.2051,-3.1367,-3.0937,-3.0898,-3.0898,-3.0898,-3.0879,-3.0859,-3.0859,-3.043,-3.0,-2.9626,-2.9141,-2.8906,-2.8906,-2.8906,-2.8906,-2.8906,-2.8906,-2.8691,-2.8301,-2.8301,-2.8301,-2.9219,-3.0838,-3.2664,-3.5207,-3.6875,-3.8476,-4.0534,-4.2394,-4.3861,-4.4281,-4.445,-4.4414,-4.3828,-4.3496,-4.332,-4.332,-4.3906,-4.4219,-4.3789,-4.3476,-4.2656,-4.0957,-4.1133,-4.1211,-4.0781,-4.2305,-4.373,-4.4746,-4.5215,-4.5222,-4.469,-4.529,-4.5183,-4.3995,-4.3976,-4.1792,-3.7194,-3.6739,-3.4304,-3.006,-3.1423,-3.2162,-3.2248,-3.4467,-3.6743,-3.8986,-3.8842,-3.9671,-4.1191,-4.1328,-4.1308,-4.1191,-4.1328,-4.1308,-4.1172,-4.1172,-4.1172,-4.1172,-4.1172,-4.1172,-4.1172,-4.1172,-4.0781,-4.0254,-3.998,-3.957,-3.9121,-3.8691,-3.8672,-3.8555,-3.7559,-3.75,-3.75,-3.666,-3.6445,-3.6445,-3.6445,-3.623,-3.6016,-3.6016,-3.5566,-3.5059,-3.4746,-3.4238,-3.375,-3.3457,-3.2949,-3.2539,-3.2402,-3.1621,-3.1055,-3.0898,-3.0898,-3.0898,-3.0898,-3.0898,-3.0898,-3.0898,-3.0742,-3.0449,-3.0,-2.9844,-2.9629,-2.9355,-2.9355,-2.9355,-2.9355,-2.9355,-2.9277,-2.9141,-2.9141,-2.9141,-3.0781,-3.3262,-3.5996,-3.8281,-4.0156,-4.1914,-4.373,-4.4492,-4.4785,-4.4746,-4.3594,-4.2266,-4.123,-4.0332,-3.9844,-4.0137,-4.0879,-4.1543,-4.1894,-4.1933,-4.1426,-4.0059,-4.0234,-4.0312,-3.9941,-4.0879,-4.2187,-4.3808,-4.4473,-4.498,-4.543,-4.5293,-4.5156,-4.5039,-4.3994,-4.1287,-3.683,-3.6409,-3.443,-3.097,-3.2632,-3.418,-3.5773,-3.7146,-3.8751,-4.0451,-4.0154,-4.0565,-4.1387,-4.123,-4.1172,-4.1172,-4.1172,-4.1172,-4.1172,-4.1172,-4.1172,-4.1172,-4.1172,-4.1172,-4.1172,-4.1172,-4.0781,-4.0254,-3.998,-3.9473,-3.8926,-3.8652,-3.8574,-3.8418,-3.7695,-3.7617,-3.7519,-3.6836,-3.6543,-3.6445,-3.6445,-3.6211,-3.6016,-3.6016,-3.5684,-3.5234,-3.4785,-3.4219,-3.375,-3.3457,-3.2715,-3.2229,-3.2229,-3.1543,-3.1055,-3.0918,-3.0898,-3.0898,-3.0898,-3.0898,-3.0898,-3.0898,-3.0898,-3.0684,-3.0215,-3.0195,-3.0078,-2.9805,-2.9785,-2.9785,-2.9785,-2.9785,-2.9726,-2.9626,-2.9626,-2.9626,-3.3516,-3.6074,-3.8437,-4.0195,-4.1836,-4.3164,-4.3594,-4.3984,-4.4004,-4.3105,-4.1484,-3.9824,-3.8496,-3.6934,-3.6152,-3.7012,-3.7285,-3.7988,-3.9726,-3.998,-3.998,-3.9941,-3.957,-3.9492,-3.9922,-4.0,-4.0859,-4.2891,-4.3867,-4.457,-4.5039,-4.4668,-4.4609,-4.5019,-4.2203,-3.9441,-3.683,-3.4829,-3.353,-3.309,-3.358,-3.5875,-3.9848,-3.9765,-4.1043,-4.3027,-4.2187,-4.1816,-4.1758,-4.1348,-4.1172,-4.1172,-4.1172,-4.1172,-4.1172,-4.1172,-4.1172,-4.1172,-4.1172,-4.1152,-4.1133,-4.1133,-4.0566,-3.9863,-3.9863,-3.9258,-3.8574,-3.8574,-3.8574,-3.8476,-3.8027,-3.7637,-3.7226,-3.6797,-3.6367,-3.6055,-3.6055,-3.6035,-3.6016,-3.6016,-3.5664,-3.5215,-3.4746,-3.3965,-3.3418,-3.3418,-3.2715,-3.2229,-3.2229,-3.1758,-3.1328,-3.0937,-3.0898,-3.0898,-3.0898,-3.0898,-3.0898,-3.0898,-3.0898,-3.0703,-3.0254,-3.0234,-3.0234,-3.0234,-3.0234,-3.0234,-3.0234,-3.0234,-3.0019,-2.9704,-2.9704,-2.9704,-3.5391,-3.7656,-3.9805,-4.1523,-4.2266,-4.2793,-4.3535,-4.3066,-4.2129,-4.0957,-3.8301,-3.5703,-3.4101,-3.3691,-3.4004,-3.5176,-3.7246,-3.9219,-4.0644,-4.1113,-4.1074,-4.043,-4.082,-4.1055,-4.0859,-4.1406,-4.2012,-4.2558,-4.3398,-4.4355,-4.5449,-4.5098,-4.4922,-4.5019,-4.201,-3.9246,-3.683,-3.4597,-3.4288,-3.5838,-3.7639,-3.9088,-4.0264,-4.1907,-4.2848,-4.3047,-4.25,-4.209,-4.1758,-4.1348,-4.1172,-4.1172,-4.1172,-4.1172,-4.1172,-4.1172,-4.1172,-4.1172,-4.1172,-4.0957,-4.0684,-4.0684,-4.0098,-3.9375,-3.9375,-3.9004,-3.8574,-3.8574,-3.8574,-3.8476,-3.8027,-3.7851,-3.7656,-3.7226,-3.6816,-3.6504,-3.6504,-3.625,-3.6016,-3.6016,-3.5391,-3.4746,-3.4316,-3.3789,-3.3418,-3.3418,-3.2715,-3.2229,-3.2229,-3.1523,-3.1016,-3.0898,-3.0898,-3.0898,-3.0898,-3.0898,-3.0898,-3.0898,-3.0898,-3.084,-3.0723,-3.0703,-3.0703,-3.0703,-3.0703,-3.0703,-3.0703,-3.0703,-3.0664,-3.0547,-3.0547,-3.0547,-3.7246,-3.9219,-4.0996,-4.2148,-4.2422,-4.2305,-4.1836,-4.0879,-3.9473,-3.7246,-3.4609,-3.2324,-3.0996,-3.0781,-3.1367,-3.3027,-3.5351,-3.7676,-3.9746,-4.0566,-4.0996,-4.1074,-4.1504,-4.1777,-4.1719,-4.2148,-4.2578,-4.2969,-4.3262,-4.3926,-4.5058,-4.4687,-4.4629,-4.5019,-4.2949,-4.0771,-3.8632,-3.6134,-3.6215,-3.8873,-4.0005,-4.1141,-4.2171,-4.3401,-4.3769,-4.332,-4.2695,-4.2285,-4.2031,-4.1426,-4.1172,-4.1172,-4.1172,-4.1172,-4.1172,-4.1172,-4.1172,-4.1172,-4.1172,-4.0762,-4.0273,-4.0469,-4.0059,-3.9473,-3.9258,-3.8906,-3.8574,-3.8574,-3.8574,-3.8516,-3.8281,-3.793,-3.7598,-3.7344,-3.6836,-3.6387,-3.6387,-3.6191,-3.5957,-3.5781,-3.5176,-3.457,-3.4141,-3.3711,-3.3418,-3.3418,-3.2871,-3.2383,-3.2187,-3.1426,-3.0898,-3.0898,-3.0898,-3.0898,-3.0898,-3.0898,-3.0898,-3.0898,-3.0898,-3.0898,-3.0898,-3.0898,-3.0898,-3.0898,-3.0898,-3.0898,-3.0898,-3.0898,-3.0898,-3.0898,-3.0898,-3.0898,-3.9004,-4.0605,-4.1894,-4.2324,-4.2344,-4.1699,-3.9531,-3.8242,-3.6543,-3.3144,-3.1074,-2.959,-2.8672,-2.834,-2.8965,-3.123,-3.2988,-3.5195,-3.8379,-3.9453,-4.0391,-4.1719,-4.1894,-4.207,-4.2558,-4.2598,-4.291,-4.3652,-4.332,-4.3516,-4.4512,-4.4082,-4.3954,-4.4381,-4.3665,-4.2534,-4.0957,-3.8529,-3.8908,-4.2092,-4.1586,-4.2462,-4.4394,-4.4336,-4.4062,-4.3574,-4.2773,-4.2402,-4.2285,-4.1504,-4.1172,-4.1172,-4.1172,-4.1172,-4.1172,-4.1172,-4.1172,-4.1172,-4.1172,-4.0644,-4.0039,-4.0332,-4.0117,-3.9648,-3.9238,-3.8867,-3.8574,-3.8574,-3.8574,-3.8574,-3.8574,-3.7988,-3.7363,-3.7305,-3.668,-3.6094,-3.6035,-3.6016,-3.5898,-3.5469,-3.5019,-3.457,-3.4141,-3.3711,-3.3418,-3.3418,-3.3066,-3.2637,-3.2226,-3.1465,-3.0957,-3.0898,-3.0898,-3.0898,-3.0898,-3.0898,-3.0898,-3.0898,-3.0898,-3.0898,-3.0898,-3.0898,-3.0898,-3.0898,-3.0898,-3.0898,-3.0898,-3.0898,-3.0898,-3.0898,-3.0898,-3.0898,-4.0351,-4.1308,-4.1894,-4.2324,-4.1894,-4.082,-3.8652,-3.6641,-3.4375,-3.1289,-2.9297,-2.7734,-2.6473,-2.7109,-2.8711,-3.1582,-3.3184,-3.5508,-3.9609,-4.0019,-4.0508,-4.2129,-4.2324,-4.2617,-4.3418,-4.3476,-4.3535,-4.3691,-4.332,-4.3769,-4.5371,-4.4707,-4.3304,-4.117,-4.0921,-4.088,-4.0872,-4.0457,-4.1617,-4.4403,-4.3979,-4.4039,-4.4394,-4.4004,-4.3594,-4.3164,-4.2656,-4.2226,-4.1875,-4.1387,-4.1172,-4.1172,-4.1172,-4.1172,-4.1172,-4.1172,-4.1172,-4.1172,-4.1172,-4.084,-4.0371,-4.0098,-3.9453,-3.8789,-3.8711,-3.8633,-3.8574,-3.8574,-3.8574,-3.8574,-3.8574,-3.8203,-3.7734,-3.7383,-3.6914,-3.6465,-3.6094,-3.6016,-3.5898,-3.5469,-3.5019,-3.457,-3.4141,-3.3711,-3.3418,-3.3418,-3.3066,-3.2637,-3.2226,-3.1719,-3.1269,-3.0937,-3.0898,-3.0898,-3.0898,-3.0898,-3.0898,-3.0898,-3.0898,-3.0898,-3.0898,-3.0898,-3.0898,-3.0898,-3.0898,-3.0898,-3.0898,-3.0898,-3.0898,-3.0898,-3.0898,-3.0898,-4.1035,-4.1816,-4.2168,-4.2383,-4.1621,-3.9961,-3.666,-3.4434,-3.207,-2.8594,-2.7031,-2.6163,-2.5508,-2.6445,-2.7949,-2.9844,-3.1426,-3.3848,-3.7949,-3.834,-3.9258,-4.209,-4.2422,-4.2676,-4.332,-4.3379,-4.3281,-4.3047,-4.2851,-4.3301,-4.459,-4.4258,-4.3407,-4.2076,-4.2057,-4.2264,-4.2716,-4.2716,-4.3651,-4.5351,-4.4922,-4.4726,-4.4707,-4.4023,-4.3476,-4.3047,-4.2383,-4.1992,-4.1758,-4.1348,-4.1172,-4.1172,-4.1172,-4.1172,-4.1172,-4.1172,-4.1172,-4.1152,-4.0918,-4.0547,-4.0117,-3.9687,-3.9258,-3.8867,-3.8633,-3.8574,-3.8574,-3.8574,-3.8574,-3.8574,-3.8574,-3.8242,-3.7812,-3.7402,-3.6797,-3.6269,-3.6074,-3.5859,-3.5566,-3.5117,-3.4668,-3.4238,-3.3809,-3.3555,-3.3418,-3.3418,-3.3242,-3.2969,-3.2559,-3.2129,-3.1601,-3.0957,-3.0898,-3.0898,-3.0898,-3.0898,-3.0898,-3.0898,-3.0898,-3.0898,-3.0898,-3.0898,-3.0898,-3.0898,-3.0898,-3.0898,-3.0898,-3.0898,-3.0898,-3.0898,-3.0898,-3.0898,-4.1094,-4.1973,-4.2402,-4.2305,-4.125,-3.9141,-3.4902,-3.2539,-3.0195,-2.6454,-2.5371,-2.5106,-2.5106,-2.582,-2.6855,-2.8086,-2.9434,-3.1797,-3.5937,-3.6621,-3.8027,-4.1719,-4.2246,-4.25,-4.3027,-4.2988,-4.2871,-4.2715,-4.2539,-4.2754,-4.3535,-4.3652,-4.375,-4.3848,-4.3848,-4.4082,-4.4531,-4.4531,-4.4863,-4.5527,-4.5098,-4.4883,-4.4863,-4.3984,-4.334,-4.2891,-4.2129,-4.1758,-4.1641,-4.1308,-4.1172,-4.1172,-4.1172,-4.1172,-4.1172,-4.1172,-4.1113,-4.0976,-4.0644,-4.0176,-3.9687,-3.9316,-3.9141,-3.9004,-3.8672,-3.8574,-3.8574,-3.8574,-3.8574,-3.8574,-3.8574,-3.832,-3.793,-3.7422,-3.6641,-3.6016,-3.6016,-3.5762,-3.5371,-3.4805,-3.4434,-3.4043,-3.3516,-3.3418,-3.3418,-3.3418,-3.3418,-3.3262,-3.2851,-3.25,-3.1973,-3.1113,-3.0937,-3.0898,-3.0898,-3.0898,-3.0898,-3.0898,-3.0898,-3.0898,-3.0898,-3.0898,-3.0898,-3.0898,-3.0898,-3.0898,-3.0898,-3.0898,-3.0898,-3.0898,-3.0898,-3.0898,-4.0371,-4.1523,-4.2344,-4.1953,-4.0586,-3.8301,-3.4375,-3.1836,-2.9453,-2.6317,-2.5371,-2.5106,-2.5106,-2.4844,-2.5449,-2.7891,0.0,-3.0293,-3.5371,-3.6426,-3.7812,-4.0918,-4.1621,-4.2168,-4.2988,-4.2715,-4.2793,-4.3535,-4.2871,-4.2637,-4.3105,-4.3496,-4.3906,-4.4316,-4.4336,-4.4531,-4.4961,-4.4961,-4.5,-4.5078,-4.4648,-4.4453,-4.4433,-4.3535,-4.2891,-4.2461,-4.1992,-4.1582,-4.123,-4.1191,-4.1172,-4.1172,-4.1172,-4.1172,-4.1172,-4.1172,-4.0918,-4.0586,-4.0527,-3.998,-3.9258,-3.9219,-3.8945,-3.8633,-3.8594,-3.8574,-3.8574,-3.8574,-3.8574,-3.8574,-3.8574,-3.8555,-3.8301,-3.75,-3.6641,-3.6016,-3.6016,-3.5996,-3.5703,-3.4863,-3.4668,-3.4375,-3.3555,-3.3418,-3.3418,-3.3418,-3.3418,-3.3262,-3.2851,-3.2754,-3.2402,-3.1562,-3.1113,-3.0898,-3.0898,-3.0898,-3.0898,-3.0898,-3.0898,-3.0898,-3.0898,-3.0898,-3.0898,-3.0898,-3.0898,-3.0898,-3.0898,-3.0898,-3.0898,-3.0898,-3.0898,-3.0898,-3.9551,-4.1269,-4.2324,-4.1894,-3.9902,-3.7246,-3.4121,-3.1152,-2.8632,-2.7134,-2.6221,-2.6023,-2.7144,-2.6281,-2.5895,0.0,0.0,0.0,-3.1582,-3.25,-3.4375,-3.8711,-3.9824,-4.0781,-4.2168,-4.2148,-4.2187,-4.2539,-4.248,-4.2617,-4.3047,-4.3242,-4.3652,-4.4375,-4.4648,-4.4726,-4.4648,-4.4902,-4.4902,-4.4648,-4.4473,-4.4394,-4.4355,-4.3203,-4.2598,-4.2383,-4.1719,-4.1328,-4.1172,-4.1172,-4.1172,-4.1172,-4.1172,-4.1172,-4.1172,-4.1172,-4.0898,-4.0488,-4.0234,-3.9726,-3.916,-3.8906,-3.8711,-3.8574,-3.8574,-3.8574,-3.8574,-3.8574,-3.8379,-3.8184,-3.8184,-3.7812,-3.7402,-3.7324,-3.6641,-3.6016,-3.6016,-3.5605,-3.5117,-3.4766,-3.4277,-3.3828,-3.3476,-3.3418,-3.3418,-3.3418,-3.3418,-3.3359,-3.3184,-3.2734,-3.2285,-3.1953,-3.1523,-3.1172,-3.0918,-3.0898,-3.0898,-3.0898,-3.0898,-3.0898,-3.0898,-3.0898,-3.0898,-3.0898,-3.0898,-3.0898,-3.0898,-3.0898,-3.0898,-3.0898,-3.0898,-3.0898,-3.8027,-4.0709,-4.2603,-4.2304,-4.0358,-3.7868,-3.5163,-3.1946,-2.9209,-2.8291,-2.7454,-2.7297,-2.8723,-2.7451,-2.6295,0.0,0.0,-2.6269,-2.916,-3.0156,-3.2226,-3.666,-3.7812,-3.9043,-4.1035,-4.1914,-4.2305,-4.2187,-4.2558,-4.3008,-4.3437,-4.3594,-4.3945,-4.457,-4.5,-4.5019,-4.459,-4.4883,-4.4687,-4.4004,-4.4004,-4.3945,-4.3769,-4.2734,-4.2246,-4.2207,-4.207,-4.1773,-4.125,-4.183,-4.1676,-4.1172,-4.1172,-4.1172,-4.1172,-4.1172,-4.082,-4.0293,-4.0,-3.9512,-3.8965,-3.8672,-3.8574,-3.8574,-3.8574,-3.8574,-3.8574,-3.8574,-3.8262,-3.793,-3.793,-3.7305,-3.6738,-3.7051,-3.6543,-3.6016,-3.6016,-3.543,-3.4863,-3.4726,-3.4121,-3.3574,-3.3437,-3.3418,-3.3418,-3.3418,-3.3418,-3.3418,-3.3418,-3.2793,-3.2305,-3.2187,-3.1777,-3.1348,-3.0918,-3.0898,-3.0898,-3.0898,-3.0898,-3.0898,-3.0898,-3.0898,-3.0898,-3.0898,-3.0898,-3.0898,-3.0898,-3.0898,-3.0898,-3.0898,-3.0898,-3.0898,-3.5586,-3.9688,-4.3446,-4.335,-4.243,-4.0793,-3.7978,-3.4655,-3.1644,-2.9775,-2.906,-2.8925,-2.9306,-2.7692,-2.643,-2.6802,0.0,0.0,-2.9219,-3.0684,-3.248,-3.5117,-3.5801,-3.707,-3.9668,-4.2207,-4.3516,-4.3105,-4.3457,-4.3887,-4.4355,-4.4785,-4.5,-4.5019,-4.5449,-4.5449,-4.5019,-4.5019,-4.4375,-4.3086,-4.3086,-4.2871,-4.2441,-4.2012,-4.1816,-4.1856,-4.3413,-4.2999,-4.1327,-4.3304,-4.2922,-4.1172,-4.1172,-4.1172,-4.1172,-4.1172,-4.0625,-3.9902,-3.9902,-3.9316,-3.8574,-3.8574,-3.8574,-3.8574,-3.8574,-3.8574,-3.8574,-3.8574,-3.8262,-3.793,-3.793,-3.7305,-3.668,-3.668,-3.6348,-3.6016,-3.6016,-3.5684,-3.5254,-3.4785,-3.4355,-3.3926,-3.3496,-3.3418,-3.3418,-3.3418,-3.3418,-3.3418,-3.3418,-3.3047,-3.2637,-3.2207,-3.1777,-3.1348,-3.0918,-3.0898,-3.0898,-3.0898,-3.0898,-3.0898,-3.0898,-3.0898,-3.0898,-3.0898,-3.0898,-3.0898,-3.0898,-3.0898,-3.0898,-3.0898,-3.0898,-3.0898,-3.4956,-3.7741,-3.9992,-3.926,-3.8211,-3.6905,-3.5002,-3.2568,-3.0703,-3.0648,-3.0223,-3.0299,-3.168,-3.0064,-2.8763,-2.9371,-2.8242,0.0,-2.8564,-3.0586,-3.2695,-3.4687,-3.791,-4.0527,-4.1933,-4.3066,-4.3789,-4.3965,-4.4375,-4.4551,-4.4414,-4.4805,-4.5156,-4.5469,-4.5605,-4.5469,-4.5039,-4.4414,-4.3769,-4.3066,-4.2773,-4.2558,-4.2402,-4.1992,-4.1797,-4.1935,-4.3413,-4.3718,-4.3207,-4.3869,-4.3718,-4.3075,-4.1676,-4.1172,-4.1172,-4.1172,-4.0625,-3.9902,-3.9902,-3.9316,-3.8574,-3.8574,-3.8574,-3.8574,-3.8574,-3.8574,-3.8457,-3.7871,-3.7598,-3.7422,-3.7148,-3.6641,-3.6309,-3.6601,-3.6348,-3.5937,-3.5664,-3.5488,-3.5254,-3.4785,-3.4355,-3.4023,-3.3887,-3.3613,-3.3418,-3.3418,-3.3418,-3.3418,-3.3418,-3.2812,-3.2324,-3.2187,-3.1523,-3.1035,-3.0898,-3.0898,-3.0898,-3.0898,-3.0898,-3.0898,-3.0898,-3.0898,-3.0898,-3.0898,-3.0898,-3.0898,-3.0898,-3.0898,-3.0898,-3.0898,-3.0898,-3.0898,0.0,-3.6547,-3.853,-3.8022,-3.7303,-3.6402,-3.5057,-3.2905,-3.1197,-3.1205,-3.0751,-3.0644,-3.1327,-2.9869,-2.861,-2.8732,-2.783,-2.7341,-2.7976,-3.0293,-3.2793,-3.5156,-3.9062,-4.1777,-4.2305,-4.3476,-4.4316,-4.4609,-4.4883,-4.4902,-4.4648,-4.4883,-4.5156,-4.543,-4.543,-4.5137,-4.4531,-4.3984,-4.334,-4.2598,-4.2324,-4.2109,-4.1953,-4.168,-4.1935,-4.2732,-4.4449,-4.4752,0.0,-4.4902,-4.4323,-4.2846,-4.1695,-4.1074,-4.0918,-4.0918,-4.0371,-3.9629,-3.9629,-3.918,-3.8574,-3.8574,-3.8574,-3.8574,-3.8574,-3.8574,-3.8437,-3.7734,-3.7422,-3.7207,-3.6777,-3.6348,-3.6094,-3.6367,-3.6094,-3.5723,-3.5449,-3.5137,-3.4863,-3.4726,-3.4219,-3.3887,-3.4043,-3.3711,-3.3418,-3.3418,-3.3418,-3.3418,-3.3418,-3.2832,-3.2344,-3.2248,-3.1699,-3.1309,-3.1133,-3.0976,-3.0957,-3.1113,-3.0976,-3.0898,-3.0898,-3.0898,-3.0898,-3.0898,-3.0898,-3.0898,-3.0898,-3.0898,-3.0898,-3.0898,-3.0898,-3.0898,0.0,-3.5803,-3.8501,-3.868,-3.8664,-3.829,-3.7136,-3.4876,0.0,-3.1529,-3.0834,-3.0154,-2.9125,-2.7893,-2.6777,-2.6011,-2.5892,-2.6388,-2.7669,-3.0176,-3.3246,-3.6789,-3.9739,-4.1465,-4.1582,-4.3696,-4.5078,-4.5117,-4.5098,-4.5058,-4.5019,-4.4961,-4.4922,-4.4883,-4.4863,-4.4473,-4.3711,-4.3613,-4.2969,-4.1797,-4.1777,-4.1621,-4.1385,-4.1385,-4.2483,-4.4377,-4.6367,-4.6072,-4.4452,-4.6219,-4.4752,-4.1346,-4.121,-4.0859,-4.0469,-4.0469,-3.9941,-3.9199,-3.9199,-3.8906,-3.8535,-3.8535,-3.8535,-3.8535,-3.8555,-3.8574,-3.8476,-3.8047,-3.7617,-3.7207,-3.6777,-3.6348,-3.6016,-3.6016,-3.5723,-3.543,-3.5351,-3.4726,-3.4258,-3.459,-3.4043,-3.3633,-3.4004,-3.373,-3.3457,-3.3437,-3.3418,-3.3418,-3.3418,-3.3066,-3.2656,-3.2246,-3.2209,-3.1992,-3.1641,-3.1191,-3.1094,-3.1504,-3.1133,-3.0898,-3.0898,-3.0898,-3.0898,-3.0898,-3.0898,-3.0898,-3.0898,-3.0898,-3.0898,-3.0898,-3.0898,-3.0898,-3.3126,0.0,-3.4996,-3.4629,-3.4807,-3.4901,0.0,0.0,0.0,-3.201,0.0,-3.1038,-3.0558,-2.9346,-2.8449,-2.8576,-2.8255,-2.8249,-2.905,-3.3066,-3.751,-4.1694,-4.3021,-4.405,-4.5164,-4.537,-4.5664,-4.5976,-4.5703,-4.5371,-4.5039,-4.4375,-4.3867,-4.3555,-4.3203,-4.3262,-4.3691,-4.2734,-4.209,-4.1797,-4.1484,-4.2084,-4.3435,-4.3435,-4.4473,-4.6441,-4.8434,-4.8121,-4.6367,-4.6809,-4.5431,-4.2789,-4.1257,-4.041,-4.0039,-4.0039,-3.9687,-3.9199,-3.9199,-3.8711,-3.8086,-3.8086,-3.8086,-3.8144,-3.8476,-3.8574,-3.8476,-3.8047,-3.7617,-3.7207,-3.6777,-3.6348,-3.6016,-3.6016,-3.5937,-3.5684,-3.5019,-3.498,-3.4922,-3.4336,-3.4316,-3.4336,-3.4101,-3.3984,-3.3809,-3.3476,-3.3418,-3.3418,-3.3418,-3.3066,-3.2754,-3.2656,-3.2051,-3.1894,-3.2441,-3.1797,-3.1406,-3.1504,-3.1133,-3.0898,-3.0898,-3.0898,-3.0898,-3.0898,-3.0898,-3.0898,-3.0898,-3.0898,-3.0898,-3.0898,-3.0898,-3.0898,-3.3111,-3.3294,-3.3445,-3.3144,-3.3294,-3.3445,0.0,0.0,0.0,0.0,0.0,0.0,-2.8922,-2.8297,-2.7876,-2.7803,-2.8046,-2.9106,-3.1603,-3.5019,-3.9154,-4.4141,-4.4362,-4.5012,-4.738,-4.6651,-4.5976,-4.6016,-4.5625,-4.5098,-4.4453,-4.3789,-4.3611,-4.412,-4.3735,-4.326,-4.2832,-4.2148,-4.1699,-4.1504,-4.2239,-4.3075,-4.4172,-4.5052,-4.6514,-4.8434,-4.9534,-4.8866,-4.7029,-4.6805,-4.4875,-4.2023,-4.0749,-3.9961,-3.957,-3.957,-3.9297,-3.8906,-3.8906,-3.8476,-3.7891,-3.7695,-3.7773,-3.7969,-3.8203,-3.8418,-3.8437,-3.7812,-3.748,-3.7148,-3.6523,-3.6191,-3.6016,-3.6016,-3.5879,-3.5547,-3.4844,-3.4902,-3.4883,-3.4199,-3.4258,-3.4336,-3.4121,-3.3906,-3.3691,-3.3457,-3.3418,-3.3418,-3.3418,-3.3223,-3.293,-3.2559,-3.2266,-3.2207,-3.248,-3.209,-3.1816,-3.1816,-3.123,-3.0898,-3.0898,-3.0898,-3.0898,-3.0898,-3.0898,-3.0898,-3.0898,-3.0898,-3.0898,-3.0898,-3.0898,-3.0898,-3.3111,-3.3194,-3.3294,-3.3162,-3.3111,-3.3111,-3.3111,0.0,0.0,0.0,0.0,0.0,0.0,-2.6746,-2.6786,-2.6291,-2.748,-3.0192,-3.5165,-3.7025,-4.0064,-4.5907,-4.5129,-4.5397,-4.8795,-4.743,-4.6094,-4.5625,-4.5176,-4.457,-4.375,-4.349,-4.3939,-4.5242,-4.5145,-4.4147,-4.2151,-4.2151,-4.1973,-4.1695,-4.3283,-4.4377,-4.5052,-4.6735,-4.8578,-5.041,-5.041,-4.9153,-4.7006,-4.6586,-4.4028,-4.0391,-3.9961,-3.9512,-3.9101,-3.9101,-3.8887,-3.8555,-3.8496,-3.8184,-3.7773,-3.7402,-3.75,-3.7754,-3.7891,-3.8184,-3.832,-3.7519,-3.7305,-3.7129,-3.6406,-3.6113,-3.6016,-3.6016,-3.5742,-3.5371,-3.4902,-3.4746,-3.457,-3.416,-3.4082,-3.4043,-3.3984,-3.373,-3.3496,-3.3437,-3.3418,-3.3418,-3.3418,-3.3418,-3.3125,-3.2344,-3.2519,-3.2578,-3.2285,-3.209,-3.2031,-3.2168,-3.1426,-3.0957,-3.0898,-3.0898,-3.0898,-3.0898,-3.0898,-3.0898,-3.0898,-3.0898,-3.0898,-3.0898,-3.0898,-3.0898,-3.3111,-3.3746,-3.4248,-3.3319,-3.3111,-3.3111,-3.3111,0.0,0.0,0.0,0.0,0.0,0.0,-2.8338,-2.8207,-2.8364,-3.0449,-3.4147,-4.0285,-4.0861,-4.3104,-4.992,-4.7827,-4.6865,-4.943,-4.7604,-4.5976,-4.5176,-4.4746,-4.4258,-4.373,-4.4215,-4.4571,-4.4796,-4.5996,-4.5735,-4.3767,-4.3746,-4.3725,-4.3663,-4.3945,-4.5849,-4.9081,-4.9391,-5.0646,-5.2491,-5.2491,-5.0339,-4.7006,-4.6586,-4.3857,-3.9941,-3.9492,-3.9043,-3.8672,-3.8672,-3.8633,-3.8516,-3.8164,-3.7754,-3.7383,-3.7324,-3.709,-3.6992,-3.7715,-3.7969,-3.793,-3.7441,-3.7305,-3.7266,-3.7129,-3.6562,-3.6016,-3.6016,-3.5976,-3.5801,-3.5371,-3.498,-3.457,-3.416,-3.4082,-3.3945,-3.3594,-3.3769,-3.3848,-3.3476,-3.3418,-3.3418,-3.3418,-3.3418,-3.3242,-3.2754,-3.2441,-3.2383,-3.2676,-3.1699,-3.1387,-3.2129,-3.1699,-3.1269,-3.0898,-3.0898,-3.0898,-3.0898,-3.0898,-3.0898,-3.0898,-3.0898,-3.0898,-3.0898,-3.0898,-3.0898,-3.3111,-3.3445,-3.3847,-3.3947,-3.3612,-3.2959,-3.1724,-3.1003,0.0,0.0,0.0,0.0,0.0,-2.9415,-3.0485,-3.2176,-3.4004,-3.6881,-4.1641,-4.1251,-4.3408,-5.1181,-4.8684,-4.7869,-5.1973,-4.9264,-4.7058,-4.6408,-4.4905,-4.4205,-4.4623,-4.465,-4.5534,-4.7512,-4.8259,-4.7686,-4.5723,-4.6735,-4.6219,-4.4172,-4.6293,-4.8056,-4.9533,-5.0947,-5.1877,-5.2503,-5.2804,-5.0646,-4.6984,-4.6272,-4.3632,-3.9824,-3.9141,-3.875,-3.8574,-3.8574,-3.8574,-3.8516,-3.8086,-3.7656,-3.7266,-3.7031,-3.6836,-3.6777,-3.7402,-3.7734,-3.7891,-3.7695,-3.748,-3.7187,-3.6719,-3.6309,-3.6016,-3.6016,-3.6016,-3.584,-3.5156,-3.5039,-3.4805,-3.3906,-3.3906,-3.3945,-3.3496,-3.3594,-3.3652,-3.3457,-3.3418,-3.3418,-3.3418,-3.3418,-3.3262,-3.2832,-3.2617,-3.2578,-3.2773,-3.2051,-3.1543,-3.1484,-3.1289,-3.1191,-3.123,-3.123,-3.1348,-3.1582,-3.1582,-3.1465,-3.123,-3.1465,-3.1465,-3.123,-3.123,-3.123,-3.2918,-3.2871,-3.2996,-3.3399,0.0,-3.3053,-3.1634,-3.0999,-3.074,0.0,0.0,0.0,0.0,-3.1025,-3.3276,-3.6002,-3.8053,-4.0542,-4.4207,-4.3276,-4.5072,-5.2708,-4.9792,-4.889,-5.3164,-5.0066,-4.7358,-4.6411,-4.4926,-4.4402,-4.5221,-4.5693,-4.7188,-4.9914,-5.041,-4.9748,-4.7686,-4.9677,-4.8722,-4.4827,-4.8151,-4.9792,-4.9827,-5.1668,-5.2302,-5.1925,-5.1918,-4.991,-4.6625,-4.58,-4.3486,-4.0375,-3.9996,-3.9562,-3.903,-3.8518,-3.834,-3.8379,-3.8047,-3.7715,-3.7383,-3.6953,-3.6758,-3.6738,-3.7051,-3.7383,-3.7637,-3.7637,-3.7402,-3.6992,-3.6348,-3.6094,-3.5996,-3.5898,-3.5879,-3.5684,-3.5019,-3.498,-3.4844,-3.4043,-3.3906,-3.3848,-3.3613,-3.3496,-3.3418,-3.3418,-3.3418,-3.3418,-3.3418,-3.3418,-3.3262,-3.2832,-3.2793,-3.2754,-3.2656,-3.2441,-3.1992,-3.123,-3.1191,-3.1328,-3.166,-3.168,-3.1816,-3.2168,-3.2229,-3.2012,-3.168,-3.2012,-3.1992,-3.168,-3.168,-3.168,-3.2416,-3.2258,-3.1896,-3.0377,-3.1565,-3.3464,-3.4781,-3.4163,0.0,-3.3413,-3.4177,-3.4067,-3.1482,-3.3786,-3.6765,-3.9118,-4.2773,-4.6822,-5.1184,-5.03,-5.1156,-5.6129,-5.2797,-5.0221,-5.051,-4.8288,-4.5653,-4.2939,-4.4313,-4.5143,-4.4775,-4.7857,-4.9724,-4.9961,-5.1747,-5.1747,-4.9819,-5.1747,-5.0717,-4.6809,-4.8377,-5.0153,-5.1872,-5.1532,-5.1373,-5.1256,-4.9563,-4.7586,-4.5662,-4.5172,-4.3703,-4.1967,-4.3206,-4.2401,-4.0326,-3.8136,-3.7637,-3.7969,-3.793,-3.791,-3.7812,-3.7383,-3.6992,-3.668,-3.6699,-3.6738,-3.6758,-3.6758,-3.6738,-3.6699,-3.6641,-3.6328,-3.5918,-3.5527,-3.543,-3.543,-3.5351,-3.4726,-3.4375,-3.5117,-3.4277,-3.3594,-3.3965,-3.3691,-3.3418,-3.3418,-3.3418,-3.3418,-3.3418,-3.3418,-3.3262,-3.2832,-3.2793,-3.2637,-3.2246,-3.2539,-3.2559,-3.2109,-3.2131,-3.209,-3.2129,-3.2129,-3.2148,-3.2229,-3.2229,-3.2148,-3.2129,-3.2148,-3.2148,-3.2129,-3.2129,-3.2129,-3.2265,-3.2717,-3.3104,-3.2419,-3.2816,0.0,0.0,-3.3554,-3.3312,-3.4232,-3.5707,-3.6758,-3.664,-3.7603,-3.9343,-4.2267,-4.5417,-4.8765,-5.2352,-5.091,-5.1063,-5.5432,-5.3072,-5.1545,-5.2814,-4.9829,-4.7397,-4.6258,-4.5441,-4.5418,-4.6517,-4.8783,-5.0551,-5.1747,-5.2491,-5.1807,-4.9462,-5.1393,-5.0852,-4.7841,-4.9987,-5.0999,-5.1071,-5.1222,-5.1096,-5.0679,-4.9184,-4.8047,-4.7144,-4.5524,-4.4413,-4.3692,-4.3616,-4.288,-4.1717,-4.1233,-4.0368,-3.9525,-3.9881,-3.9109,-3.7851,-3.7441,-3.7012,-3.668,-3.668,-3.668,-3.668,-3.668,-3.668,-3.6601,-3.6348,-3.5957,-3.5586,-3.543,-3.5176,-3.5271,-3.6343,-3.5451,-3.4877,-3.6347,-3.5311,-3.418,-3.4082,-3.3945,-3.373,-3.3457,-3.3418,-3.3418,-3.3418,-3.3418,-3.3359,-3.3203,-3.3184,-3.3008,-3.2598,-3.2949,-3.3008,-3.2578,-3.2305,-3.2285,-3.2559,-3.2559,-3.2676,-3.2949,-3.2949,-3.2812,-3.2559,-3.2812,-3.2812,-3.2559,-3.2559,-3.2559,-3.1813,-3.1988,-3.2352,-3.2438,0.0,0.0,-3.4993,-3.4469,-3.4084,-3.6114,-3.7543,-3.8982,-4.0891,-4.1084,-4.1971,-4.496,-4.8252,-5.1178,-5.3273,-5.2112,-5.2095,-5.4827,-5.3322,-5.2476,-5.3313,-5.0689,-4.8731,-4.8037,-4.6977,-4.7002,-4.8355,-4.9866,-5.1268,-5.2585,-5.2503,-5.1563,-4.9793,-5.1191,-5.0819,-4.8729,-5.0471,-5.0896,-5.0167,-5.0393,-5.0268,-4.9761,-4.7614,-4.7108,-4.7617,-4.5165,-4.4755,-4.5546,-4.4247,-4.3433,-4.3071,-4.2748,-4.1901,-4.0921,-4.131,-4.0675,-3.9543,-3.8881,-3.8251,-3.7677,-3.7397,-3.6926,-3.6465,-3.6465,-3.6465,-3.6406,-3.6094,-3.5703,-3.5351,-3.5215,-3.5363,-3.582,-3.7064,-3.638,-3.5966,-3.7461,-3.6087,-3.4609,-3.4316,-3.416,-3.3926,-3.3496,-3.3418,-3.3418,-3.3418,-3.3418,-3.3418,-3.3418,-3.3418,-3.3301,-3.3008,-3.3723,-3.3826,-3.3008,-3.3188,-3.323,-3.2988,-3.2988,-3.3125,-3.3418,-3.3418,-3.3281,-3.2988,-3.3281,-3.3281,-3.2988,-3.2988,-3.2988,-3.0909,-2.9796,-2.9011,-2.9371,0.0,0.0,-3.8532,-3.7629,-3.6247,-3.9576,-4.0104,-4.0822,-4.3626,-4.4127,-4.4885,-4.7064,-5.1462,-5.4561,-5.4561,-5.5039,-5.5164,-5.4612,-5.4059,-5.2957,-5.1034,-5.0342,-4.9153,-4.7175,-4.8866,-4.9961,-4.9961,-5.1299,-5.2101,-5.2076,-5.1548,-5.1272,-5.1272,-5.1272,-5.0695,-4.959,-4.959,-4.959,-4.9565,-4.9012,-4.8761,-4.8584,-4.4449,-4.4245,-4.657,-4.3819,-4.4736,-4.7646,-4.5513,-4.4603,-4.4341,-4.2089,-4.1495,-4.1833,-4.1833,-4.2481,-4.313,-4.2146,-4.1063,-3.9951,-3.8891,-3.7374,-3.6016,-3.6016,-3.6016,-3.6016,-3.6016,-3.5703,-3.5273,-3.4824,-3.6014,-3.7318,-3.7318,-3.7318,-3.7592,-3.8429,-3.6512,-3.4707,-3.4707,-3.4355,-3.399,-3.3496,-3.3418,-3.3418,-3.3418,-3.3418,-3.3418,-3.3418,-3.3418,-3.3418,-3.3418,-3.484,-3.5088,-3.3481,-3.4922,-3.5088,-3.3481,-3.3418,-3.3418,-3.3418,-3.3418,-3.3418,-3.3418,-3.3418,-3.3418,-3.3418,-3.3418,-3.3418,-3.0708,-3.0891,0.0,-3.2333,0.0,0.0,0.0,-3.8834,0.0,-4.4161,-4.3682,-4.3443,-4.7258,-4.7361,-4.743,-4.9232,-5.2004,-5.411,-5.4511,-5.4361,-5.4135,-5.3984,-5.3482,-5.2948,-5.2342,-5.0884,-4.9582,-4.8544,-4.9039,-4.9224,-4.8798,-5.0512,-5.1348,-5.0921,-5.1147,-5.0896,-5.0092,-5.0469,-5.0117,-4.9012,-4.9012,-4.8812,-4.841,-4.8234,-4.8159,-4.8033,-4.5541,-4.566,-4.7513,-4.6661,-4.6696,-4.7269,-4.66,-4.6118,-4.576,-4.544,-4.4649,-4.3648,-4.4085,-4.3539,-4.2594,-4.1968,-4.1551,-4.0956,-3.9184,-3.8221,-3.7575,-3.6336,-3.6016,-3.6016,-3.6016,-3.5703,-3.5351,-3.5215,-3.6257,-3.7721,-3.9248,-3.8573,-3.8251,-4.0104,-3.7612,-3.5078,-3.4766,-3.5284,-3.5222,-3.3666,-3.4383,-3.4674,-3.3544,-3.3418,-3.3839,-3.4964,-3.5088,-3.5088,-3.5088,-3.5499,-3.5088,-3.3481,-3.3839,-3.3902,-3.3418,-3.3418,-3.3418,-3.3418,-3.3418,-3.3418,-3.3418,-3.3418,-3.3418,-3.3418,-3.3418,-3.3418,-3.0608,-3.1386,0.0,-3.3769,-3.5718,-3.8214,-4.1781,-4.2296,-4.3267,-4.762,-4.7021,-4.6758,-4.999,-4.9545,-4.919,-5.0838,-5.2553,-5.3758,-5.3884,-5.3783,-5.3632,-5.3406,-5.313,-5.2929,-5.2929,-5.1619,-5.0701,-5.0291,-5.0073,-4.9708,-4.915,-5.0074,-5.0343,-4.9791,-4.9866,-4.9615,-4.8937,-4.9264,-4.8987,-4.8109,-4.7908,-4.7506,-4.6954,-4.7179,-4.728,-4.7218,-4.6336,-4.6036,-4.6302,-4.7171,-4.728,-4.6803,-4.6803,-4.6602,-4.6351,-4.6677,-4.6081,-4.524,-4.5556,-4.5079,-4.4167,-4.3716,-4.331,-4.2499,-4.0061,-3.8976,-3.8179,-3.6273,-3.5898,-3.6016,-3.6016,-3.584,-3.5787,-3.6256,-3.7501,-3.9119,-4.1126,-4.0345,-3.9605,-4.0921,-3.819,-3.5689,-3.5922,-3.6426,-3.6583,-3.604,-3.6638,-3.663,-3.5479,-3.5294,-3.5704,-3.666,-3.676,-3.6478,-3.5867,-3.6417,-3.5806,-3.3544,-3.4027,-3.407,-3.3418,-3.3418,-3.3418,-3.3418,-3.4027,-3.4383,-3.4383,-3.4383,-3.4483,-3.4581,-3.3812,-3.3516,-3.0708,-3.1512,0.0,-3.4462,-3.6944,-4.0072,-4.4247,-4.7143,-4.916,-4.979,-4.9909,-5.0293,-5.1825,-5.0845,-5.0318,-5.185,-5.2879,-5.3306,-5.2829,-5.3231,-5.3381,-5.2904,-5.2904,-5.2904,-5.2854,-5.2402,-5.2051,-5.1875,-5.1398,-5.0845,-5.0218,-4.9715,-4.9188,-4.8636,-4.8109,-4.7832,-4.7832,-4.7832,-4.7606,-4.7068,-4.6577,-4.6024,-4.5497,-4.5949,-4.615,-4.6175,-4.6677,-4.5699,-4.3945,-4.6043,-4.6602,-4.615,-4.615,-4.615,-4.615,-4.615,-4.615,-4.6175,-4.6225,-4.6577,-4.6903,-4.6451,-4.5626,-4.4215,-4.141,-3.9734,-3.8381,-3.6063,-3.5857,-3.6219,-3.6219,-3.6336,-3.6824,-3.8138,-3.9557,-4.0989,-4.2541,-4.1982,-4.1158,-4.0921,-3.8357,-3.6542,-3.7728,-3.7719,-3.8141,-3.9865,-3.9498,-3.8784,-3.8358,-3.8246,-3.8283,-3.8402,-3.8402,-3.7805,-3.6173,-3.7385,-3.6842,-3.3607,-3.4798,-3.4964,-3.365,-3.3481,-3.3481,-3.3607,-3.5026,-3.5806,-3.5806,-3.5848,-3.5976,-3.6227,-3.4329,-3.3691,-3.1512,-3.2365,0.0,0.0,-4.2215,-4.6389,-4.865,-4.9967,-5.0513,-4.9801,-5.0705,-5.1674,-5.2026,-5.1825,-5.1674,-5.2051,-5.1925,-5.1774,-5.1649,-5.2101,-5.2402,-5.2302,-5.2653,-5.2754,-5.2327,-5.2176,-5.1548,-5.0243,-5.0017,-4.9515,-4.851,-4.8335,-4.8033,-4.7506,-4.7355,-4.7305,-4.7305,-4.7305,-4.7193,-4.7068,-4.6577,-4.6024,-4.5472,-4.5146,-4.4995,-4.4995,-4.5121,-4.4836,-4.4442,-4.4919,-4.5095,-4.4995,-4.4995,-4.4995,-4.4995,-4.4995,-4.4995,-4.5045,-4.5497,-4.5748,-4.5899,-4.62,-4.6134,-4.5343,-4.2046,-4.0835,-3.9996,-3.6756,-3.6931,-3.8021,-3.8021,-3.9059,-4.0515,-4.204,-4.1701,-4.1039,-4.1097,-4.114,-4.0684,-3.8959,-3.7986,-3.7574,-3.7861,-3.9704,-4.1317,-4.1741,-4.0189,-3.8979,-3.8866,-3.847,-3.8698,-3.9931,-4.0071,-3.9405,-3.7805,-3.7985,-3.6842,-3.3607,-3.3713,-3.432,-3.5273,-3.407,-3.4027,-3.5273,-3.5622,-3.5806,-3.5806,-3.6205,-3.5767,-3.464,-3.4157,-3.3984,-3.1763,0.0,0.0,-4.0752,0.0,-4.7908,-4.9314,-4.9866,-4.9916,-4.9314,-5.0544,-5.1699,-5.1699,-5.1699,-5.1699,-5.1699,-5.1247,-5.0971,-5.1247,-5.1297,-5.1398,-5.1674,-5.1975,-5.2026,-5.1749,-5.1222,-5.0544,-4.9665,-4.9088,-4.8309,-4.7205,-4.7129,-4.6778,-4.5949,-4.5924,-4.5924,-4.5924,-4.5924,-4.5924,-4.5924,-4.5372,-4.4669,-4.3947,-4.4141,-4.4242,-4.4242,-4.4242,-4.4367,-4.4618,-4.4618,-4.4618,-4.4618,-4.4618,-4.4618,-4.4618,-4.4618,-4.4618,-4.4669,-4.497,-4.507,-4.5121,-4.5422,-4.5497,-4.4948,-4.2113,-4.1468,-4.1092,-3.8508,-3.8528,-3.9455,-3.9758,-4.0537,-4.1629,-4.3271,-4.2833,-4.214,-4.2772,-4.221,-4.1342,-4.0482,-3.9597,-3.9429,-4.0479,-4.2447,-4.3643,-4.3105,-4.2254,-4.1508,-4.1009,-4.0914,-4.1109,-4.1696,-4.1728,-4.0765,-3.8402,-3.8388,-3.7384,-3.4757,-3.4037,-3.473,-3.6842,-3.5396,-3.5335,-3.6902,-3.7723,-3.7723,-3.6963,-3.74,-3.6896,-3.5497,-3.4547,-3.418,-3.1763,0.0,-3.7389,-4.2961,-4.5522,0.0,-4.8109,-4.841,-4.8485,-4.8485,-4.9741,-5.0845,-5.0845,-5.0845,-5.0845,-5.0845,-5.0368,-5.0142,-5.0619,-5.0368,-5.0343,-5.0921,-5.1071,-5.1096,-5.0996,-5.0142,-4.9439,-4.9063,-4.8159,-4.7154,-4.6075,-4.6024,-4.5598,-4.4644,-4.4443,-4.4392,-4.4493,-4.4292,-4.4242,-4.4342,-4.379,-4.2986,-4.2087,-4.2961,-4.3388,-4.3388,-4.3489,-4.379,-4.4192,-4.4292,-4.4342,-4.4342,-4.4342,-4.4342,-4.4342,-4.4342,-4.4342,-4.4342,-4.4443,-4.4493,-4.4493,-4.4593,-4.4618,-4.4228,-4.2134,-4.1828,-4.1741,-4.0134,-4.0118,-4.0711,-4.1266,-4.1638,-4.2253,-4.3531,-4.3575,-4.3615,-4.473,-4.3479,-4.216,-4.2282,-4.1499,-4.141,-4.3521,-4.4752,-4.5121,-4.4091,-4.4342,-4.4267,-4.3237,-4.3438,-4.3489,-4.3037,-4.2737,-4.1362,-3.8461,-3.8544,-3.7923,-3.5949,-3.5145,-3.5915,-3.8543,-3.7363,-3.7287,-3.8693,-3.9779,-3.9615,-3.8223,-3.8442,-3.7919,-3.6534,-3.4863,-3.4258,0.0,0.0,-3.9195,0.0,-4.4091,-4.5246,0.0,-4.7004,-4.7355,-4.7355,-4.8284,-4.9113,-4.9113,-4.9113,-4.9113,-4.9113,-4.8611,-4.8259,-4.8335,-4.8711,-4.9213,-4.9766,-5.0243,-5.0343,-4.9866,-4.969,-4.8812,-4.6878,-4.6602,-4.6024,-4.492,-4.4844,-4.4794,-4.4618,-4.3689,-4.3438,-4.3915,-4.2961,-4.2766,-4.3187,-4.269,-4.2057,-4.1401,-4.1551,-4.1601,-4.1652,-4.2158,-4.2464,-4.259,-4.3011,-4.3187,-4.3187,-4.3187,-4.3187,-4.3187,-4.3187,-4.3187,-4.3263,-4.374,-4.3915,-4.3991,-4.4468,-4.4618,-4.4303,-4.2508,-4.2054,-4.1741,-3.9988,-4.067,-4.1858,-4.1989,-4.3482,-4.4829,-4.4535,-4.4793,-4.473,-4.3059,-4.2413,-4.1704,-4.0409,-4.1453,-4.2949,-4.4225,-4.5078,-4.5271,-4.4618,-4.4568,-4.4392,-4.3765,-4.3338,-4.3062,-4.2986,-4.1728,-4.0187,-3.8342,-3.8291,-3.7572,-3.5928,-3.6946,-3.8469,-4.0187,-4.0047,-4.02,-4.0763,-3.9694,-3.883,-3.8223,-3.7625,-3.6389,-3.4463,-3.423,-3.4101,-3.3294,-3.573,-3.8316,0.0,-4.2942,-4.3539,-4.4644,-4.5321,-4.5723,-4.5723,-4.6376,-4.7205,-4.8109,-4.8284,-4.8284,-4.8284,-4.7832,-4.7581,-4.7857,-4.7883,-4.8058,-4.8586,-4.8862,-4.8812,-4.8259,-4.7933,-4.7079,-4.5497,-4.5372,-4.4744,-4.3313,-4.3539,-4.3413,-4.2755,-4.2308,-4.2183,-4.2409,-4.1932,-4.1806,-4.2057,-4.1806,-4.1404,-4.0824,-4.0824,-4.1,-4.13,-4.1605,-4.1706,-4.1731,-4.2283,-4.2333,-4.2133,-4.2735,-4.2841,-4.2615,-4.2861,-4.2986,-4.3011,-4.3263,-4.3338,-4.3388,-4.3614,-4.3689,-4.3576,-4.2865,-4.261,-4.251,-4.2051,-4.2442,-4.3124,-4.3443,-4.4268,-4.502,-4.5095,-4.4819,-4.4369,-4.3752,-4.3517,-4.3281,-4.258,-4.3214,-4.3989,-4.4469,-4.4568,-4.4568,-4.4618,-4.4618,-4.4418,-4.3865,-4.4141,-4.4016,-4.3087,-4.1825,-4.061,-3.9604,-3.8948,-3.8575,-3.8521,-3.853,-3.9587,-4.1866,-4.0245,-3.9755,-4.0867,-4.0444,-3.9213,-3.7252,-3.715,-3.6047,-3.4082,-3.4082,-3.4082,0.0,0.0,-3.6405,-3.9874,-4.1056,-4.1659,0.0,-4.3489,-4.4041,-4.4192,-4.4669,-4.5472,-4.6828,-4.7205,-4.728,-4.728,-4.6979,-4.6853,-4.723,-4.6954,-4.6853,-4.7255,-4.728,-4.7129,-4.6753,-4.62,-4.5422,-4.4292,-4.4066,-4.3388,-4.2007,-4.2333,-4.2183,-4.13,-4.115,-4.1075,-4.1075,-4.0949,-4.0874,-4.0874,-4.0874,-4.0701,-4.03,-4.03,-4.0526,-4.0874,-4.1025,-4.1075,-4.1125,-4.1731,-4.1706,-4.1351,-4.2233,-4.2409,-4.2263,-4.2665,-4.2861,-4.2986,-4.2986,-4.2986,-4.2986,-4.2986,-4.2986,-4.2986,-4.2986,-4.2986,-4.3062,-4.3489,-4.3589,-4.3689,-4.4091,-4.4317,-4.4518,-4.4945,-4.4644,-4.4217,-4.4217,-4.4418,-4.4593,-4.4443,-4.4518,-4.4618,-4.4618,-4.4292,-4.4141,-4.4568,-4.4744,-4.4644,-4.4091,-4.4618,-4.4568,-4.3313,-4.1995,-4.102,-4.0616,-3.9811,-3.9524,-3.9954,-3.9597,-4.0058,-4.1696,-3.9464,-3.8625,-3.9531,-3.9956,-3.8953,-3.6478,-3.6494,-3.5682,-3.4082,-3.3965,-3.3965,-3.1286,-3.2416,0.0,-3.6128,-3.7913,-3.932,-4.045,-4.1505,-4.2489,-4.2961,-4.3514,-4.4066,-4.4694,-4.5246,-4.5623,-4.5623,-4.5598,-4.5573,-4.5623,-4.5598,-4.5573,-4.5623,-4.5623,-4.5598,-4.5573,-4.5045,-4.4242,-4.3137,-4.264,-4.2007,-4.1351,-4.1351,-4.1351,-4.1275,-4.0827,-4.0551,-4.0551,-4.0049,-3.9772,-3.9772,-3.9772,-3.9772,-3.9747,-3.9747,-3.9747,-3.9798,-4.0325,-4.0551,-4.0601,-4.11,-4.13,-4.13,-4.1351,-4.1731,-4.2213,-4.2238,-4.259,-4.2986,-4.2986,-4.2986,-4.2986,-4.2986,-4.2986,-4.2986,-4.2986,-4.2986,-4.2986,-4.3011,-4.3011,-4.3037,-4.3062,-4.3463,-4.384,-4.389,-4.4669,-4.497,-4.3413,-4.389,-4.4468,-4.394,-4.4267,-4.4618,-4.4618,-4.4593,-4.4593,-4.4618,-4.5095,-4.5246,-4.4644,-4.4166,-4.3865,-4.3765,-4.1874,-4.0616,-4.0592,-4.0558,-3.9919,-3.8402,-3.9721,-3.9919,-3.8521,-3.8283,-3.7725,-3.6748,-3.7129,-3.7024,-3.6478,-3.538,-3.4557,-3.4062,-3.3652,-3.3672,-3.1537,0.0,0.0,-3.4751,-3.6282,-3.7511,-3.8216,-3.9798,-4.1153,-4.1354,-4.2108,-4.2685,-4.2534,-4.384,-4.4945,-4.4945,-4.4945,-4.4945,-4.4945,-4.4618,-4.4418,-4.4418,-4.4418,-4.4116,-4.347,-4.3489,-4.2961,-4.1505,-4.153,-4.1229,-4.0325,-4.0626,-4.0651,-4.03,-4.0099,-3.9998,-3.9998,-3.9798,-3.9697,-3.9697,-3.9697,-3.9697,-3.9697,-3.9697,-3.9697,-3.9697,-3.9898,-3.9998,-4.0023,-4.0576,-4.0601,-4.035,-4.1,-4.1254,-4.1178,-4.1961,-4.2338,-4.2564,-4.2861,-4.2986,-4.2986,-4.2986,-4.2986,-4.2986,-4.2986,-4.2986,-4.3062,-4.3413,-4.3263,-4.3137,-4.384,-4.3915,-4.389,-4.4242,-4.492,-4.5221,-4.4242,-4.4066,-4.4141,-4.4292,-4.4192,-4.4091,-4.4091,-4.4091,-4.4217,-4.4568,-4.4161,-4.3772,-4.3553,-4.3359,-4.2912,-4.2234,-4.1503,-4.1379,-4.2061,-4.1191,-4.0361,-3.9756,-4.0303,-3.9873,-3.8283,-3.7183,-3.6502,-3.6058,-3.6478,-3.6222,-3.534,-3.4936,-3.4473,-3.4062,-3.3633,-3.3496,-3.111,0.0,0.0,0.0,-3.4726,-3.555,-3.6433,-3.7914,-3.922,-3.9597,-4.0551,-4.1329,-4.1275,-4.2479,-4.3589,-4.3765,-4.379,-4.379,-4.379,-4.3489,-4.3187,-4.2986,-4.2986,-4.2685,-4.1957,-4.2057,-4.1706,-4.0601,-4.0676,-4.0475,-3.9747,-3.9873,-3.9697,-3.9145,-3.912,-3.912,-3.912,-3.912,-3.912,-3.912,-3.932,-3.9421,-3.9421,-3.9622,-3.9697,-3.9697,-3.9697,-3.9697,-3.9722,-4.0099,-4.0023,-3.9772,-4.0501,-4.0676,-4.0601,-4.1329,-4.1731,-4.1932,-4.2308,-4.2534,-4.2766,-4.2766,-4.2836,-4.2986,-4.2986,-4.2986,-4.3062,-4.3413,-4.3388,-4.3413,-4.4166,-4.4367,-4.4468,-4.4819,-4.5221,-4.5372,-4.4995,-4.4618,-4.4468,-4.4844,-4.4618,-4.4367,-4.4367,-4.4367,-4.4493,-4.4869,-4.4396,-4.4026,-4.4026,-4.3711,-4.3143,-4.2442,-4.2113,-4.2004,-4.2174,-4.1191,-4.0129,-3.903,-3.8971,-3.826,-3.666,-3.6112,-3.5806,-3.5806,-3.6763,-3.6917,-3.6111,-3.5554,-3.5156,-3.4876,-3.4024,-3.3809,0.0,0.0,0.0,-3.2591,-3.3036,-3.3445,-3.5006,-3.5881,-3.6656,-3.7713,-3.8818,-3.9923,-4.0974,-4.1175,-4.1404,-4.2011,-4.2137,-4.2187,-4.2187,-4.2162,-4.1907,-4.1326,-4.125,-4.125,-4.1225,-4.0802,-4.0475,-4.0475,-3.9948,-3.9647,-3.9647,-3.9145,-3.8592,-3.8015,-3.8015,-3.8015,-3.8015,-3.8015,-3.8015,-3.8015,-3.8567,-3.8894,-3.8919,-3.9421,-3.9672,-3.9672,-3.9697,-3.9697,-3.9697,-3.9697,-3.9697,-3.9697,-3.9697,-4.0023,-4.0501,-4.0501,-4.0852,-4.125,-4.1275,-4.1706,-4.2213,-4.2213,-4.259,-4.2986,-4.2986,-4.2986,-4.2986,-4.2986,-4.3388,-4.3815,-4.384,-4.4669,-4.5522,-4.5522,-4.5497,-4.5497,-4.5522,-4.5497,-4.5497,-4.5497,-4.5497,-4.5497,-4.5497,-4.5497,-4.5497,-4.5497,-4.5889,-4.624,-4.624,-4.5204,-4.4527,-4.4502,-4.3639,-4.24,-4.0765,-4.065,-3.9265,-3.6051,-3.5806,-3.5088,-3.3544,-3.4964,-3.5806,-3.5867,-3.7906,-3.894,-3.888,-3.735,-3.6561,-3.6499,-3.4896,-3.457,-2.9804,0.0,0.0,0.0,0.0,0.0,-3.2441,-3.3596,-3.4901,-3.5959,-3.6784,-3.7613,-3.8718,-3.8919,-3.8969,-3.912,-4.0501,-4.1555,-4.1555,-4.1229,-4.0902,-4.0752,-4.0752,-4.0601,-4.0199,-4.0023,-3.9747,-3.9346,-3.8793,-3.8467,-3.8467,-3.8341,-3.8165,-3.8015,-3.8015,-3.8015,-3.8015,-3.8015,-3.8015,-3.8015,-3.8165,-3.8241,-3.8266,-3.8843,-3.9094,-3.912,-3.9521,-3.9697,-3.9697,-3.9697,-3.9697,-3.9697,-3.9697,-3.9798,-3.9973,-4.0375,-4.0601,-4.0802,-4.115,-4.1706,-4.2213,-4.2213,-4.259,-4.2986,-4.2986,-4.2986,-4.3062,-4.3463,-4.3689,-4.3991,-4.4819,-4.5547,-4.6075,-4.6075,-4.5773,-4.5598,-4.5999,-4.5773,-4.5497,-4.5497,-4.5497,-4.5497,-4.5497,-4.5497,-4.5497,-4.5497,-4.4852,-4.4436,-4.4436,-4.3832,-4.3216,-4.2806,-4.3276,-4.3219,-4.24,-4.1248,-3.9698,-3.7686,-3.6456,-3.5622,-3.515,-3.556,-3.6356,-3.7506,-3.9249,-3.9554,-3.8365,-3.8653,-3.8135,-3.6917,-3.5271,-3.4844,-2.9854,-2.9804,-2.9905,-3.0357,0.0,0.0,-3.1286,-3.2139,-3.3093,-3.3928,-3.4776,-3.568,-3.6784,-3.6985,-3.7136,-3.7588,-3.8743,-3.9697,-3.9923,-3.9873,-3.9747,-3.9496,-3.9697,-3.9597,-3.9044,-3.8994,-3.8843,-3.8542,-3.8191,-3.7914,-3.7688,-3.7663,-3.7462,-3.6937,-3.6985,-3.6985,-3.6985,-3.6985,-3.7086,-3.7337,-3.7563,-3.7663,-3.7688,-3.8241,-3.8517,-3.8542,-3.9094,-3.9346,-3.9371,-3.9597,-3.9697,-3.9697,-3.9697,-3.9697,-3.9747,-4.0049,-4.0174,-4.0224,-4.0551,-4.1003,-4.1505,-4.1731,-4.2183,-4.274,-4.2911,-4.2986,-4.3037,-4.3363,-4.3614,-4.4066,-4.5196,-4.5547,-4.5673,-4.5924,-4.5547,-4.5221,-4.5547,-4.5547,-4.5547,-4.5773,-4.5824,-4.5748,-4.5522,-4.5673,-4.5748,-4.5522,-4.5119,-4.4767,-4.4767,-4.4281,-4.3746,-4.3211,-4.3515,-4.3027,-4.1182,-4.0765,-3.9639,-3.7303,-3.6941,-3.682,-3.682,-3.7424,-3.835,-3.9528,-4.1099,-4.1567,-4.0881,-4.0542,-3.9775,-3.8506,-3.7485,-3.6914,-3.0105,-3.0005,-3.0281,-3.116,-3.0809,0.0,-3.1135,-3.1386,-3.1612,-3.2039,-3.2918,-3.3972,-3.5031,-3.5232,-3.5558,-3.6558,-3.6835,-3.7161,-3.7914,-3.8442,-3.8592,-3.8065,-3.8417,-3.8467,-3.7965,-3.7814,-3.7739,-3.7739,-3.7688,-3.7437,-3.6935,-3.691,-3.6458,-3.5433,-3.5408,-3.5433,-3.5508,-3.5508,-3.5805,-3.6405,-3.6908,-3.7086,-3.7111,-3.7663,-3.7914,-3.7939,-3.8517,-3.8869,-3.8969,-3.9396,-3.9647,-3.9697,-3.9697,-3.9697,-3.9697,-3.9697,-3.9697,-3.9697,-3.9697,-4.0049,-4.0601,-4.105,-4.1656,-4.2313,-4.2791,-4.2936,-4.2986,-4.3062,-4.3413,-4.4041,-4.5121,-4.502,-4.4744,-4.5271,-4.4945,-4.4543,-4.4618,-4.502,-4.5547,-4.6125,-4.6276,-4.615,-4.5673,-4.5974,-4.6125,-4.5573,-4.5949,-4.6276,-4.6225,-4.5849,-4.5321,-4.4694,-4.4192,-4.2503,-3.9039,-3.9873,-3.9405,-3.6517,-3.7506,-3.8283,-3.8461,-3.9814,-4.0922,-4.1574,-4.2979,-4.3908,-4.4228,-4.2321,-4.1181,-4.0756,-4.0419,-3.9668,-3.111,-3.1411,-3.1687,-3.1461,-3.224,0.0,-3.111,-3.1436,-3.1964,-3.1612,-3.1712,-3.2215,-3.3345,-3.3571,-3.3621,-3.3847,-3.4625,-3.5855,-3.7739,-3.809,-3.814,-3.8015,-3.7713,-3.7462,-3.7362,-3.6558,-3.5984,-3.5984,-3.5583,-3.5303,-3.5203,-3.5203,-3.5102,-3.4831,-3.4831,-3.5056,-3.5483,-3.5508,-3.5805,-3.6405,-3.6505,-3.6581,-3.6581,-3.7086,-3.7337,-3.7387,-3.7939,-3.8442,-3.8919,-3.8994,-3.9295,-3.9697,-3.9697,-3.9697,-3.9697,-3.9697,-3.9697,-3.9697,-3.9697,-4.0049,-4.0526,-4.0651,-4.1354,-4.2238,-4.2338,-4.269,-4.3062,-4.3514,-4.3714,-4.394,-4.4618,-4.4719,-4.4644,-4.4769,-4.4367,-4.4091,-4.4518,-4.4719,-4.497,-4.5522,-4.5999,-4.6276,-4.6175,-4.6225,-4.6125,-4.5573,-4.5949,-4.615,-4.5698,-4.5949,-4.5748,-4.4744,-4.4518,-4.3811,-4.2224,-4.1191,-4.0361,-3.9698,-3.8757,-3.8757,-4.0071,-4.0419,-4.1239,-4.2662,-4.3025,-4.2797,-4.2014,-4.1483,-4.1661,-4.2395,-4.0984,-3.9668,-3.1612,-3.1587,-3.1863,-3.2164,-3.224,0.0,0.0,-3.121,-3.1009,-3.1009,-3.0783,-3.0934,-3.2039,-3.2014,-3.2114,-3.2943,-3.3294,-3.4048,-3.573,-3.6659,-3.6985,-3.6433,-3.6132,-3.573,-3.5177,-3.4876,-3.468,-3.468,-3.4223,-3.4022,-3.4299,-3.4299,-3.4299,-3.4299,-3.4299,-3.4449,-3.468,-3.4956,-3.5278,-3.5554,-3.6153,-3.6254,-3.5981,-3.6533,-3.6832,-3.6857,-3.7362,-3.7764,-3.8114,-3.8693,-3.9044,-3.932,-3.9597,-3.9697,-3.9697,-3.9697,-3.9697,-3.9697,-3.9697,-3.9873,-4.0149,-4.0425,-4.0877,-4.143,-4.2037,-4.259,-4.3037,-4.3313,-4.3388,-4.3514,-4.4066,-4.4016,-4.3865,-4.4141,-4.379,-4.3463,-4.374,-4.4016,-4.4292,-4.4593,-4.5321,-4.5999,-4.625,-4.6301,-4.6225,-4.5949,-4.5899,-4.5799,-4.5522,-4.5472,-4.5146,-4.4292,-4.4217,-4.3579,-4.1915,-4.1785,-4.1419,-4.065,-4.0592,-4.0961,-4.1785,-4.203,-4.2873,-4.4217,-4.394,-4.3514,-4.2983,-4.2388,-4.2393,-4.297,-4.2063,-4.1445,-3.2441,-3.219,-3.2491,-3.3093,-3.2541,-3.1938,0.0,0.0,0.0,-3.0583,-3.0181,-3.0055,-3.0909,-3.0733,-3.0884,-3.2215,-3.2215,-3.2365,-3.3294,-3.465,-3.5278,-3.45,-3.4299,-3.3897,-3.2993,-3.3219,-3.342,-3.342,-3.2993,-3.2943,-3.3395,-3.342,-3.342,-3.342,-3.352,-3.3621,-3.3746,-3.4299,-3.4625,-3.4726,-3.5629,-3.5805,-3.5357,-3.583,-3.6153,-3.6232,-3.6684,-3.6985,-3.7262,-3.8165,-3.8668,-3.8919,-3.9471,-3.9697,-3.9697,-3.9697,-3.9697,-3.9697,-3.9697,-3.9697,-3.9772,-4.0224,-4.0425,-4.0727,-4.1861,-4.2514,-4.2891,-4.2936,-4.2986,-4.3087,-4.3539,-4.3313,-4.3087,-4.3539,-4.3313,-4.2986,-4.2986,-4.3413,-4.379,-4.379,-4.4719,-4.5623,-4.6075,-4.6225,-4.6276,-4.6175,-4.5773,-4.5447,-4.5321,-4.492,-4.4418,-4.3865,-4.379,-4.3077,-4.1384,-4.2411,-4.2605,-4.1278,-4.251,-4.3212,-4.2986,-4.3514,-4.4242,-4.5146,-4.4694,-4.4219,-4.3805,-4.3275,-4.3061,-4.3229,-4.3265,-4.3333,-3.4525,-3.5052,-3.5525,-3.4148,-3.5127,-3.5705,-3.2867,0.0,-3.2315,-3.0909,0.0,-2.9829,-2.9955,0.0,0.0,-3.0131,-3.0909,-3.1537,-3.1662,-3.2265,-3.2817,-3.3219,-3.2817,-3.2441,-3.2315,-3.1913,-3.1662,-3.1662,-3.1612,-3.1612,-3.1662,-3.1662,-3.1662,-3.1662,-3.2164,-3.2641,-3.3212,-3.3721,-3.4248,-3.468,-3.4851,-3.4876,-3.4781,-3.4876,-3.5132,-3.5608,-3.5658,-3.6282,-3.7186,-3.7312,-3.7965,-3.8919,-3.9471,-3.9697,-3.9697,-3.9697,-3.9697,-3.9697,-3.9697,-3.9697,-3.9697,-3.9772,-4.0124,-4.0727,-4.1861,-4.2263,-4.2414,-4.2891,-4.2986,-4.2986,-4.3062,-4.3037,-4.2986,-4.3062,-4.3011,-4.2986,-4.2986,-4.3413,-4.379,-4.379,-4.4719,-4.5497,-4.5573,-4.5999,-4.615,-4.5648,-4.5522,-4.5296,-4.4794,-4.4669,-4.4418,-4.3865,-4.379,-4.3708,-4.3462,-4.3576,-4.3633,-4.3462,-4.4051,-4.3991,-4.3011,-4.3514,-4.3865,-4.3991,-4.394,-4.293,-4.1071,-4.2369,-4.3256,-4.3762,-4.4178,-4.3909,-3.5288,-3.58,-3.6573,-3.5209,-3.5077,-3.4901,-3.352,-3.2616,-3.1888,-3.121,0.0,0.0,0.0,0.0,0.0,0.0,-3.0382,-3.0583,-3.0884,-3.0859,-3.1135,-3.1989,-3.1612,-3.1286,-3.1286,-3.0783,-3.0608,-3.0909,-3.0658,-3.0608,-3.0934,-3.0934,-3.1085,-3.1386,-3.1913,-3.234,-3.2566,-3.3445,-3.3847,-3.3771,-3.4424,-3.455,-3.4274,-3.4856,-3.5282,-3.5508,-3.5881,-3.6282,-3.6782,-3.7061,-3.7663,-3.8417,-3.8994,-3.9421,-3.9697,-3.9697,-3.9697,-3.9697,-3.9697,-3.9697,-3.9697,-3.9697,-4.0074,-4.0601,-4.1078,-4.171,-4.2263,-4.2489,-4.2791,-4.2986,-4.2986,-4.2986,-4.2986,-4.2986,-4.2986,-4.2986,-4.2986,-4.3162,-4.3313,-4.3313,-4.3966,-4.4518,-4.4518,-4.5522,-4.6225,-4.5999,-4.5397,-4.4895,-4.4644,-4.4066,-4.3589,-4.3338,-4.3313,-4.3463,-4.3765,-4.3514,-4.3589,-4.4242,-4.4192,-4.4242,-4.4418,-4.4016,-4.4116,-4.4769,-4.4141,-4.3472,-4.2888,-4.3305,-4.374,-4.4292,-4.4518,-4.4718,-3.6024,-3.6274,-3.7163,-3.5638,-3.4826,-3.4223,-3.3771,-3.2842,-3.1989,-3.1687,-3.1436,0.0,0.0,0.0,-3.0306,-3.0583,0.0,-3.0105,-3.0357,-3.0055,-3.008,-3.0859,-3.0608,-3.0382,-3.0382,-3.003,-2.9955,-3.0357,-3.003,-2.9955,-3.0357,-3.0382,-3.0557,-3.0934,-3.1486,-3.1763,-3.1763,-3.2867,-3.3244,-3.2842,-3.3822,-3.4148,-3.3922,-3.4726,-3.5207,-3.5508,-3.5956,-3.6279,-3.643,-3.6832,-3.7287,-3.7814,-3.8241,-3.8743,-3.927,-3.9572,-3.9697,-3.9697,-3.9697,-3.9697,-3.9697,-3.9697,-3.9973,-4.0325,-4.0475,-4.1078,-4.181,-4.2112,-4.2489,-4.2785,-4.2936,-4.2986,-4.2986,-4.2986,-4.2986,-4.2986,-4.2986,-4.2986,-4.2986,-4.2986,-4.3413,-4.379,-4.379,-4.507,-4.6075,-4.6075,-4.5397,-4.4794,-4.4644,-4.379,-4.3137,-4.2986,-4.2986,-4.3212,-4.374,-4.3564,-4.389,-4.502,-4.4418,-4.4543,-4.5673,-4.4769,-4.4644,-4.5472,-4.4669,-4.4392,-4.4618,-4.4217,-4.4317,-4.4869,-4.4869,-4.5296,-3.6963,-3.7134,-3.7461,-3.5278,-3.5082,-3.5031,-3.347,-3.347,-3.352,-3.2416,-3.2616,-3.2667,-3.1562,-3.1361,-3.1185,-3.0683,-3.0608,0.0,0.0,-2.9804,-2.9804,-2.9854,-2.9829,-2.9829,-2.9829,-2.9804,-2.9804,-2.9804,-2.9804,-2.9804,-2.9804,-2.9829,-2.9829,-2.9854,-3.0382,-3.0658,-3.0658,-3.1738,-3.2265,-3.224,-3.2842,-3.3395,-3.3897,-3.3947,-3.4525,-3.5508,-3.5508,-3.5881,-3.6405,-3.643,-3.6757,-3.7211,-3.7236,-3.7563,-3.8191,-3.9295,-3.9697,-3.9697,-3.9697,-3.9697,-3.9697,-3.9697,-3.9697,-3.9823,-4.035,-4.0551,-4.0802,-4.1911,-4.2213,-4.2363,-4.2891,-4.2986,-4.2986,-4.2986,-4.2986,-4.2986,-4.2986,-4.2986,-4.2986,-4.2986,-4.3413,-4.379,-4.379,-4.4744,-4.5522,-4.5522,-4.5472,-4.5246,-4.4694,-4.4141,-4.3564,-4.3037,-4.2986,-4.3212,-4.374,-4.4267,-4.5045,-4.6175,-4.5221,-4.5095,-4.6225,-4.5723,-4.5447,-4.5497,-4.5447,-4.5171,-4.4618,-4.4593,-4.4895,-4.5472,-4.5472,-4.5472,-3.9581,-3.9823,-4.0145,-3.6701,-3.5956,-3.5655,-3.3997,-3.4048,-3.4022,-3.2516,-3.2968,-3.3169,-3.1662,-3.111,-3.0809,-3.0633,-3.0306,-3.0005,0.0,-2.9804,-2.9804,-2.9804,-2.9804,-2.9804,-2.9804,-2.9804,-2.9804,-2.9804,-2.9804,-2.9804,-2.9804,-2.9804,-2.9804,-2.9804,-3.0331,-3.0608,-3.0608,-3.1662,-3.2215,-3.2215,-3.2792,-3.337,-3.3922,-3.4274,-3.4806,-3.5508,-3.5931,-3.6182,-3.6405,-3.6405,-3.6732,-3.7186,-3.7186,-3.7513,-3.809,-3.8868,-3.9145,-3.9195,-3.9572,-3.9697,-3.9697,-3.9697,-3.9697,-3.9722,-3.9923,-4.0224,-4.0601,-4.0978,-4.1329,-4.1731,-4.2283,-4.2158,-4.2082,-4.2811,-4.2766,-4.259,-4.2886,-4.2986,-4.2986,-4.2986,-4.3137,-4.3263,-4.3263,-4.3865,-4.4493,-4.4869,-4.492,-4.4844,-4.4644,-4.4468,-4.4267,-4.4091,-4.374,-4.374,-4.4292,-4.4869,-4.5372,-4.5748,-4.5397,-4.5522,-4.6276,-4.5422,-4.5095,-4.5472,-4.5121,-4.4995,-4.5196,-4.5196,-4.5472,-4.6024,-4.6024,-4.6024,-4.0722,-4.0558,-4.0494,-3.7416,-3.6707,-3.6279,-3.4575,-3.4776,-3.4876,-3.342,-3.3671,-3.3922,-3.3018,-3.1938,-3.1185,-3.1185,-3.0557,-3.0005,0.0,-2.9804,-2.9804,-2.9804,-2.9804,-2.9804,-2.9804,-2.9603,-2.9578,-2.9779,-2.9603,-2.9578,-2.9779,-2.9804,-2.9804,-2.9804,-3.0131,-3.0331,-3.0331,-3.1386,-3.1913,-3.1938,-3.2717,-3.347,-3.4198,-3.455,-3.5127,-3.5855,-3.6207,-3.6405,-3.6405,-3.6405,-3.6606,-3.691,-3.7111,-3.7387,-3.7789,-3.8366,-3.8693,-3.8994,-3.9496,-3.9697,-3.9697,-3.9697,-3.9697,-3.9697,-3.9697,-3.9948,-4.03,-4.0701,-4.0874,-4.1229,-4.2011,-4.1756,-4.1476,-4.2233,-4.2283,-4.2313,-4.2665,-4.2891,-4.2986,-4.2986,-4.2986,-4.2986,-4.2986,-4.3263,-4.3689,-4.4242,-4.4493,-4.4543,-4.4367,-4.4342,-4.4242,-4.4066,-4.3714,-4.374,-4.4292,-4.4844,-4.5271,-4.5472,-4.5673,-4.5949,-4.6301,-4.5598,-4.5573,-4.6326,-4.5598,-4.5598,-4.6351,-4.5974,-4.5974,-4.6301,-4.6301,-4.62]},{"header":{"parameterUnit":"m.s-1","parameterCategory":1,"la1":30.6,"la2":29.2853,"lo1":-89.7004,"lo2":-87.6739,"dy":0.0162,"dx":0.0183,"nx":112,"ny":82,"refTime":"2023-08-10T06:00:00:Z","depth":0,"parameterNumber":3,"parameterNumberName":"V-component_of_WINDS"},"data":[0.0,0.0,0.0,0.0,0.0,0.0,0.0,0.0,0.0,0.0,0.0,0.0,0.0,0.0,0.0,0.0,0.0,0.0,0.0,0.0,0.0,0.0,0.0,0.0,0.0,0.0,0.0,0.0,0.0,0.0,0.0,0.0,0.0,0.0,0.0,0.0,0.0,0.0,0.0,0.0,0.0,0.0,0.0,0.0,0.0,0.0,0.0,0.0,0.0,0.0,0.0,0.0,0.0,0.0,0.0,0.0,0.0,0.0,0.0,0.0,0.0,0.0,0.0,0.0,0.0,0.0,0.0,0.0,0.0,0.0,0.0,0.0,0.0,0.0,0.0,0.0,0.0,0.0,0.0,0.0,0.0,0.0,0.0,0.0,0.0,0.0,0.0,0.0,0.0,0.0,-4.2209,-4.5488,-5.1003,-5.4766,-5.5684,-5.829,-5.7262,-5.1169,0.0,0.0,0.0,0.0,0.0,0.0,0.0,0.0,0.0,0.0,0.0,0.0,0.0,0.0,0.0,0.0,0.0,0.0,0.0,0.0,0.0,0.0,0.0,0.0,0.0,0.0,0.0,0.0,0.0,0.0,0.0,0.0,0.0,0.0,0.0,0.0,0.0,0.0,0.0,0.0,0.0,0.0,0.0,0.0,0.0,0.0,0.0,0.0,0.0,0.0,0.0,0.0,0.0,0.0,0.0,0.0,0.0,0.0,0.0,0.0,0.0,0.0,0.0,0.0,0.0,0.0,0.0,0.0,0.0,0.0,0.0,0.0,0.0,0.0,0.0,0.0,0.0,0.0,0.0,0.0,0.0,0.0,0.0,0.0,0.0,0.0,0.0,0.0,0.0,0.0,0.0,0.0,0.0,0.0,0.0,0.0,0.0,0.0,0.0,0.0,0.0,0.0,0.0,0.0,-4.4846,-4.8458,-5.2165,-5.4987,-5.6492,-5.7079,-5.5464,-5.1096,0.0,0.0,0.0,0.0,0.0,0.0,0.0,0.0,0.0,0.0,0.0,0.0,0.0,0.0,0.0,0.0,0.0,0.0,0.0,0.0,0.0,0.0,0.0,0.0,0.0,0.0,0.0,0.0,0.0,0.0,0.0,0.0,0.0,0.0,0.0,0.0,0.0,0.0,0.0,0.0,0.0,0.0,0.0,0.0,0.0,0.0,0.0,0.0,0.0,0.0,0.0,0.0,0.0,0.0,0.0,0.0,0.0,0.0,0.0,0.0,0.0,0.0,0.0,0.0,0.0,0.0,0.0,0.0,0.0,0.0,0.0,0.0,0.0,0.0,0.0,0.0,0.0,0.0,0.0,0.0,0.0,0.0,0.0,0.0,0.0,0.0,0.0,0.0,0.0,0.0,0.0,0.0,0.0,0.0,0.0,0.0,0.0,0.0,0.0,0.0,0.0,0.0,0.0,-4.4848,-4.6189,-4.9226,-5.2858,-5.5354,-5.6088,-5.6565,-5.5097,-5.1059,-5.1096,0.0,0.0,0.0,0.0,0.0,0.0,0.0,0.0,0.0,0.0,0.0,0.0,0.0,0.0,0.0,0.0,0.0,0.0,0.0,0.0,0.0,0.0,0.0,0.0,0.0,0.0,0.0,0.0,0.0,0.0,0.0,0.0,0.0,0.0,0.0,0.0,0.0,0.0,0.0,0.0,0.0,0.0,0.0,0.0,0.0,0.0,0.0,0.0,0.0,0.0,0.0,0.0,0.0,0.0,0.0,0.0,0.0,0.0,0.0,0.0,0.0,0.0,0.0,0.0,0.0,0.0,0.0,0.0,0.0,0.0,0.0,0.0,0.0,0.0,0.0,0.0,0.0,0.0,0.0,0.0,0.0,0.0,0.0,0.0,0.0,0.0,0.0,0.0,0.0,0.0,0.0,0.0,0.0,0.0,0.0,0.0,0.0,0.0,0.0,0.0,0.0,0.0,-4.584,-4.7131,-4.961,-5.3319,-5.5596,-5.5596,-5.5831,-5.4473,-5.1022,-4.9481,0.0,0.0,0.0,0.0,0.0,0.0,0.0,0.0,0.0,0.0,0.0,0.0,0.0,0.0,0.0,0.0,0.0,0.0,0.0,0.0,0.0,0.0,0.0,0.0,0.0,0.0,0.0,0.0,0.0,0.0,0.0,0.0,0.0,0.0,0.0,0.0,0.0,0.0,0.0,0.0,0.0,0.0,0.0,0.0,0.0,0.0,0.0,0.0,0.0,0.0,0.0,0.0,0.0,0.0,0.0,0.0,0.0,0.0,0.0,0.0,0.0,0.0,0.0,0.0,0.0,0.0,0.0,0.0,0.0,0.0,0.0,0.0,0.0,0.0,0.0,0.0,0.0,0.0,0.0,0.0,0.0,0.0,0.0,0.0,0.0,0.0,0.0,0.0,0.0,0.0,0.0,0.0,0.0,0.0,0.0,0.0,0.0,0.0,0.0,0.0,0.0,0.0,-4.6526,-4.7957,-5.0435,-5.3628,-5.5596,-5.5596,-5.4289,-5.2711,-5.0912,-4.7865,0.0,0.0,0.0,0.0,0.0,0.0,0.0,0.0,0.0,0.0,0.0,0.0,0.0,0.0,0.0,0.0,0.0,0.0,0.0,0.0,0.0,0.0,0.0,0.0,0.0,0.0,0.0,0.0,0.0,0.0,0.0,0.0,0.0,0.0,0.0,0.0,0.0,0.0,0.0,0.0,0.0,0.0,0.0,0.0,0.0,0.0,0.0,0.0,0.0,0.0,0.0,0.0,0.0,0.0,0.0,0.0,0.0,0.0,0.0,0.0,0.0,0.0,0.0,0.0,0.0,0.0,0.0,0.0,0.0,0.0,0.0,0.0,0.0,0.0,0.0,0.0,0.0,0.0,0.0,0.0,0.0,0.0,0.0,0.0,0.0,0.0,0.0,0.0,0.0,0.0,0.0,0.0,0.0,0.0,0.0,0.0,0.0,0.0,0.0,0.0,0.0,0.0,-4.7058,-4.882,-5.1279,-5.3959,-5.5794,-5.6308,-5.5794,-5.4142,-5.0986,0.0,0.0,0.0,0.0,0.0,0.0,0.0,0.0,0.0,0.0,0.0,0.0,0.0,0.0,0.0,0.0,0.0,0.0,0.0,0.0,0.0,0.0,0.0,0.0,0.0,0.0,0.0,0.0,0.0,0.0,0.0,0.0,0.0,0.0,0.0,0.0,0.0,0.0,0.0,0.0,0.0,0.0,0.0,0.0,0.0,0.0,0.0,0.0,0.0,0.0,0.0,0.0,0.0,0.0,0.0,0.0,0.0,0.0,0.0,0.0,0.0,0.0,0.0,0.0,0.0,0.0,0.0,0.0,0.0,0.0,0.0,0.0,0.0,0.0,0.0,0.0,0.0,0.0,0.0,0.0,0.0,0.0,0.0,0.0,0.0,0.0,0.0,0.0,0.0,0.0,0.0,0.0,0.0,0.0,0.0,0.0,0.0,0.0,0.0,0.0,0.0,0.0,-4.57,-4.7315,-4.926,-5.172,-5.4142,-5.5941,-5.6748,-5.5647,-5.3849,-5.1353,0.0,0.0,0.0,0.0,0.0,0.0,0.0,0.0,0.0,0.0,0.0,0.0,0.0,0.0,0.0,0.0,0.0,0.0,0.0,0.0,0.0,0.0,0.0,0.0,0.0,0.0,0.0,0.0,0.0,0.0,0.0,0.0,0.0,0.0,0.0,0.0,0.0,0.0,0.0,0.0,0.0,0.0,0.0,0.0,0.0,0.0,0.0,0.0,0.0,0.0,0.0,0.0,0.0,0.0,0.0,0.0,0.0,0.0,0.0,0.0,0.0,0.0,0.0,0.0,0.0,0.0,0.0,0.0,0.0,0.0,0.0,0.0,0.0,0.0,0.0,0.0,0.0,0.0,0.0,0.0,0.0,0.0,0.0,0.0,0.0,0.0,0.0,0.0,0.0,0.0,0.0,0.0,0.0,0.0,0.0,0.0,0.0,0.0,0.0,0.0,0.0,0.0,-4.57,-4.7315,-4.926,-5.1756,-5.4164,-5.5941,-5.6748,-5.3151,-5.1169,0.0,0.0,0.0,0.0,0.0,0.0,0.0,0.0,0.0,0.0,0.0,0.0,0.0,0.0,0.0,0.0,0.0,0.0,0.0,0.0,0.0,0.0,0.0,0.0,0.0,0.0,0.0,0.0,0.0,0.0,0.0,0.0,0.0,0.0,0.0,0.0,0.0,0.0,0.0,0.0,0.0,0.0,0.0,0.0,0.0,0.0,0.0,0.0,0.0,0.0,0.0,0.0,0.0,0.0,0.0,0.0,0.0,0.0,0.0,0.0,0.0,0.0,0.0,0.0,0.0,0.0,0.0,0.0,0.0,0.0,0.0,0.0,0.0,0.0,0.0,0.0,0.0,0.0,0.0,0.0,0.0,0.0,0.0,0.0,0.0,0.0,0.0,0.0,0.0,0.0,0.0,0.0,0.0,0.0,0.0,0.0,0.0,0.0,0.0,0.0,0.0,0.0,0.0,-4.6415,-4.7319,-4.9263,-5.3256,-5.484,-5.5941,-5.6748,-5.4656,-5.2711,-5.1242,0.0,0.0,0.0,0.0,0.0,0.0,0.0,0.0,0.0,0.0,0.0,0.0,0.0,0.0,0.0,0.0,0.0,0.0,0.0,0.0,0.0,0.0,0.0,0.0,0.0,0.0,0.0,0.0,0.0,0.0,0.0,0.0,0.0,0.0,0.0,0.0,0.0,0.0,0.0,0.0,0.0,0.0,0.0,0.0,0.0,0.0,0.0,0.0,0.0,0.0,0.0,0.0,0.0,0.0,0.0,0.0,0.0,0.0,0.0,0.0,0.0,0.0,0.0,0.0,0.0,0.0,0.0,0.0,0.0,0.0,0.0,0.0,0.0,0.0,0.0,0.0,0.0,0.0,0.0,0.0,0.0,0.0,0.0,0.0,0.0,0.0,0.0,0.0,0.0,0.0,0.0,0.0,0.0,0.0,0.0,0.0,0.0,0.0,0.0,0.0,0.0,0.0,-4.6478,-4.7491,-4.9517,-5.3512,-5.5221,-5.6291,-5.6781,-5.5345,-5.3375,-5.0939,0.0,0.0,0.0,0.0,0.0,0.0,0.0,0.0,0.0,0.0,0.0,0.0,0.0,0.0,0.0,0.0,0.0,0.0,0.0,0.0,0.0,0.0,0.0,0.0,0.0,0.0,0.0,0.0,0.0,0.0,0.0,0.0,0.0,0.0,0.0,0.0,0.0,0.0,0.0,0.0,0.0,0.0,0.0,0.0,0.0,0.0,0.0,0.0,0.0,0.0,0.0,0.0,0.0,0.0,0.0,0.0,0.0,0.0,0.0,0.0,0.0,0.0,0.0,0.0,0.0,0.0,0.0,0.0,0.0,0.0,0.0,0.0,0.0,0.0,0.0,0.0,0.0,0.0,0.0,0.0,0.0,0.0,0.0,0.0,0.0,0.0,0.0,0.0,0.0,0.0,0.0,0.0,0.0,0.0,0.0,0.0,0.0,0.0,0.0,0.0,0.0,0.0,-4.6354,-4.7826,-4.9843,-5.3087,-5.5327,-5.6624,-5.668,-5.5265,-5.3375,-5.0937,0.0,0.0,0.0,0.0,0.0,0.0,0.0,0.0,0.0,0.0,0.0,0.0,0.0,0.0,0.0,0.0,0.0,0.0,0.0,0.0,0.0,0.0,0.0,0.0,0.0,0.0,0.0,0.0,0.0,0.0,0.0,0.0,0.0,0.0,0.0,0.0,0.0,0.0,0.0,0.0,0.0,0.0,0.0,0.0,0.0,0.0,0.0,0.0,0.0,0.0,0.0,0.0,0.0,0.0,0.0,0.0,0.0,0.0,0.0,0.0,-5.0108,-4.8735,0.0,0.0,0.0,0.0,0.0,0.0,0.0,0.0,0.0,0.0,0.0,0.0,0.0,0.0,0.0,0.0,0.0,0.0,0.0,0.0,0.0,0.0,0.0,0.0,0.0,0.0,0.0,0.0,0.0,0.0,0.0,0.0,0.0,0.0,0.0,0.0,0.0,0.0,0.0,0.0,-4.8491,-4.8381,-4.9591,-5.3806,-5.467,-5.4982,-5.4997,-5.4665,-5.3435,-5.095,-4.9227,0.0,0.0,0.0,0.0,0.0,0.0,0.0,0.0,0.0,0.0,0.0,0.0,0.0,0.0,0.0,0.0,0.0,0.0,0.0,0.0,0.0,0.0,0.0,0.0,0.0,0.0,0.0,0.0,0.0,0.0,0.0,0.0,0.0,0.0,0.0,0.0,0.0,0.0,0.0,0.0,0.0,0.0,0.0,0.0,0.0,0.0,0.0,0.0,0.0,0.0,0.0,0.0,0.0,0.0,0.0,0.0,0.0,0.0,0.0,-5.4727,-5.2599,0.0,0.0,0.0,0.0,0.0,0.0,0.0,0.0,0.0,0.0,0.0,0.0,0.0,0.0,0.0,0.0,0.0,0.0,0.0,0.0,0.0,0.0,0.0,0.0,0.0,0.0,0.0,0.0,0.0,0.0,0.0,0.0,0.0,0.0,0.0,0.0,0.0,0.0,0.0,0.0,-4.9346,-4.9283,-5.023,-5.3678,-5.4655,-5.4952,-5.4583,-5.4884,-5.4008,-5.1601,-5.057,0.0,0.0,0.0,0.0,0.0,0.0,0.0,0.0,0.0,0.0,0.0,0.0,0.0,0.0,0.0,0.0,0.0,0.0,0.0,0.0,0.0,0.0,0.0,0.0,0.0,0.0,0.0,0.0,0.0,0.0,0.0,0.0,0.0,0.0,0.0,0.0,0.0,0.0,0.0,0.0,0.0,0.0,0.0,0.0,0.0,0.0,0.0,0.0,0.0,0.0,0.0,0.0,0.0,-6.1537,-6.2899,-6.3906,-6.4751,-6.453,-6.3381,-6.1047,-5.8304,-5.55,-5.6161,0.0,0.0,0.0,0.0,0.0,0.0,0.0,0.0,0.0,0.0,0.0,0.0,0.0,0.0,0.0,0.0,0.0,0.0,0.0,0.0,0.0,0.0,-5.2075,-5.4284,-5.4029,-5.2654,-5.0186,0.0,0.0,0.0,0.0,0.0,0.0,0.0,0.0,0.0,0.0,0.0,-4.9465,-5.0057,-5.1104,-5.328,-5.4585,-5.5114,-5.4634,-5.5269,-5.4773,-5.2653,-5.2477,-5.1426,0.0,0.0,0.0,0.0,0.0,0.0,0.0,0.0,0.0,0.0,0.0,0.0,0.0,0.0,0.0,0.0,0.0,0.0,0.0,0.0,0.0,0.0,0.0,0.0,0.0,0.0,0.0,0.0,0.0,0.0,0.0,0.0,-4.6892,-4.6782,0.0,0.0,0.0,0.0,0.0,0.0,0.0,0.0,0.0,0.0,0.0,0.0,0.0,-5.7872,-5.8952,-6.2315,-6.4131,-6.4448,-6.6765,-6.7924,-6.8128,-6.8935,-6.9963,-7.1027,-7.0643,0.0,-5.9612,-5.9722,0.0,0.0,0.0,0.0,0.0,0.0,0.0,0.0,0.0,0.0,0.0,0.0,0.0,0.0,0.0,0.0,0.0,0.0,0.0,0.0,0.0,0.0,-5.5127,-5.6168,-5.5299,-5.4156,-5.3788,-5.2748,-5.1432,-4.9902,-4.8218,-4.718,0.0,0.0,0.0,0.0,0.0,0.0,-4.8987,-5.018,-5.1683,-5.3312,-5.3649,-5.4011,-5.4575,-5.5273,-5.5267,-5.4234,-5.4109,-5.3628,-5.258,-4.9258,0.0,0.0,0.0,0.0,0.0,0.0,0.0,0.0,0.0,0.0,0.0,0.0,0.0,0.0,0.0,0.0,0.0,0.0,0.0,0.0,0.0,0.0,0.0,0.0,0.0,0.0,0.0,0.0,0.0,-4.7572,-4.8654,-4.7259,-4.8967,-4.9958,0.0,0.0,0.0,0.0,0.0,0.0,0.0,0.0,0.0,-5.877,-6.1537,-6.3505,-6.4494,-6.8164,-7.0477,-7.1394,-7.3854,-7.5249,-7.5726,-7.6056,-7.6607,-7.7268,-7.679,-7.4037,-6.9669,-6.6476,-6.3686,-6.1227,0.0,0.0,0.0,0.0,-5.9465,-6.0382,-6.1777,-6.2034,-6.1741,-6.1741,0.0,0.0,0.0,0.0,0.0,0.0,0.0,-5.4848,-5.6217,-5.7339,-5.8389,-5.9615,-5.9043,-5.818,-5.7738,-5.5818,-5.346,-5.108,-5.0178,-4.9487,-4.8556,-4.7963,0.0,0.0,0.0,-5.0453,-5.181,-5.265,-5.3382,-5.4059,-5.4126,-5.4092,-5.398,-5.5059,-5.5553,-5.5178,-5.5098,-5.4503,-5.3244,-5.119,-4.9716,0.0,0.0,0.0,0.0,0.0,0.0,0.0,0.0,0.0,0.0,0.0,0.0,0.0,0.0,0.0,0.0,0.0,0.0,0.0,0.0,0.0,0.0,0.0,0.0,0.0,0.0,0.0,0.0,-4.8857,-4.9958,-4.7663,-5.0141,-5.1536,0.0,0.0,0.0,0.0,0.0,0.0,-5.9979,-6.1704,-6.3613,-6.5852,-6.8091,-6.9853,-7.1064,-7.4258,-7.657,-7.8002,-7.9837,-8.1122,-8.1929,-8.1709,-8.1636,-8.1562,-8.0534,-7.9396,-7.7787,-7.2165,-6.8274,-6.5742,-6.3649,-6.2622,-6.2328,-6.2952,-6.3686,-6.4615,-6.6476,-6.699,-6.6586,-6.5375,-6.3852,-6.1869,-5.8446,0.0,0.0,0.0,0.0,-5.7062,-5.9972,-6.0738,-6.1145,-6.2879,-6.2559,-6.1637,-6.0858,-5.866,-5.5886,-5.2706,-5.1758,-5.1048,-4.9796,-4.8836,0.0,-4.9849,-5.0661,-5.183,-5.3679,-5.4327,-5.46,-5.46,-5.4431,-5.4161,-5.3817,-5.4787,-5.5495,-5.5695,-5.5646,-5.51,-5.3871,-5.2573,-5.0891,-4.8783,0.0,0.0,0.0,0.0,0.0,0.0,0.0,0.0,0.0,0.0,0.0,0.0,0.0,0.0,0.0,0.0,0.0,0.0,0.0,0.0,0.0,0.0,0.0,0.0,0.0,0.0,0.0,0.0,0.0,-4.8453,-5.2454,0.0,0.0,0.0,0.0,-5.7556,-6.0529,-6.3392,-6.5925,-6.7614,-7.0257,-7.4184,-7.5879,-7.7928,-8.0314,-8.1305,-8.2186,-8.303,-8.3177,-8.3654,-8.4389,-8.3654,-8.3287,-8.3214,-8.1636,-8.0901,-8.0388,-7.4661,-7.1762,-7.066,-6.7467,-6.6696,-6.732,-6.7383,-6.7907,-6.8605,-6.8752,-6.8274,-6.7981,-7.0183,-6.8166,-6.4592,-6.2867,-6.0152,0.0,0.0,-5.825,-5.939,-6.1814,-6.237,-6.2863,-6.5186,-6.4512,-6.3193,-6.2448,-6.1028,-5.8795,-5.5141,-5.1589,-4.9593,-5.0879,0.0,-4.9918,-5.0085,-5.2492,-5.3848,-5.2565,-5.3687,-5.46,-5.46,-5.3957,-5.3817,-5.4482,-5.4603,-5.4969,-5.5667,-5.5709,-5.5667,-5.5575,-5.2838,-5.1593,-5.2125,-4.7962,0.0,0.0,0.0,0.0,0.0,0.0,0.0,0.0,0.0,0.0,0.0,0.0,0.0,0.0,0.0,0.0,0.0,0.0,0.0,0.0,0.0,0.0,0.0,0.0,0.0,0.0,0.0,0.0,-5.5185,-5.8731,0.0,-5.9869,-6.0309,-6.1667,-6.4053,-6.6256,-6.9229,-7.3266,-7.5028,-7.7268,-8.0277,-8.0938,-8.215,-8.4058,-8.4352,-8.4646,-8.4939,-8.549,-8.56,-8.5343,-8.4535,-8.4168,-8.4095,-8.248,-8.1782,-8.1562,-7.9029,-7.657,-7.4221,-7.2569,-7.1468,-7.0844,-7.1358,-7.2055,-7.2863,-7.334,-7.334,-7.2812,-7.0932,-6.7815,-6.4492,-6.2976,-6.1701,-6.0773,-6.075,-6.0972,-6.1722,-6.4015,-6.4557,-6.483,-6.618,-6.5671,-6.4715,-6.3971,-6.2618,-6.1028,-5.9268,-5.5886,-5.3348,-5.3382,-5.2767,-5.2422,-5.2941,-5.4296,-5.5247,-5.521,-5.5683,-5.5818,-5.5378,-5.4634,-5.4127,-5.3882,-5.4328,-5.4487,-5.4301,-5.4296,-5.3858,-5.2886,-5.0913,-4.951,-4.8817,-4.7233,-4.6177,0.0,0.0,0.0,0.0,0.0,0.0,0.0,0.0,0.0,0.0,0.0,0.0,0.0,0.0,0.0,0.0,0.0,0.0,0.0,0.0,0.0,0.0,0.0,0.0,0.0,-5.506,-5.8437,-6.0603,-6.42,-6.6402,-6.6145,-6.71,-6.8715,-7.1174,-7.3377,-7.624,-7.9984,-8.1232,-8.2663,-8.4572,-8.4609,-8.5123,-8.6187,-8.6187,-8.6187,-8.6224,-8.6738,-8.6591,-8.5747,-8.4976,-8.4462,-8.4132,-8.2774,-8.2039,-8.1746,-8.1232,-7.9396,-7.69,-7.635,-7.5322,-7.4184,-7.4735,-7.5249,-7.5739,-7.5901,-7.5807,-7.5097,-7.1912,-6.875,-6.6001,-6.4726,-6.3974,-6.3528,-6.3526,-6.3497,-6.3903,-6.5628,-6.6068,-6.6136,-6.6373,-6.5865,-6.5121,-6.4377,-6.326,-6.2178,-6.1434,-5.8693,-5.6292,-5.5784,-5.4905,-5.46,-5.5547,-5.5919,-5.6359,-5.707,-5.6731,-5.6156,-5.5412,-5.4668,-5.3923,-5.3179,-5.3775,-5.3682,-5.241,-5.2363,-5.1685,-5.0199,-4.9407,-4.8425,-4.7192,-4.6684,-4.6075,-4.5331,0.0,0.0,0.0,0.0,0.0,0.0,0.0,0.0,0.0,0.0,0.0,0.0,0.0,0.0,0.0,0.0,0.0,0.0,0.0,0.0,0.0,0.0,0.0,-5.3314,-5.829,-6.2475,-6.4237,-6.8715,-7.1358,-7.0587,-7.4808,-7.7928,-7.8809,-8.1782,-8.4242,-8.5783,-8.5857,-8.6224,-8.6995,-8.6995,-8.6995,-8.6995,-8.6995,-8.6995,-8.6995,-8.6995,-8.6591,-8.582,-8.4976,-8.4168,-8.3398,-8.2517,-8.1746,-8.1048,-8.0975,-8.0057,-7.8626,-7.8589,-7.8075,-7.731,-7.7243,-7.7243,-7.7051,-7.6094,-7.5213,-7.4359,-7.3399,-7.1434,-6.9323,-6.8566,-6.7164,-6.5797,-6.573,-6.5764,-6.5967,-6.6643,-6.6846,-6.6643,-6.5865,-6.5155,-6.4444,-6.3666,-6.2956,-6.2212,-6.1467,-5.9539,-5.7983,-5.7915,-5.6765,-5.6325,-5.7679,-5.7273,0.0,-5.778,-5.6596,-5.5412,-5.4702,-5.3957,-5.3213,-5.2401,-5.3044,-5.2503,-5.0202,-4.9999,-4.9357,-4.7872,-4.8511,-4.8545,-4.7838,-4.6447,-4.5393,-4.471,0.0,0.0,0.0,0.0,0.0,0.0,0.0,0.0,0.0,0.0,0.0,0.0,0.0,0.0,0.0,0.0,0.0,0.0,0.0,0.0,0.0,-5.6528,-5.8841,-5.8474,-6.3319,-6.8164,-7.1541,-7.624,-7.936,-7.9727,-8.2003,-8.3801,-8.4646,-8.604,-8.7068,-8.7509,-8.7545,-8.7362,-8.7031,-8.6995,-8.6995,-8.6995,-8.6995,-8.6995,-8.6995,-8.6995,-8.6885,-8.6628,-8.5233,-8.4499,-8.4168,-8.2186,-8.1525,-8.1782,-8.0608,-7.9874,-7.9396,-7.8809,-7.8075,-7.7212,-7.6498,-7.5754,-7.5084,-7.4794,-7.4093,-7.3256,-7.2978,-7.1912,-7.0531,-6.928,-6.8931,-6.8605,-6.6948,-6.7286,-6.7963,-6.7049,-6.7218,-6.7286,-6.6,-6.5527,-6.5053,-6.3768,-6.3362,-6.299,-6.2245,-6.1163,-6.0013,-5.8896,-5.8795,-5.866,-5.7983,-5.7712,-5.7476,-5.7137,-5.5818,-5.504,-5.5378,-5.4735,-5.3991,-5.3247,-5.2841,-5.1691,-4.9458,-4.8308,-4.7293,-4.6346,-4.5974,-4.5974,-4.6312,-4.6447,-4.6606,0.0,0.0,0.0,0.0,0.0,0.0,0.0,0.0,0.0,0.0,0.0,0.0,0.0,0.0,0.0,0.0,0.0,0.0,0.0,0.0,0.0,0.0,-6.1817,-6.5003,-6.6502,-7.001,-7.3927,-7.8002,-8.1419,-8.3769,-8.4607,-8.5661,-8.6482,-8.6953,-8.8208,-8.8611,-8.7715,-8.8326,-8.8104,-8.6757,-8.6932,-8.6995,-8.6995,-8.6995,-8.6995,-8.6995,-8.6995,-8.6811,-8.6444,-8.5196,-8.4242,-8.3508,-8.1746,-8.0865,-8.0608,-7.969,-7.9066,-7.8736,0.0,0.0,0.0,0.0,-7.4794,-7.4234,-7.3846,-7.3292,-7.2714,-7.2321,-7.1742,-7.1109,-6.9925,-6.9857,-6.9857,-6.8233,-6.8166,-6.8402,-6.7489,-6.7354,-6.7151,-6.5967,-6.5459,-6.4918,-6.3768,-6.326,-6.2922,-6.2482,-6.2042,0.0,-5.9742,-5.9573,-5.9438,-5.8896,-5.8017,-5.7273,-5.6867,-5.5513,-5.4634,-5.4769,-5.4397,-5.3687,-5.2638,-5.2131,0.0,0.0,0.0,-4.6481,-4.5737,-4.5297,0.0,0.0,0.0,-4.7262,-4.7317,-4.7738,0.0,0.0,-4.6914,-4.6681,0.0,0.0,0.0,0.0,0.0,0.0,0.0,0.0,0.0,0.0,0.0,0.0,0.0,0.0,0.0,0.0,-6.7504,-7.1093,-7.5728,-7.7497,-7.9519,-8.2988,-8.4605,-8.5657,-8.6305,-8.6767,-8.6975,-8.6869,-8.8541,-8.8775,-8.6949,-8.8143,0.0,0.0,0.0,-8.6749,-8.6643,-8.6781,-8.6852,-8.6784,-8.6852,-8.6554,-8.5894,-8.5013,-8.3838,-8.2406,-8.1342,-8.0094,-7.8846,-7.8458,-7.7778,-7.7061,-7.7924,-7.7152,-7.5334,-7.446,-7.4043,-7.3846,-7.2962,0.0,0.0,-7.1556,-7.1312,-7.1176,-7.0398,-7.0263,-7.0128,-6.9214,-6.8571,-6.8098,-6.7827,-6.7286,-6.6609,-6.5764,-6.5019,-6.4275,-6.3565,-6.2854,-6.2381,-6.2381,-6.2381,-6.1941,-6.0588,-5.9674,-5.9302,-5.9776,-5.8118,-5.6765,-5.6697,-5.5446,-5.4329,-5.3687,-5.3619,0.0,-5.1557,-5.1286,-5.0272,-4.8142,-4.7259,-4.6515,-4.5838,-4.5838,-4.6143,-4.6786,-4.753,-4.7597,-4.6921,-4.7665,-4.8007,-4.8007,-4.7361,-4.7056,0.0,0.0,0.0,0.0,0.0,0.0,0.0,0.0,0.0,0.0,0.0,0.0,0.0,0.0,0.0,-6.9746,-7.3632,-7.7449,-8.1348,-8.3212,-8.394,-8.3442,-8.5309,-8.6466,-8.6048,-8.6655,-8.6851,-8.6249,-8.6538,-8.6573,-8.6134,-8.582,-8.5526,-8.5053,-8.5402,-8.5162,-8.4289,-8.541,-8.5878,-8.5619,-8.5913,0.0,-8.6738,-8.527,-8.4425,-8.3985,-8.1232,-8.0204,-8.0324,-7.7483,-7.5759,-7.4975,-7.5969,-7.5119,-7.3372,-7.3171,-7.2582,-7.183,-7.1644,-7.1556,-7.159,-7.1356,-7.1312,-7.1176,-7.0398,-7.0601,0.0,-6.8707,-6.891,-6.9316,-6.7489,-6.6914,-6.6474,-6.5121,-6.4241,-6.3531,-6.2753,-6.2482,-6.2381,-6.2381,-6.2381,-6.2313,-6.2009,-6.0791,-5.9539,-5.849,-5.7442,-5.6596,-5.6021,-5.5141,-5.4532,-5.4397,-5.4397,-5.4025,-5.3145,-5.1928,-5.0507,-4.8883,-4.753,-4.6718,-4.6583,-4.6583,-4.665,-4.6786,-4.753,-4.7804,-4.7669,-4.8443,-4.8781,-4.8781,-4.8646,-4.8578,0.0,0.0,0.0,0.0,0.0,0.0,0.0,0.0,0.0,0.0,0.0,-6.128,-6.2903,0.0,-7.1283,-7.4758,-7.785,-8.0648,-8.2871,-8.403,-8.4785,-8.5164,-8.6073,-8.6382,-8.5693,-8.5411,-8.4959,-8.4279,-8.4786,-8.4833,-8.4162,-8.4562,-8.4493,-8.3906,-8.4265,-8.4273,-8.3839,-8.4567,-8.4973,-8.4936,-8.5138,-8.5416,-8.5747,-8.4572,-8.3581,-8.27,-8.0645,-7.9283,-7.8207,-7.5978,-7.446,-7.3611,-7.412,-7.3694,-7.2714,-7.2236,-7.1732,-7.1312,-7.1312,-7.1312,-7.1244,-7.0872,-7.1007,-7.1176,-7.0398,-7.0466,-7.05,-6.935,-6.9045,-6.8707,-6.7218,-6.6542,-6.5967,-6.485,-6.4038,-6.3429,-6.3024,-6.2651,-6.2381,-6.2381,-6.211,-6.1704,-6.1298,-6.0317,-5.9438,-5.9066,-5.7746,-5.6664,-5.6325,-5.5277,-5.46,-5.46,-5.4262,-5.3721,-5.2976,-5.1522,-5.0168,-4.9086,-4.797,-4.7361,-4.7361,-4.7361,-4.7361,-4.7361,-4.8071,-4.8477,-4.8477,-4.8815,-4.9018,-4.9018,-4.9018,-4.9018,0.0,0.0,0.0,0.0,0.0,0.0,0.0,-5.6108,-5.7644,-6.0599,-6.3581,-6.6435,-6.9182,-7.2721,-7.6172,-7.9044,-8.0991,-8.2354,-8.2921,-8.316,-8.4011,-8.5892,-8.5963,-8.5535,-8.4811,-8.3756,-8.278,-8.2035,-8.2893,-8.3174,-8.2548,-8.338,-8.3596,-8.3018,-8.3215,-8.3387,-8.3682,-8.3786,-8.4063,-8.4483,-8.4398,-8.4462,-8.4572,-8.3765,-8.27,-8.1415,-8.008,-7.7852,-7.5192,-7.4525,-7.3552,-7.2533,-7.2671,-7.2636,-7.2406,-7.16,-7.1312,-7.1312,-7.1312,-7.1312,-7.121,-7.0601,-7.0737,-7.0973,-7.0364,-7.0195,-7.0128,-6.9823,-6.8977,-6.7895,-6.688,-6.6034,-6.529,-6.4546,-6.3835,-6.3294,-6.3294,-6.2821,-6.2381,-6.2381,-6.1806,-6.1095,-6.0452,-5.9607,-5.9167,-5.9607,-5.8152,-5.69,-5.663,-5.5547,-5.4702,-5.4397,-5.3856,-5.3179,-5.2367,-5.1217,-5.0202,-4.9492,-4.8748,-4.8342,-4.8342,-4.8176,-4.8108,-4.8108,-4.8714,-4.9018,-4.9018,-4.9018,-4.9018,-4.9018,-4.9018,-4.9018,-4.7225,-4.7352,-4.8791,-5.2255,-5.3694,-5.5713,0.0,-6.3804,-6.5412,-6.7909,-7.0733,-7.3056,-7.4149,-7.7611,-8.0774,-8.2153,-8.3179,-8.3713,-8.3448,-8.2918,-8.2613,-8.2888,-8.343,-8.3548,-8.2784,-8.2003,-8.1224,-8.0513,-8.0563,-8.135,-8.2872,-8.1528,-8.1459,-8.2971,-8.2431,-8.2118,-8.215,-8.2714,-8.3403,-8.413,-8.3724,-8.3911,-8.4572,-8.3765,-8.3324,-8.2928,-7.9776,-7.6404,-7.32,-7.3698,-7.2949,-7.1524,-7.2169,-7.2033,-7.1457,-7.1356,-7.1312,-7.1312,-7.1312,-7.1312,-7.1312,-7.121,-7.0804,-7.0297,-7.0229,-7.0195,-6.9891,-6.8538,-6.8538,-6.847,-6.6373,-6.5256,-6.4546,-6.3802,-6.3057,-6.2516,-6.2516,-6.2448,-6.2381,-6.2381,-6.1806,-6.1264,-6.1197,-5.9979,-5.8829,-5.822,-5.7915,-5.7306,-5.6021,-5.5683,-5.5108,-5.3754,-5.3551,-5.3179,-5.2367,-5.2164,-5.1758,-5.1014,-5.027,-4.983,-4.983,-4.9221,-4.8883,-4.8883,-4.8951,-4.9018,-4.9018,-4.9018,-4.9018,-4.9018,-4.9018,-4.9018,-4.7733,-4.8553,-5.045,-5.3345,-5.6295,-5.973,-6.456,-6.7185,-6.9352,-7.2228,-7.5068,-7.7336,-7.8145,-8.027,-8.2019,-8.2474,-8.2868,-8.2717,-8.1732,-8.1325,-8.0648,-7.9363,-7.9464,-8.0209,-8.1629,-8.146,-8.0987,-8.0242,-8.0209,-8.0562,-8.1346,-8.0612,-8.0358,-8.0697,-8.0848,-8.0867,-8.084,-8.1555,-8.2268,-8.3003,-8.2794,-8.2884,-8.3177,-8.2847,-8.1849,-8.0212,-7.7739,-7.5183,-7.279,-7.2494,-7.1961,-7.1345,-7.165,-7.1582,-7.1312,-7.1312,-7.1312,-7.1312,-7.1312,-7.1312,-7.1244,-7.0804,-7.0737,-7.0669,-6.9823,-6.9553,-6.9316,-6.8199,-6.7827,-6.7354,-6.5527,-6.4816,-6.4309,-6.3125,-6.2618,-6.2381,-6.2381,-6.2381,-6.2381,-6.2381,-6.1806,-6.1163,-6.0689,-5.9708,-5.8761,-5.8017,-5.7881,-5.7509,-5.6461,-5.5987,-5.5107,-5.3653,-5.3518,-5.3382,-5.3044,-5.257,-5.2164,-5.186,-5.115,-5.0541,-5.0101,-4.9796,-4.9424,-4.9018,-4.9018,-4.9018,-4.9018,-4.9018,-4.9018,-4.9018,-4.9018,-4.9018,-4.868,-5.026,-5.2482,-5.5354,-5.9631,-6.3971,-6.7409,-7.0497,-7.3287,-7.5819,-7.8073,-7.9827,-8.039,-8.1167,-8.1799,-8.1799,-8.1629,-8.1054,-7.9769,-7.9228,-7.8213,-7.6183,-7.5777,-7.6589,-7.8889,-7.987,-8.0242,-7.9938,-8.0073,-8.0326,-8.0656,-8.0173,-7.9784,-7.96,-8.0077,-8.0362,-8.0464,-8.1247,-8.1984,-8.2517,-8.2076,-8.2003,-8.2186,-8.1663,-7.9965,-7.7262,-7.5758,-7.4071,-7.2321,-7.1838,-7.1481,-7.1345,-7.1548,-7.1481,-7.1312,-7.1312,-7.1312,-7.1312,-7.1312,-7.1312,-7.121,-7.0669,-7.0601,-7.05,-6.9417,-6.8944,-6.8605,-6.7827,-6.7354,-6.6745,-6.5053,-6.4613,-6.4241,-6.2753,-6.2381,-6.2381,-6.2381,-6.2381,-6.2381,-6.2381,-6.1637,-6.0791,-6.0216,-5.9336,-5.8524,-5.7983,-5.7881,-5.7611,-5.69,-5.5987,-5.4905,-5.3653,-5.3518,-5.3518,-5.3518,-5.2976,-5.2638,-5.2638,-5.1928,-5.1183,-5.0439,-5.0202,-4.983,-4.9323,-4.9289,-4.9289,-4.9289,-4.9289,-4.9187,-4.9018,-4.9018,-4.9018,-5.0103,-5.2135,-5.435,-5.8872,-6.4009,-6.8501,-7.0971,-7.4926,-7.83,-7.9176,-7.9803,-8.0191,-8.0191,-8.0209,-8.0276,-8.0276,-7.9667,-7.8923,-7.8145,-7.6758,-7.527,-7.3781,-7.2969,-7.2834,-7.3646,-7.6352,-7.8382,-7.9092,-7.9803,-8.0656,-8.1816,-8.0122,-7.9649,-8.0674,-8.0755,-8.0926,-8.1284,-8.2288,-8.3012,-8.3361,-8.1782,-8.1452,-8.2117,-8.0395,-7.7968,-7.5142,-7.4378,-7.3009,-7.1424,-7.2056,-7.1954,-7.1379,-7.209,-7.1921,-7.1312,-7.1312,-7.1312,-7.1312,-7.1312,-7.1312,-7.1312,-7.1278,-7.0331,-6.9147,-6.9113,-6.8571,-6.7793,-6.7049,-6.7354,-6.7354,-6.5155,-6.4613,-6.4241,-6.2753,-6.2381,-6.2381,-6.2381,-6.2381,-6.2381,-6.2381,-6.1163,-6.0148,-6.0114,-5.8896,-5.7915,-5.7881,-5.7881,-5.7611,-5.69,-5.5513,-5.4329,-5.3585,-5.3518,-5.3518,-5.3518,-5.3484,-5.345,-5.345,-5.2706,-5.1961,-5.1185,-5.0473,-5.0067,-5.0067,-5.0067,-5.0067,-5.0067,-5.0067,-4.9695,-4.9018,-4.9018,-4.9018,-5.0608,-5.4092,-5.8176,-6.2706,-6.6696,-7.0496,-7.4268,-7.6678,-7.832,-7.907,-7.8167,-7.6927,-7.5912,-7.5337,-7.5033,-7.5033,-7.6048,-7.6589,-7.5845,-7.5303,-7.3883,-7.0939,-7.1244,-7.1379,-7.0635,-7.3274,-7.5743,-7.7502,-7.8314,-7.9121,-8.0005,-7.9442,-7.9053,-7.8961,-7.8927,-7.9223,-7.9762,-8.0617,-8.1556,-8.259,-8.1328,-8.087,-8.1088,-7.9745,-7.7686,-7.5092,-7.4814,-7.3447,-7.1345,-7.1582,-7.1548,-7.1345,-7.1582,-7.1548,-7.1312,-7.1312,-7.1312,-7.1312,-7.1312,-7.1312,-7.1312,-7.1312,-7.0635,-6.9722,-6.9248,-6.8538,-6.776,-6.7015,-6.6981,-6.6779,-6.5053,-6.4952,-6.4952,-6.3497,-6.3125,-6.3125,-6.3125,-6.2753,-6.2381,-6.2381,-6.1603,-6.0723,-6.0182,-5.9302,-5.8457,-5.7949,-5.707,-5.6359,-5.6122,-5.4769,-5.3788,-5.3518,-5.3518,-5.3518,-5.3518,-5.3518,-5.3518,-5.3518,-5.3247,-5.2739,-5.1961,-5.1691,-5.1319,-5.0845,-5.0845,-5.0845,-5.0845,-5.0845,-5.071,-5.0473,-5.0473,-5.0473,-5.3315,-5.7611,-6.2347,-6.6305,-6.9553,-7.2597,-7.5743,-7.7063,-7.757,-7.7502,-7.5506,-7.3206,-7.1413,-6.9857,-6.9011,-6.9519,-7.0804,-7.1954,-7.2563,-7.2631,-7.1751,-6.9383,-6.9688,-6.9823,-6.918,-7.0804,-7.3071,-7.5879,-7.7029,-7.7908,-7.8686,-7.845,-7.8213,-7.801,-7.8156,-7.8473,-7.8983,-8.0123,-8.0866,-8.1209,-8.0766,-8.0038,-7.8953,-7.8317,-7.688,-7.4891,-7.4341,-7.3181,-7.1684,-7.1413,-7.1312,-7.1312,-7.1312,-7.1312,-7.1312,-7.1312,-7.1312,-7.1312,-7.1312,-7.1312,-7.1312,-7.1312,-7.0635,-6.9722,-6.9248,-6.8368,-6.7421,-6.6948,-6.6812,-6.6542,-6.529,-6.5155,-6.4986,-6.3802,-6.3294,-6.3125,-6.3125,-6.2719,-6.2381,-6.2381,-6.1806,-6.1028,-6.025,-5.9268,-5.8457,-5.7949,-5.6664,-5.5681,-5.5681,-5.4634,-5.3788,-5.3551,-5.3518,-5.3518,-5.3518,-5.3518,-5.3518,-5.3518,-5.3518,-5.3145,-5.2334,-5.23,-5.2097,-5.1623,-5.1589,-5.1589,-5.1589,-5.1589,-5.1488,-5.1185,-5.1185,-5.1185,-5.8051,-6.2482,-6.6576,-6.962,-7.2462,-7.4762,-7.5506,-7.6183,-7.6217,-7.4661,-7.1853,-6.8977,-6.6677,-6.3971,-6.2618,-6.4106,-6.458,-6.5797,-6.8808,-6.9248,-6.9248,-6.918,-6.8538,-6.8402,-6.9147,-6.9282,-7.077,-7.4289,-7.598,-7.7198,-7.801,-7.7367,-7.7266,-7.7976,-7.8339,-7.8675,-7.8983,-8.0823,-8.0948,-7.9396,-8.008,-7.895,-7.6141,-7.6184,-7.5592,-7.4525,-7.3071,-7.2428,-7.2326,-7.1616,-7.1312,-7.1312,-7.1312,-7.1312,-7.1312,-7.1312,-7.1312,-7.1312,-7.1312,-7.1278,-7.1244,-7.1244,-7.0263,-6.9045,-6.9045,-6.7996,-6.6812,-6.6812,-6.6812,-6.6643,-6.5865,-6.5189,-6.4478,-6.3734,-6.299,-6.2448,-6.2448,-6.2415,-6.2381,-6.2381,-6.1772,-6.0994,-6.0182,-5.8829,-5.7881,-5.7881,-5.6664,-5.5681,-5.5681,-5.5006,-5.4262,-5.3585,-5.3518,-5.3518,-5.3518,-5.3518,-5.3518,-5.3518,-5.3518,-5.3179,-5.2401,-5.2367,-5.2367,-5.2367,-5.2367,-5.2367,-5.2367,-5.2367,-5.1995,-5.132,-5.132,-5.132,-6.1298,-6.5222,-6.8944,-7.1921,-7.3206,-7.4119,-7.5405,-7.4593,-7.2969,-7.0939,-6.6339,-6.1839,-5.9066,-5.8355,-5.8896,-6.0926,-6.4512,-6.7929,-7.0398,-7.121,-7.1142,-7.0026,-7.0703,-7.1109,-7.077,-7.1718,-7.2766,-7.3713,-7.5168,-7.6826,-7.872,-7.8111,-7.7807,-7.7976,-7.7778,-7.8074,-7.8983,-8.0285,-8.029,-7.9096,-7.8471,-7.776,-7.6937,-7.6188,-7.5349,-7.4559,-7.3612,-7.2902,-7.2326,-7.1616,-7.1312,-7.1312,-7.1312,-7.1312,-7.1312,-7.1312,-7.1312,-7.1312,-7.1312,-7.0939,-7.0466,-7.0466,-6.9451,-6.8199,-6.8199,-6.7557,-6.6812,-6.6812,-6.6812,-6.6643,-6.5865,-6.5561,-6.5222,-6.4478,-6.3768,-6.3226,-6.3226,-6.2787,-6.2381,-6.2381,-6.1298,-6.0182,-5.9438,-5.8524,-5.7881,-5.7881,-5.6664,-5.5681,-5.5681,-5.46,-5.3721,-5.3518,-5.3518,-5.3518,-5.3518,-5.3518,-5.3518,-5.3518,-5.3518,-5.3416,-5.3213,-5.3179,-5.3179,-5.3179,-5.3179,-5.3179,-5.3179,-5.3179,-5.3112,-5.2909,-5.2909,-5.2909,-6.4512,-6.7929,-7.1007,-7.3003,-7.3477,-7.3274,-7.2462,-7.0804,-6.8368,-6.4512,-5.9945,-5.5987,-5.3687,-5.3315,-5.4329,-5.7205,-6.1231,-6.5256,-6.8842,-7.0263,-7.1007,-7.1142,-7.1887,-7.236,-7.2259,-7.3003,-7.3747,-7.4424,-7.4931,-7.6082,-7.8044,-7.7401,-7.7299,-7.7976,-7.7085,-7.7288,-7.8771,-7.9519,-7.9697,-7.9262,-7.8302,-7.7579,-7.7068,-7.6517,-7.5811,-7.5033,-7.395,-7.324,-7.28,-7.1751,-7.1312,-7.1312,-7.1312,-7.1312,-7.1312,-7.1312,-7.1312,-7.1312,-7.1312,-7.0601,-6.9755,-7.0094,-6.9383,-6.8368,-6.7996,-6.7387,-6.6812,-6.6812,-6.6812,-6.6711,-6.6305,-6.5696,-6.5121,-6.4681,-6.3802,-6.3024,-6.3024,-6.2685,-6.2279,-6.1975,-6.0926,-5.9877,-5.9133,-5.8389,-5.7881,-5.7881,-5.6934,-5.6089,-5.575,-5.4431,-5.3518,-5.3518,-5.3518,-5.3518,-5.3518,-5.3518,-5.3518,-5.3518,-5.3518,-5.3518,-5.3518,-5.3518,-5.3518,-5.3518,-5.3518,-5.3518,-5.3518,-5.3518,-5.3518,-5.3518,-5.3518,-5.3518,-6.7557,-7.0331,-7.2563,-7.3308,-7.3341,-7.2225,-6.847,-6.6237,-6.3294,-5.7408,-5.3822,-5.1251,-4.9661,-4.9086,-5.0168,-5.4093,-5.7137,-6.096,-6.6474,-6.8335,-6.9958,-7.2259,-7.2563,-7.2868,-7.3713,-7.3781,-7.4322,-7.5608,-7.5033,-7.5371,-7.7096,-7.6352,-7.6516,-7.7847,-7.6591,-7.6734,-7.847,-7.8778,-7.9114,-7.9373,-7.8625,-7.7799,-7.6893,-7.6792,-7.6318,-7.5473,-7.4086,-7.3443,-7.324,-7.1887,-7.1312,-7.1312,-7.1312,-7.1312,-7.1312,-7.1312,-7.1312,-7.1312,-7.1312,-7.0398,-6.935,-6.9857,-6.9485,-6.8673,-6.7963,-6.732,-6.6812,-6.6812,-6.6812,-6.6812,-6.6812,-6.5797,-6.4715,-6.4613,-6.3531,-6.2516,-6.2415,-6.2381,-6.2178,-6.1434,-6.0655,-5.9877,-5.9133,-5.8389,-5.7881,-5.7881,-5.7273,-5.6528,-5.5818,-5.4499,-5.3619,-5.3518,-5.3518,-5.3518,-5.3518,-5.3518,-5.3518,-5.3518,-5.3518,-5.3518,-5.3518,-5.3518,-5.3518,-5.3518,-5.3518,-5.3518,-5.3518,-5.3518,-5.3518,-5.3518,-5.3518,-5.3518,-6.9891,-7.1548,-7.2563,-7.3308,-7.2563,-7.0703,-6.6948,-6.3463,-5.9539,-5.4194,-5.0744,-4.8037,-4.5969,-4.6955,-4.9729,-5.4702,-5.7476,-6.1501,-6.8605,-6.9316,-7.0161,-7.2969,-7.3308,-7.3815,-7.5202,-7.5303,-7.5405,-7.5676,-7.5033,-7.5811,-7.8585,-7.7435,-7.6931,-7.743,-7.7164,-7.7495,-7.8514,-7.8553,-7.8476,-7.8283,-7.7536,-7.7052,-7.6893,-7.6217,-7.5506,-7.4762,-7.3883,-7.3138,-7.2529,-7.1684,-7.1312,-7.1312,-7.1312,-7.1312,-7.1312,-7.1312,-7.1312,-7.1312,-7.1312,-7.0737,-6.9925,-6.9451,-6.8335,-6.7184,-6.7049,-6.6914,-6.6812,-6.6812,-6.6812,-6.6812,-6.6812,-6.617,-6.5358,-6.4749,-6.3937,-6.3159,-6.2516,-6.2381,-6.2178,-6.1434,-6.0655,-5.9877,-5.9133,-5.8389,-5.7881,-5.7881,-5.7273,-5.6528,-5.5818,-5.4938,-5.416,-5.3585,-5.3518,-5.3518,-5.3518,-5.3518,-5.3518,-5.3518,-5.3518,-5.3518,-5.3518,-5.3518,-5.3518,-5.3518,-5.3518,-5.3518,-5.3518,-5.3518,-5.3518,-5.3518,-5.3518,-5.3518,-7.1075,-7.2428,-7.3037,-7.3409,-7.209,-6.9214,-6.3497,-5.9641,-5.5547,-4.9526,-4.6819,-4.5201,-4.4181,-4.5805,-4.8409,-5.1691,-5.4431,-5.8626,-6.573,-6.6406,-6.7996,-7.2902,-7.3477,-7.3916,-7.5033,-7.5134,-7.4965,-7.4559,-7.4221,-7.4999,-7.7232,-7.6657,-7.6333,-7.6496,-7.6462,-7.6839,-7.766,-7.766,-7.7945,-7.8551,-7.7807,-7.7468,-7.7435,-7.6251,-7.5303,-7.4559,-7.3409,-7.2732,-7.2326,-7.1616,-7.1312,-7.1312,-7.1312,-7.1312,-7.1312,-7.1312,-7.1312,-7.1278,-7.0872,-7.0229,-6.9485,-6.8741,-6.7996,-6.732,-6.6914,-6.6812,-6.6812,-6.6812,-6.6812,-6.6812,-6.6812,-6.6237,-6.5493,-6.4783,-6.3734,-6.2821,-6.2482,-6.211,-6.1603,-6.0825,-6.0047,-5.9302,-5.8558,-5.8118,-5.7881,-5.7881,-5.7577,-5.7103,-5.6393,-5.5649,-5.4735,-5.3619,-5.3518,-5.3518,-5.3518,-5.3518,-5.3518,-5.3518,-5.3518,-5.3518,-5.3518,-5.3518,-5.3518,-5.3518,-5.3518,-5.3518,-5.3518,-5.3518,-5.3518,-5.3518,-5.3518,-5.3518,-7.1176,-7.2699,-7.3443,-7.3274,-7.1447,-6.7793,-6.0452,-5.6359,-5.23,-4.5935,-4.3944,-4.3375,-4.3375,-4.4722,-4.6515,-4.8646,-5.098,-5.5074,-6.2245,-6.3429,-6.5865,-7.2259,-7.3172,-7.3612,-7.4525,-7.4458,-7.4255,-7.3984,-7.368,-7.4052,-7.5405,-7.5608,-7.5777,-7.5946,-7.5946,-7.6352,-7.713,-7.713,-7.7705,-7.8855,-7.8111,-7.7739,-7.7705,-7.6183,-7.5067,-7.4289,-7.2969,-7.2326,-7.2124,-7.1548,-7.1312,-7.1312,-7.1312,-7.1312,-7.1312,-7.1312,-7.121,-7.0973,-7.0398,-6.9586,-6.8741,-6.8098,-6.7793,-6.7557,-6.6981,-6.6812,-6.6812,-6.6812,-6.6812,-6.6812,-6.6812,-6.6373,-6.5696,-6.4816,-6.3463,-6.2381,-6.2381,-6.1941,-6.1264,-6.0283,-5.9641,-5.8964,-5.8051,-5.7881,-5.7881,-5.7881,-5.7881,-5.7611,-5.69,-5.6292,-5.5378,-5.389,-5.3585,-5.3518,-5.3518,-5.3518,-5.3518,-5.3518,-5.3518,-5.3518,-5.3518,-5.3518,-5.3518,-5.3518,-5.3518,-5.3518,-5.3518,-5.3518,-5.3518,-5.3518,-5.3518,-5.3518,-6.9925,-7.1921,-7.3341,-7.2665,-7.0297,-6.6339,-5.9539,-5.5141,-5.1014,-4.5698,-4.3944,-4.3375,-4.3375,-4.3031,-4.4079,-4.8308,0.0,-5.2469,-6.1264,-6.3091,-6.5493,-7.0872,-7.209,-7.3037,-7.4458,-7.3984,-7.4119,-7.5405,-7.4255,-7.3849,-7.4661,-7.5337,-7.6048,-7.6758,-7.6792,-7.713,-7.7874,-7.7874,-7.7942,-7.8077,-7.7333,-7.6995,-7.6961,-7.5405,-7.4289,-7.3544,-7.2732,-7.2022,-7.1413,-7.1345,-7.1312,-7.1312,-7.1312,-7.1312,-7.1312,-7.1312,-7.0872,-7.0297,-7.0195,-6.9248,-6.7996,-6.7929,-6.7455,-6.6914,-6.6846,-6.6812,-6.6812,-6.6812,-6.6812,-6.6812,-6.6812,-6.6779,-6.6339,-6.4952,-6.3463,-6.2381,-6.2381,-6.2347,-6.1839,-6.0385,-6.0047,-5.9539,-5.8118,-5.7881,-5.7881,-5.7881,-5.7881,-5.7611,-5.69,-5.6731,-5.6122,-5.4668,-5.389,-5.3518,-5.3518,-5.3518,-5.3518,-5.3518,-5.3518,-5.3518,-5.3518,-5.3518,-5.3518,-5.3518,-5.3518,-5.3518,-5.3518,-5.3518,-5.3518,-5.3518,-5.3518,-5.3518,-6.8504,-7.1481,-7.3308,-7.2563,-6.9113,-6.4512,-5.9099,-5.3957,-4.9097,-4.4716,-4.2894,-4.2052,-4.1898,-4.1753,-4.236,0.0,0.0,0.0,-5.4702,-5.6292,-5.9539,-6.7049,-6.8977,-7.0635,-7.3037,-7.3003,-7.3071,-7.368,-7.3578,-7.3815,-7.4559,-7.4897,-7.5608,-7.686,-7.7333,-7.7468,-7.7333,-7.7773,-7.7773,-7.7333,-7.7029,-7.6893,-7.6826,-7.483,-7.3781,-7.3409,-7.2259,-7.1582,-7.1312,-7.1312,-7.1312,-7.1312,-7.1312,-7.1312,-7.1312,-7.1312,-7.0838,-7.0128,-6.9688,-6.8808,-6.7827,-6.7387,-6.7049,-6.6812,-6.6812,-6.6812,-6.6812,-6.6812,-6.6474,-6.6136,-6.6136,-6.5493,-6.4783,-6.4647,-6.3463,-6.2381,-6.2381,-6.167,-6.0825,-6.0216,-5.937,-5.8592,-5.7983,-5.7881,-5.7881,-5.7881,-5.7881,-5.778,-5.7476,-5.6697,-5.5919,-5.5344,-5.46,-5.3991,-5.3551,-5.3518,-5.3518,-5.3518,-5.3518,-5.3518,-5.3518,-5.3518,-5.3518,-5.3518,-5.3518,-5.3518,-5.3518,-5.3518,-5.3518,-5.3518,-5.3518,-5.3518,-6.5865,-6.9457,-7.1787,-7.1283,-6.7167,-6.2099,-5.7663,-5.2259,-4.7201,-4.3668,-4.1975,-4.1143,-4.1212,-4.1181,-4.1375,0.0,0.0,-4.55,-5.0507,-5.2232,-5.5818,-6.3497,-6.5493,-6.7624,-7.1075,-7.2597,-7.3274,-7.3071,-7.3713,-7.4492,-7.5236,-7.5506,-7.6115,-7.7198,-7.7942,-7.7976,-7.7232,-7.7739,-7.7401,-7.6217,-7.6217,-7.6115,-7.5811,-7.4018,-7.3172,-7.3105,-7.1421,-7.0916,-7.1267,-7.0837,-7.0928,-7.1312,-7.1312,-7.1312,-7.1312,-7.1312,-7.0703,-6.9789,-6.9282,-6.8436,-6.7489,-6.6981,-6.6812,-6.6812,-6.6812,-6.6812,-6.6812,-6.6812,-6.6271,-6.5696,-6.5696,-6.4613,-6.3632,-6.4174,-6.3294,-6.2381,-6.2381,-6.1366,-6.0385,-6.0148,-5.9099,-5.8152,-5.7915,-5.7881,-5.7881,-5.7881,-5.7881,-5.7881,-5.7881,-5.6799,-5.5953,-5.575,-5.504,-5.4296,-5.3551,-5.3518,-5.3518,-5.3518,-5.3518,-5.3518,-5.3518,-5.3518,-5.3518,-5.3518,-5.3518,-5.3518,-5.3518,-5.3518,-5.3518,-5.3518,-5.3518,-5.3518,-6.1637,-6.5244,-6.8196,-6.821,-6.4105,-5.894,-5.4617,-4.9839,-4.5509,-4.2622,-4.1406,-4.1118,-4.1853,-4.1443,-4.1288,-4.2071,0.0,0.0,-5.0608,-5.3145,-5.6258,-6.0825,-6.2009,-6.4208,-6.8707,-7.3105,-7.5371,-7.4661,-7.527,-7.6014,-7.6826,-7.757,-7.7942,-7.7976,-7.872,-7.872,-7.7976,-7.7976,-7.686,-7.4627,-7.4627,-7.4255,-7.351,-7.2766,-7.2428,-7.2315,-7.0154,-6.9996,-7.1222,-6.9808,-7.0043,-7.1312,-7.1312,-7.1312,-7.1312,-7.1312,-7.0364,-6.9113,-6.9113,-6.8098,-6.6812,-6.6812,-6.6812,-6.6812,-6.6812,-6.6812,-6.6812,-6.6812,-6.6271,-6.5696,-6.5696,-6.4613,-6.3531,-6.3531,-6.2956,-6.2381,-6.2381,-6.1806,-6.1061,-6.025,-5.9505,-5.8761,-5.8017,-5.7881,-5.7881,-5.7881,-5.7881,-5.7881,-5.7881,-5.7239,-5.6528,-5.5784,-5.504,-5.4296,-5.3551,-5.3518,-5.3518,-5.3518,-5.3518,-5.3518,-5.3518,-5.3518,-5.3518,-5.3518,-5.3518,-5.3518,-5.3518,-5.3518,-5.3518,-5.3518,-5.3518,-5.3518,-5.4476,-5.7978,-6.0565,-5.9598,-5.6918,-5.3697,-5.0928,-4.7055,-4.3545,-4.1514,-4.0565,-4.0117,-4.0186,-3.9805,-4.0324,-4.3138,-4.4118,0.0,-4.9227,-5.2976,-5.663,-6.008,-6.5662,-7.0195,-7.2631,-7.4593,-7.5845,-7.6149,-7.686,-7.7164,-7.6927,-7.7604,-7.8213,-7.8754,-7.8991,-7.8754,-7.801,-7.6927,-7.5811,-7.4593,-7.4086,-7.3713,-7.3443,-7.2732,-7.2394,-7.2269,-7.0154,-6.9457,-6.9822,-6.9361,-6.9457,-6.9949,-7.0928,-7.1312,-7.1312,-7.1312,-7.0364,-6.9113,-6.9113,-6.8098,-6.6812,-6.6812,-6.6812,-6.6812,-6.6812,-6.6812,-6.6609,-6.5595,-6.5121,-6.4816,-6.4343,-6.3463,-6.2888,-6.3396,-6.2956,-6.2245,-6.1772,-6.1467,-6.1061,-6.025,-5.9505,-5.893,-5.8693,-5.822,-5.7881,-5.7881,-5.7881,-5.7881,-5.7881,-5.6833,-5.5987,-5.575,-5.46,-5.3754,-5.3518,-5.3518,-5.3518,-5.3518,-5.3518,-5.3518,-5.3518,-5.3518,-5.3518,-5.3518,-5.3518,-5.3518,-5.3518,-5.3518,-5.3518,-5.3518,-5.3518,-5.3518,0.0,-5.2805,-5.4899,-5.4301,-5.1937,-4.9307,-4.7485,-4.4266,-4.1494,-4.0851,-4.0166,-3.9756,-3.9917,-4.0,-4.0576,-4.2297,-4.3685,-4.5503,-4.8213,-5.2469,-5.6799,-6.0892,-6.7658,-7.236,-7.3274,-7.5303,-7.6758,-7.7266,-7.7739,-7.7773,-7.7333,-7.7739,-7.8213,-7.8686,-7.8686,-7.8179,-7.713,-7.6183,-7.5067,-7.3781,-7.3308,-7.2935,-7.2665,-7.2191,-7.1727,-7.1118,-6.927,-6.8748,0.0,-6.865,-6.9073,-7.009,-7.0961,-7.1142,-7.0872,-7.0872,-6.9925,-6.8639,-6.8639,-6.7861,-6.6812,-6.6812,-6.6812,-6.6812,-6.6812,-6.6812,-6.6576,-6.5358,-6.4816,-6.4444,-6.37,-6.2956,-6.2516,-6.299,-6.2516,-6.1873,-6.14,-6.0858,-6.0385,-6.0148,-5.9268,-5.8693,-5.8964,-5.8389,-5.7881,-5.7881,-5.7881,-5.7881,-5.7881,-5.6867,-5.6021,-5.5715,-5.4905,-5.4228,-5.3923,-5.3653,-5.3619,-5.389,-5.3653,-5.3518,-5.3518,-5.3518,-5.3518,-5.3518,-5.3518,-5.3518,-5.3518,-5.3518,-5.3518,-5.3518,-5.3518,-5.3518,0.0,-4.9166,-5.0516,-5.1214,-4.8607,-4.5532,-4.4257,-4.1564,0.0,-4.0355,-4.0003,-3.9835,-4.0738,-4.145,-4.153,-4.0536,-4.2774,-4.5476,-4.7804,-5.2266,-5.7439,-6.3242,-6.8485,-7.1639,-7.148,-7.5493,-7.8077,-7.8145,-7.8111,-7.8044,-7.7976,-7.7874,-7.7807,-7.7739,-7.7705,-7.7029,-7.5709,-7.554,-7.4424,-7.2394,-7.236,-7.1909,-7.1143,-7.1143,-7.0356,-6.8991,-6.7622,-6.7824,-6.8943,-6.7723,-6.8748,-7.1075,-7.1199,-7.077,-7.0094,-7.0094,-6.918,-6.7895,-6.7895,-6.7387,-6.6745,-6.6745,-6.6745,-6.6745,-6.6779,-6.6812,-6.6643,-6.5899,-6.5155,-6.4444,-6.37,-6.2956,-6.2381,-6.2381,-6.1873,-6.1366,-6.1231,-6.0148,-5.9336,-5.9911,-5.8964,-5.8254,-5.8896,-5.8423,-5.7949,-5.7915,-5.7881,-5.7881,-5.7881,-5.7273,-5.6562,-5.5852,-5.5647,-5.5412,-5.4803,-5.4025,-5.3856,-5.4566,-5.3923,-5.3518,-5.3518,-5.3518,-5.3518,-5.3518,-5.3518,-5.3518,-5.3518,-5.3518,-5.3518,-5.3518,-5.3518,-5.3518,-4.1182,0.0,-4.2833,-4.2478,-4.213,-4.1594,0.0,0.0,0.0,-3.8917,0.0,-3.85,-4.046,-3.9659,-4.0068,-4.432,-4.5218,-4.6553,-4.9938,-5.7273,-6.368,-6.7542,-7.2492,-7.4969,-7.3342,-7.664,-7.9092,-7.9634,-7.916,-7.8585,-7.801,-7.686,-7.598,-7.5439,-7.483,-7.4931,-7.5676,-7.4018,-7.2902,-7.2394,-7.1853,-7.0913,-6.968,-6.968,-6.8976,-6.7572,-6.6206,-6.6385,-6.7622,-6.7317,-6.7832,-6.8978,-7.0041,-6.9992,-6.935,-6.935,-6.8741,-6.7895,-6.7895,-6.7049,-6.5967,-6.5967,-6.5967,-6.6068,-6.6643,-6.6812,-6.6643,-6.5899,-6.5155,-6.4444,-6.37,-6.2956,-6.2381,-6.2381,-6.2245,-6.1806,-6.0655,-6.0588,-6.0486,-5.9471,-5.9438,-5.9471,-5.9066,-5.8863,-5.8558,-5.7983,-5.7881,-5.7881,-5.7881,-5.7273,-5.6731,-5.6562,-5.5513,-5.5243,-5.619,-5.5074,-5.4397,-5.4566,-5.3923,-5.3518,-5.3518,-5.3518,-5.3518,-5.3518,-5.3518,-5.3518,-5.3518,-5.3518,-5.3518,-5.3518,-5.3518,-5.3518,-3.9373,-3.9679,-3.9858,-3.9499,-3.9679,-3.9858,0.0,0.0,0.0,0.0,0.0,0.0,-4.0547,-4.0319,-4.1037,-4.5039,-4.6219,-4.8681,-5.4464,-6.0655,-6.5975,-6.979,-7.383,-7.6035,-7.5275,-7.7832,-7.9634,-7.9701,-7.9025,-7.8111,-7.6995,-7.5845,-7.4593,-7.3246,-7.2429,-7.2714,-7.4187,-7.3003,-7.2225,-7.1887,-7.0821,-6.9949,-6.9169,-6.8552,-6.7521,-6.6206,-6.5436,-6.5888,-6.7164,-6.6844,-6.7639,-6.9082,-6.9524,-6.9214,-6.8538,-6.8538,-6.8064,-6.7387,-6.7387,-6.6643,-6.5628,-6.529,-6.5425,-6.5764,-6.617,-6.6542,-6.6576,-6.5493,-6.4918,-6.4343,-6.326,-6.2685,-6.2381,-6.2381,-6.2144,-6.1569,-6.0351,-6.0452,-6.0419,-5.9235,-5.9336,-5.9471,-5.9099,-5.8727,-5.8355,-5.7949,-5.7881,-5.7881,-5.7881,-5.7543,-5.7036,-5.6393,-5.5886,-5.5784,-5.6258,-5.5581,-5.5108,-5.5108,-5.4093,-5.3518,-5.3518,-5.3518,-5.3518,-5.3518,-5.3518,-5.3518,-5.3518,-5.3518,-5.3518,-5.3518,-5.3518,-5.3518,-3.9373,-3.9559,-3.9679,-3.9433,-3.9373,-3.9373,-3.9373,0.0,0.0,0.0,0.0,0.0,0.0,-4.1782,-4.2866,-4.5081,-4.7597,-5.2031,-5.9847,-6.3647,-6.6842,-7.0187,-7.4005,-7.6306,-7.6042,-7.8548,-7.9837,-7.9025,-7.8247,-7.7198,-7.5777,-7.4573,-7.3127,-7.1359,-7.0355,-7.0479,-7.1917,-7.1917,-7.1614,-7.0961,-6.9775,-6.8991,-6.8552,-6.7368,-6.6101,-6.4813,-6.4813,-6.5674,-6.7132,-6.6377,-6.7635,-6.9958,-6.9214,-6.8436,-6.7726,-6.7726,-6.7354,-6.6779,-6.6677,-6.6136,-6.5425,-6.4783,-6.4952,-6.5392,-6.5628,-6.6136,-6.6373,-6.4986,-6.4613,-6.4309,-6.3057,-6.255,-6.2381,-6.2381,-6.1907,-6.1264,-6.0452,-6.0182,-5.9877,-5.9167,-5.9032,-5.8964,-5.8863,-5.8423,-5.8017,-5.7915,-5.7881,-5.7881,-5.7881,-5.7881,-5.7374,-5.6021,-5.6325,-5.6427,-5.5919,-5.5581,-5.548,-5.5716,-5.4431,-5.3619,-5.3518,-5.3518,-5.3518,-5.3518,-5.3518,-5.3518,-5.3518,-5.3518,-5.3518,-5.3518,-5.3518,-5.3518,-3.9373,-4.0217,-4.0816,-3.9709,-3.9373,-3.9373,-3.9373,0.0,0.0,0.0,0.0,0.0,0.0,-4.162,-4.3023,-4.8394,-5.2739,-5.7682,-6.4002,-6.8004,-6.9656,-6.7926,-7.4714,-7.7612,-7.2768,-7.7115,-7.9634,-7.8247,-7.7502,-7.6657,-7.5743,-7.2686,-7.0812,-7.0485,-6.8676,-6.8286,-6.9703,-6.967,-6.9637,-6.9537,-6.9313,-6.7974,-6.5728,-6.5544,-6.4678,-6.3394,-6.3394,-6.4868,-6.7132,-6.6377,-6.7373,-6.918,-6.8402,-6.7624,-6.6981,-6.6981,-6.6914,-6.6711,-6.6102,-6.5392,-6.4749,-6.4647,-6.4241,-6.4072,-6.5324,-6.5764,-6.5696,-6.485,-6.4613,-6.4546,-6.4309,-6.3328,-6.2381,-6.2381,-6.2313,-6.2009,-6.1264,-6.0588,-5.9877,-5.9167,-5.9032,-5.8795,-5.8186,-5.849,-5.8626,-5.7983,-5.7881,-5.7881,-5.7881,-5.7881,-5.7577,-5.6731,-5.619,-5.6089,-5.6596,-5.4905,-5.4363,-5.5649,-5.4905,-5.416,-5.3518,-5.3518,-5.3518,-5.3518,-5.3518,-5.3518,-5.3518,-5.3518,-5.3518,-5.3518,-5.3518,-5.3518,-3.9373,-3.9858,-4.0337,-4.0457,-4.114,-4.1715,-4.1438,-4.0956,0.0,0.0,0.0,0.0,0.0,-4.508,-4.82,-5.5034,-5.8896,-6.2146,-6.5363,-6.8316,-6.9467,-6.7766,-7.2517,-7.4779,-7.1699,-7.5319,-7.7358,-7.629,-7.6234,-7.5422,-7.3536,-7.1455,-6.9451,-6.754,-6.6575,-6.6699,-6.8107,-6.7368,-6.7723,-6.9169,-6.7673,-6.6143,-6.4553,-6.4193,-6.3494,-6.257,-6.2929,-6.4678,-6.71,-6.593,-6.6867,-6.8977,-6.7793,-6.7117,-6.6812,-6.6812,-6.6812,-6.6711,-6.5967,-6.5222,-6.4546,-6.414,-6.3802,-6.37,-6.4783,-6.5358,-6.5628,-6.529,-6.4918,-6.441,-6.3599,-6.2888,-6.2381,-6.2381,-6.2381,-6.2076,-6.0892,-6.0689,-6.0283,-5.8727,-5.8727,-5.8795,-5.8017,-5.8186,-5.8287,-5.7949,-5.7881,-5.7881,-5.7881,-5.7881,-5.7611,-5.6867,-5.6494,-5.6427,-5.6765,-5.5513,-5.4634,-5.4532,-5.4194,-5.4025,-5.4093,-5.4093,-5.4296,-5.4702,-5.4702,-5.4499,-5.4093,-5.4499,-5.4499,-5.4093,-5.4093,-5.4093,-3.923,-3.9523,-4.0028,-4.0607,0.0,-4.2978,-4.3841,-4.3862,-4.3901,0.0,0.0,0.0,0.0,-4.9291,-5.3642,-6.0214,-6.3174,-6.5039,-6.616,-6.8258,-6.9239,-6.8073,-7.0617,-7.2143,-7.1357,-7.3705,-7.5058,-7.4453,-7.4585,-7.3715,-7.1326,-6.986,-6.7863,-6.5196,-6.4813,-6.5274,-6.6699,-6.5328,-6.5994,-6.8699,-6.6122,-6.4452,-6.3633,-6.2958,-6.2331,-6.1882,-6.2702,-6.446,-6.6588,-6.5258,-6.6169,-6.8203,-6.6564,-6.6005,-6.6094,-6.6213,-6.6406,-6.6474,-6.5899,-6.5324,-6.4749,-6.4005,-6.3666,-6.3632,-6.4174,-6.4749,-6.5189,-6.5189,-6.4783,-6.4072,-6.2956,-6.2516,-6.2347,-6.2178,-6.2144,-6.1806,-6.0655,-6.0588,-6.0351,-5.8964,-5.8727,-5.8626,-5.822,-5.8017,-5.7881,-5.7881,-5.7881,-5.7881,-5.7881,-5.7881,-5.7611,-5.6867,-5.6799,-5.6731,-5.6562,-5.619,-5.5412,-5.4093,-5.4025,-5.4262,-5.4837,-5.4871,-5.5108,-5.5716,-5.5681,-5.5446,-5.4871,-5.5446,-5.5412,-5.4871,-5.4871,-5.4871,-3.8631,-3.9925,-4.1009,-3.932,-3.9329,-4.0958,-4.5739,-4.5959,0.0,-4.8844,-4.8025,-4.7432,-4.9417,-5.2906,-5.6749,-6.067,-6.3264,-6.5491,-6.7616,-6.9871,-7.041,-6.8241,-7.0704,-7.2224,-7.1305,-7.2782,-7.3775,-7.3628,-7.2489,-7.1375,-7.0452,-6.7248,-6.539,-6.5111,-6.3902,-6.3902,-6.5219,-6.3902,-6.4623,-6.7317,-6.5229,-6.3476,-6.2232,-6.1549,-6.1224,-6.122,-6.2449,-6.387,-6.5212,-6.4363,-6.4946,-6.6034,-6.4056,-6.3608,-6.4068,-6.458,-6.5189,-6.5764,-6.5696,-6.5662,-6.5493,-6.4749,-6.4072,-6.3531,-6.3565,-6.3632,-6.3666,-6.3666,-6.3632,-6.3565,-6.3463,-6.2922,-6.2212,-6.1535,-6.1366,-6.1366,-6.1231,-6.0148,-5.9539,-6.0825,-5.937,-5.8186,-5.8829,-5.8355,-5.7881,-5.7881,-5.7881,-5.7881,-5.7881,-5.7881,-5.7611,-5.6867,-5.6799,-5.6528,-5.5852,-5.6359,-5.6393,-5.5615,-5.5512,-5.5581,-5.5649,-5.5649,-5.5683,-5.5681,-5.5681,-5.5683,-5.5649,-5.5683,-5.5683,-5.5649,-5.5649,-5.5649,-3.8452,-3.96,-4.0698,-3.9945,-4.098,0.0,0.0,-4.8368,-5.0091,-5.1965,-5.3188,-5.3987,-5.4067,-5.6947,-6.0151,-6.2663,-6.5621,-6.7896,-6.8691,-6.9912,-6.98,-6.7095,-6.8236,-6.8714,-6.7446,-6.9536,-7.0935,-7.0891,-7.0815,-7.0272,-6.9126,-6.6532,-6.4703,-6.3902,-6.3394,-6.3551,-6.446,-6.3183,-6.3219,-6.4654,-6.3408,-6.2143,-6.0864,-6.1044,-6.0894,-6.0531,-6.225,-6.3328,-6.3857,-6.397,-6.432,-6.4624,-6.3019,-6.2245,-6.2139,-6.2742,-6.3672,-6.4657,-6.508,-6.5411,-6.5561,-6.485,-6.4106,-6.3531,-6.3531,-6.3531,-6.3531,-6.3531,-6.3531,-6.3396,-6.2956,-6.2279,-6.1637,-6.1366,-6.0926,-6.0329,-5.9598,-5.9588,-5.9654,-5.9458,-5.9353,-5.9201,-5.9032,-5.8795,-5.8423,-5.7949,-5.7881,-5.7881,-5.7881,-5.7881,-5.778,-5.7509,-5.7476,-5.7171,-5.6461,-5.707,-5.7171,-5.6427,-5.5953,-5.5919,-5.6393,-5.6393,-5.6596,-5.707,-5.707,-5.6833,-5.6393,-5.6833,-5.6833,-5.6393,-5.6393,-5.6393,-3.7913,-3.8632,-3.9597,-3.9879,0.0,0.0,-4.7725,-5.1102,-5.415,-5.6146,-5.7127,-5.7387,-5.667,-5.8403,-6.0642,-6.2741,-6.5807,-6.7915,-6.788,-6.8531,-6.8199,-6.5922,-6.5994,-6.5971,-6.5397,-6.6962,-6.8161,-6.8604,-6.8672,-6.8229,-6.7325,-6.5282,-6.3736,-6.2807,-6.257,-6.269,-6.3163,-6.2238,-6.1785,-6.1813,-6.1363,-6.0655,-5.9787,-6.0057,-5.9907,-5.9567,-6.1495,-6.2373,-6.2478,-6.2883,-6.26,-6.1833,-6.104,-6.0471,-6.0106,-6.0767,-6.1685,-6.2713,-6.3158,-6.3847,-6.4371,-6.3448,-6.3192,-6.3172,-6.2702,-6.2845,-6.3159,-6.3159,-6.3159,-6.3057,-6.2516,-6.1839,-6.1231,-6.0994,-6.0184,-5.9321,-5.8459,-5.8933,-5.9415,-5.9086,-5.9616,-5.9945,-5.9438,-5.9167,-5.8761,-5.8017,-5.7881,-5.7881,-5.7881,-5.7881,-5.7881,-5.7881,-5.7881,-5.7679,-5.7171,-5.7251,-5.7282,-5.7171,-5.6342,-5.6272,-5.7137,-5.7137,-5.7374,-5.7881,-5.7881,-5.7645,-5.7137,-5.7645,-5.7645,-5.7137,-5.7137,-5.7137,-3.6836,-3.7042,-3.7808,-3.8713,0.0,0.0,-5.0443,-5.4241,-5.7727,-6.1675,-5.9317,-5.6575,-5.6727,-5.6735,-5.758,-6.024,-6.3127,-6.5024,-6.5024,-6.5592,-6.5742,-6.5084,-6.4425,-6.4528,-6.5911,-6.5459,-6.5674,-6.7061,-6.5888,-6.5111,-6.5111,-6.3208,-6.2091,-6.2061,-6.1433,-6.1104,-6.1104,-6.1104,-6.0416,-5.9099,-5.9099,-5.9099,-5.9069,-5.8411,-5.8112,-5.8158,-6.0069,-6.0897,-6.0967,-6.0868,-5.9367,-5.7161,-5.7733,-5.7996,-5.8049,-5.86,-5.926,-5.9882,-5.9882,-6.0811,-6.1739,-6.033,-6.1166,-6.2409,-6.1047,-6.1439,-6.2381,-6.2381,-6.2381,-6.2381,-6.2381,-6.1839,-6.1095,-6.0317,-5.9203,-5.8297,-5.8297,-5.8297,-5.8725,-6.0322,-6.0318,-6.0114,-6.0114,-5.9505,-5.8724,-5.8017,-5.7881,-5.7881,-5.7881,-5.7881,-5.7881,-5.7881,-5.7881,-5.7881,-5.7881,-5.6854,-5.6701,-5.7845,-5.6849,-5.6701,-5.7845,-5.7881,-5.7881,-5.7881,-5.7881,-5.7881,-5.7881,-5.7881,-5.7881,-5.7881,-5.7881,-5.7881,-3.6596,-3.7308,0.0,-3.9662,0.0,0.0,0.0,-5.4444,0.0,-6.1343,-6.0678,-5.9113,-5.8489,-5.9408,-6.03,-6.0257,-6.2528,-6.4485,-6.4964,-6.4784,-6.4515,-6.4336,-6.3737,-6.3522,-6.3921,-6.4691,-6.5056,-6.5008,-6.4635,-6.415,-6.3738,-6.2238,-6.1194,-6.0685,-6.0954,-6.0655,-5.9697,-6.0146,-5.9727,-5.8411,-5.8411,-5.8171,-5.7693,-5.7483,-5.7393,-5.7498,-5.895,-5.9104,-5.8282,-5.8268,-5.7537,-5.6457,-5.6657,-5.6446,-5.6133,-5.6743,-5.7665,-5.8718,-5.9172,-6.0202,-6.1113,-6.0216,-6.0315,-6.072,-6.0627,-6.087,-6.1317,-6.215,-6.2381,-6.2381,-6.2381,-6.1839,-6.1231,-6.0994,-5.9604,-5.8224,-5.7915,-5.8554,-5.9184,-5.9317,-6.0191,-6.0757,-6.0216,-5.8868,-5.7902,-5.7873,-5.7222,-5.7001,-5.7808,-5.7881,-5.7591,-5.6778,-5.6701,-5.6701,-5.6701,-5.6398,-5.6701,-5.7845,-5.7591,-5.7554,-5.7881,-5.7881,-5.7881,-5.7881,-5.7881,-5.7881,-5.7881,-5.7881,-5.7881,-5.7881,-5.7881,-5.7881,-3.6477,-3.7404,0.0,-4.1516,-4.5409,-4.9801,-5.445,-5.69,-5.9144,-6.2623,-6.1556,-5.9983,-6.024,-6.0506,-6.0745,-6.0856,-6.263,-6.4066,-6.4216,-6.4096,-6.3917,-6.3647,-6.3318,-6.3079,-6.3079,-6.3603,-6.374,-6.3367,-6.3091,-6.2632,-6.1928,-6.088,-5.9997,-5.9338,-5.9428,-5.9129,-5.8321,-5.871,-5.8381,-5.7334,-5.7094,-5.6615,-5.5957,-5.6226,-5.6346,-5.6398,-5.7476,-5.7617,-5.7051,-5.6844,-5.6346,-5.5777,-5.5777,-5.5538,-5.5239,-5.5628,-5.6275,-5.7002,-5.74,-5.8221,-5.9013,-5.8277,-5.8531,-5.9171,-5.9393,-6.0017,-6.0804,-6.1733,-6.2178,-6.2381,-6.2381,-6.2076,-6.152,-6.079,-5.9292,-5.786,-5.7127,-5.8157,-5.9134,-5.8851,-6.0382,-6.1351,-6.008,-5.8721,-5.7701,-5.7397,-5.6552,-5.6137,-5.6503,-5.6619,-5.6315,-5.5651,-5.5538,-5.577,-5.6165,-5.581,-5.6204,-5.7808,-5.748,-5.7409,-5.7881,-5.7881,-5.7881,-5.7881,-5.748,-5.7222,-5.7222,-5.7222,-5.739,-5.7696,-5.7833,-5.8051,-3.6596,-3.7554,0.0,-4.3912,-4.7821,-5.1871,-5.6889,-6.0476,-6.3064,-6.4305,-6.1771,-5.9937,-6.1762,-6.0595,-5.9967,-6.1792,-6.3019,-6.3528,-6.2959,-6.3438,-6.3617,-6.3049,-6.3049,-6.3049,-6.2989,-6.245,-6.2032,-6.1822,-6.1253,-6.0595,-5.9847,-5.9249,-5.862,-5.7962,-5.7334,-5.7004,-5.7004,-5.7004,-5.6735,-5.6218,-5.5508,-5.485,-5.4221,-5.476,-5.4999,-5.5029,-5.5628,-5.6183,-5.6628,-5.6104,-5.5538,-5.4999,-5.4999,-5.4999,-5.4999,-5.4999,-5.4999,-5.5029,-5.5089,-5.5508,-5.5897,-5.5359,-5.6343,-5.7752,-5.7788,-5.9047,-6.0538,-6.1223,-6.1795,-6.2263,-6.2263,-6.215,-6.1589,-5.972,-5.8508,-5.7465,-5.6326,-5.7519,-5.878,-5.8851,-6.0646,-6.1575,-5.9795,-5.8782,-5.7762,-5.6538,-5.5889,-5.5389,-5.4781,-5.4621,-5.4547,-5.4463,-5.4463,-5.4879,-5.5968,-5.5166,-5.553,-5.7772,-5.6925,-5.6778,-5.7701,-5.7845,-5.7845,-5.7772,-5.6739,-5.6204,-5.6204,-5.627,-5.6744,-5.7556,-5.7846,-5.8355,-3.7554,-3.8571,0.0,0.0,-5.121,-5.6274,-5.9017,-6.0615,-6.1278,-6.0548,-6.0967,-6.1583,-6.2002,-6.1762,-6.1583,-6.2032,-6.1882,-6.1702,-6.1553,-6.2091,-6.245,-6.2331,-6.275,-6.2869,-6.2361,-6.2181,-6.1433,-5.9877,-5.9608,-5.9009,-5.7812,-5.7603,-5.7244,-5.6615,-5.6436,-5.6376,-5.6376,-5.6376,-5.6368,-5.6218,-5.5508,-5.485,-5.4192,-5.3803,-5.3623,-5.3623,-5.3773,-5.3909,-5.4032,-5.389,-5.3743,-5.3623,-5.3623,-5.3623,-5.3623,-5.3623,-5.3623,-5.3683,-5.4221,-5.4521,-5.47,-5.5059,-5.5471,-5.6119,-5.8004,-5.8863,-5.9577,-6.1629,-6.1616,-6.0995,-6.0995,-6.0289,-5.9226,-5.7864,-5.806,-5.8339,-5.7484,-5.8077,-5.892,-5.9281,-5.9771,-5.9985,-5.9573,-5.7366,-5.5583,-5.5266,-5.5442,-5.5538,-5.5378,-5.4941,-5.4253,-5.3352,-5.3296,-5.3742,-5.4879,-5.4755,-5.553,-5.7772,-5.7665,-5.726,-5.6586,-5.7409,-5.748,-5.6586,-5.6321,-5.6204,-5.6204,-5.683,-5.7659,-5.8661,-5.8717,-5.8863,-3.7853,0.0,0.0,-4.8566,0.0,-5.7094,-5.877,-5.9428,-5.9488,-5.877,-6.0236,-6.1613,-6.1613,-6.1613,-6.1613,-6.1613,-6.1074,-6.0745,-6.1074,-6.1134,-6.1253,-6.1583,-6.1942,-6.2002,-6.1672,-6.1044,-6.0236,-5.9189,-5.8501,-5.7573,-5.6256,-5.6166,-5.5748,-5.476,-5.473,-5.473,-5.473,-5.473,-5.473,-5.473,-5.4072,-5.3234,-5.2258,-5.2606,-5.2725,-5.2725,-5.2725,-5.2875,-5.3174,-5.3174,-5.3174,-5.3174,-5.3174,-5.3174,-5.3174,-5.3174,-5.3174,-5.3234,-5.3593,-5.3713,-5.3773,-5.4132,-5.4221,-5.4526,-5.6013,-5.6685,-5.7344,-5.9156,-5.947,-5.9328,-5.9643,-5.9258,-5.8496,-5.7292,-5.723,-5.721,-5.6249,-5.6526,-5.7164,-5.768,-5.8292,-5.8594,-5.835,-5.6201,-5.4379,-5.3708,-5.4083,-5.4216,-5.3565,-5.3441,-5.3093,-5.2185,-5.2109,-5.2767,-5.4463,-5.4951,-5.5685,-5.6996,-5.7928,-5.7515,-5.553,-5.6509,-5.6547,-5.549,-5.4888,-5.4888,-5.545,-5.6238,-5.7361,-5.8786,-5.8942,-5.9201,-3.7853,0.0,-4.4657,-5.1199,-5.4251,0.0,-5.7334,-5.7693,-5.7782,-5.7782,-5.9279,-6.0595,-6.0595,-6.0595,-6.0595,-6.0595,-6.0027,-5.9757,-6.0326,-6.0027,-5.9997,-6.0685,-6.0864,-6.0894,-6.0775,-5.9757,-5.8919,-5.8471,-5.7393,-5.6196,-5.491,-5.485,-5.4341,-5.3204,-5.2965,-5.2905,-5.3025,-5.2785,-5.2725,-5.2845,-5.2187,-5.1229,-5.0046,-5.1199,-5.1708,-5.1708,-5.1828,-5.2187,-5.2665,-5.2785,-5.2845,-5.2845,-5.2845,-5.2845,-5.2845,-5.2845,-5.2845,-5.2845,-5.2965,-5.3025,-5.3025,-5.3144,-5.3174,-5.3296,-5.3929,-5.4512,-5.5266,-5.6396,-5.7029,-5.7471,-5.7987,-5.8106,-5.7757,-5.6603,-5.6025,-5.5449,-5.4503,-5.466,-5.5193,-5.5983,-5.6857,-5.7259,-5.6462,-5.5141,-5.3773,-5.2546,-5.2845,-5.2755,-5.1528,-5.1768,-5.1828,-5.1289,-5.1386,-5.235,-5.4421,-5.5175,-5.5698,-5.6159,-5.7492,-5.706,-5.4411,-5.5134,-5.528,-5.4497,-5.3758,-5.3782,-5.4589,-5.5673,-5.7019,-5.8608,-5.8892,-5.9336,0.0,0.0,-4.6711,0.0,-5.2546,-5.3922,0.0,-5.6017,-5.6436,-5.6436,-5.7543,-5.853,-5.853,-5.853,-5.853,-5.853,-5.7932,-5.7513,-5.7603,-5.8052,-5.865,-5.9308,-5.9877,-5.9997,-5.9428,-5.9219,-5.8171,-5.5867,-5.5538,-5.485,-5.3533,-5.3443,-5.3384,-5.3174,-5.2067,-5.1768,-5.2336,-5.1199,-5.0853,-5.1468,-5.0764,-5.0122,-4.9449,-4.9629,-4.9689,-4.9748,-5.0242,-5.0495,-5.0644,-5.1259,-5.1468,-5.1468,-5.1468,-5.1468,-5.1468,-5.1468,-5.1468,-5.1558,-5.2127,-5.2336,-5.2426,-5.2995,-5.3174,-5.3387,-5.453,-5.493,-5.5266,-5.6451,-5.6107,-5.5422,-5.547,-5.5156,-5.4624,-5.3905,-5.4097,-5.4503,-5.4743,-5.49,-5.5343,-5.6391,-5.6406,-5.572,-5.4008,-5.3961,-5.3952,-5.3174,-5.3114,-5.2905,-5.2157,-5.1648,-5.1319,-5.1229,-5.2109,-5.3209,-5.4505,-5.4685,-5.5181,-5.6126,-5.5555,-5.4559,-5.3209,-5.3265,-5.359,-5.4095,-5.4885,-5.507,-5.4589,-5.698,-5.8376,-5.8946,-5.8991,-5.9066,-3.9679,-4.2581,-4.5562,0.0,-5.1063,-5.1887,-5.3204,-5.4012,-5.4491,-5.4491,-5.5269,-5.6256,-5.7334,-5.7543,-5.7543,-5.7543,-5.7004,-5.6705,-5.7034,-5.7064,-5.7274,-5.7902,-5.8231,-5.8171,-5.7513,-5.7124,-5.6107,-5.4221,-5.4072,-5.3324,-5.1618,-5.1887,-5.1738,-5.1066,-5.0421,-5.0272,-5.0541,-4.9972,-4.9823,-5.0122,-4.9823,-4.9344,-4.876,-4.876,-4.897,-4.9329,-4.9583,-4.9703,-4.9733,-5.0391,-5.0451,-5.0212,-5.093,-5.0943,-5.0674,-5.1079,-5.1229,-5.1259,-5.1558,-5.1648,-5.1708,-5.1977,-5.2067,-5.2162,-5.2698,-5.2854,-5.3085,-5.3944,-5.3837,-5.3493,-5.3888,-5.3821,-5.3653,-5.3743,-5.3414,-5.323,-5.3789,-5.3979,-5.4168,-5.4622,-5.4571,-5.42,-5.335,-5.3114,-5.3114,-5.3174,-5.3174,-5.2935,-5.2276,-5.2606,-5.2456,-5.1349,-5.2581,-5.3526,-5.3644,-5.4603,-5.4963,-5.4379,-5.4899,-5.4238,-5.2048,-5.3165,-5.3726,-5.3379,-5.4285,-5.5229,-5.6149,-5.7756,-5.868,-5.9032,-5.9032,-5.9032,0.0,0.0,-4.329,-4.7415,-4.882,-4.9538,0.0,-5.1828,-5.2486,-5.2665,-5.3234,-5.4192,-5.5807,-5.6256,-5.6346,-5.6346,-5.5987,-5.5837,-5.6286,-5.5957,-5.5837,-5.6316,-5.6346,-5.6166,-5.5718,-5.5059,-5.4132,-5.2785,-5.2516,-5.1708,-5.0062,-5.0451,-5.0272,-4.9329,-4.9149,-4.906,-4.906,-4.891,-4.882,-4.882,-4.882,-4.8506,-4.8027,-4.8027,-4.8297,-4.882,-4.9,-4.906,-4.912,-4.9733,-4.9703,-4.9389,-5.0331,-5.0541,-5.0255,-5.0734,-5.1079,-5.1229,-5.1229,-5.1229,-5.1229,-5.1229,-5.1229,-5.1229,-5.1229,-5.1229,-5.1319,-5.1828,-5.1947,-5.2067,-5.2546,-5.2815,-5.3054,-5.3563,-5.3204,-5.2695,-5.2695,-5.2935,-5.3144,-5.2965,-5.3054,-5.3174,-5.3174,-5.2785,-5.2606,-5.3114,-5.3324,-5.3204,-5.2546,-5.3174,-5.3114,-5.1618,-5.2795,-5.3458,-5.2931,-5.4171,-5.4525,-5.3384,-5.4376,-5.4135,-5.2185,-5.3699,-5.4401,-5.4037,-5.4743,-5.589,-5.7397,-5.8403,-5.8948,-5.9032,-5.8829,-5.8829,-3.7285,-3.8631,0.0,-4.2961,-4.5083,-4.686,-4.8207,-4.9464,-5.0524,-5.1199,-5.1858,-5.2516,-5.3264,-5.3922,-5.4371,-5.4371,-5.4341,-5.4311,-5.4371,-5.4341,-5.4311,-5.4371,-5.4371,-5.4341,-5.4311,-5.3683,-5.2725,-5.1409,-5.0704,-5.0062,-4.9389,-4.9389,-4.9389,-4.9299,-4.8656,-4.8327,-4.8327,-4.7728,-4.7399,-4.7399,-4.7399,-4.7399,-4.7369,-4.7369,-4.7369,-4.7429,-4.8057,-4.8327,-4.8386,-4.909,-4.9329,-4.9329,-4.9389,-4.9733,-5.0196,-5.0226,-5.0644,-5.1229,-5.1229,-5.1229,-5.1229,-5.1229,-5.1229,-5.1229,-5.1229,-5.1229,-5.1229,-5.1259,-5.1259,-5.1289,-5.1319,-5.1798,-5.2247,-5.2306,-5.3234,-5.3593,-5.1738,-5.2306,-5.2995,-5.2366,-5.2755,-5.3174,-5.3174,-5.3144,-5.3144,-5.3174,-5.3743,-5.3922,-5.3204,-5.2636,-5.2276,-5.2157,-5.2643,-5.2931,-5.29,-5.2976,-5.3459,-5.4463,-5.3558,-5.3459,-5.4379,-5.4547,-5.5407,-5.7131,-5.7862,-5.7976,-5.7397,-5.9175,-5.9704,-5.8998,-5.8287,-5.8321,-3.7584,0.0,0.0,-4.1414,-4.324,-4.4605,-4.5544,-4.7429,-4.9045,-4.9284,-5.0182,-5.087,-5.069,-5.2247,-5.3563,-5.3563,-5.3563,-5.3563,-5.3563,-5.3174,-5.2935,-5.2935,-5.2935,-5.2576,-5.169,-5.1828,-5.1199,-4.9464,-4.9494,-4.9134,-4.8057,-4.8416,-4.8446,-4.8027,-4.7788,-4.7668,-4.7668,-4.7429,-4.7309,-4.7309,-4.7309,-4.7309,-4.7309,-4.7309,-4.7309,-4.7309,-4.7549,-4.7668,-4.7698,-4.8356,-4.8386,-4.8087,-4.897,-4.9164,-4.9075,-4.9897,-5.0345,-5.0614,-5.1079,-5.1229,-5.1229,-5.1229,-5.1229,-5.1229,-5.1229,-5.1229,-5.1319,-5.1738,-5.1558,-5.1409,-5.2247,-5.2336,-5.2306,-5.2725,-5.3533,-5.3892,-5.2725,-5.2516,-5.2606,-5.2785,-5.2665,-5.2546,-5.2546,-5.2546,-5.2695,-5.3114,-5.4413,-5.5275,-5.5,-5.4755,-5.4312,-5.3454,-5.3481,-5.3082,-5.1941,-5.2485,-5.3077,-5.3483,-5.3121,-5.3396,-5.4547,-5.5256,-5.5941,-5.6599,-5.7397,-5.825,-5.9108,-5.9755,-5.9708,-5.8998,-5.8254,-5.8017,-3.7075,0.0,0.0,0.0,-4.1384,-4.2273,-4.3419,-4.5185,-4.6741,-4.7189,-4.8327,-4.9254,-4.9299,-5.0737,-5.1947,-5.2157,-5.2187,-5.2187,-5.2187,-5.1828,-5.1468,-5.1229,-5.1229,-5.087,-5.0002,-5.0122,-4.9703,-4.8386,-4.8476,-4.8237,-4.7369,-4.7519,-4.7309,-4.6651,-4.6621,-4.6621,-4.6621,-4.6621,-4.6621,-4.6621,-4.686,-4.698,-4.698,-4.7219,-4.7309,-4.7309,-4.7309,-4.7309,-4.7339,-4.7788,-4.7698,-4.7399,-4.8267,-4.8476,-4.8386,-4.9254,-4.9733,-4.9972,-5.0421,-5.069,-5.0853,-5.0853,-5.105,-5.1229,-5.1229,-5.1229,-5.1319,-5.1738,-5.1708,-5.1738,-5.2636,-5.2875,-5.2995,-5.3414,-5.3892,-5.4072,-5.3623,-5.3174,-5.2995,-5.3443,-5.3174,-5.2875,-5.2875,-5.2875,-5.3025,-5.3473,-5.4825,-5.5722,-5.5722,-5.5323,-5.4727,-5.3837,-5.33,-5.2688,-5.1849,-5.2485,-5.3253,-5.3967,-5.4009,-5.4515,-5.5651,-5.6008,-5.6204,-5.6204,-5.661,-5.7394,-5.864,-5.9025,-5.8945,-5.8475,-5.8343,-5.8558,0.0,0.0,0.0,-3.8841,-3.9284,-3.9858,-4.1811,-4.2761,-4.3589,-4.4945,-4.6262,-4.7578,-4.894,-4.9179,-4.9344,-4.9956,-5.0106,-5.0166,-5.0166,-5.0136,-4.9942,-4.9359,-4.9269,-4.9269,-4.9239,-4.8626,-4.8237,-4.8237,-4.7608,-4.7249,-4.7249,-4.6651,-4.5992,-4.5304,-4.5304,-4.5304,-4.5304,-4.5304,-4.5304,-4.5304,-4.5963,-4.6249,-4.6279,-4.698,-4.7279,-4.7279,-4.7309,-4.7309,-4.7309,-4.7309,-4.7309,-4.7309,-4.7309,-4.7698,-4.8267,-4.8267,-4.8686,-4.9269,-4.9299,-4.9703,-5.0196,-5.0196,-5.0644,-5.1229,-5.1229,-5.1229,-5.1229,-5.1229,-5.1708,-5.2217,-5.2247,-5.3234,-5.4251,-5.4251,-5.4221,-5.4221,-5.4251,-5.4221,-5.4221,-5.4221,-5.4221,-5.4221,-5.4221,-5.4221,-5.4221,-5.4221,-5.481,-5.5229,-5.5229,-5.4111,-5.3301,-5.3271,-5.2007,-5.1665,-5.2767,-5.2856,-5.3796,-5.6047,-5.6204,-5.6701,-5.7808,-5.6778,-5.6204,-5.6165,-5.5804,-5.5613,-5.5655,-5.6833,-5.739,-5.743,-5.8509,-5.9877,-3.5519,0.0,0.0,0.0,0.0,0.0,-3.8661,-4.0038,-4.1594,-4.295,-4.3838,-4.4825,-4.6142,-4.6381,-4.6441,-4.6621,-4.8267,-4.9523,-4.9523,-4.9134,-4.8745,-4.8566,-4.8566,-4.8386,-4.7908,-4.7698,-4.7369,-4.689,-4.6232,-4.5843,-4.5843,-4.5693,-4.5484,-4.5304,-4.5304,-4.5304,-4.5304,-4.5304,-4.5304,-4.5304,-4.5484,-4.5574,-4.5603,-4.6292,-4.6591,-4.6621,-4.71,-4.7309,-4.7309,-4.7309,-4.7309,-4.7309,-4.7309,-4.7429,-4.7638,-4.8117,-4.8386,-4.8626,-4.9149,-4.9703,-5.0196,-5.0196,-5.0644,-5.1229,-5.1229,-5.1229,-5.1319,-5.1798,-5.2067,-5.2426,-5.3414,-5.4281,-5.491,-5.491,-5.4551,-5.4341,-5.482,-5.4551,-5.4221,-5.4221,-5.4221,-5.4221,-5.4221,-5.4221,-5.4221,-5.4221,-5.5512,-5.6493,-5.6493,-5.5725,-5.5066,-5.4544,-5.2967,-5.185,-5.1665,-5.244,-5.3526,-5.4961,-5.5738,-5.6321,-5.6663,-5.636,-5.585,-5.5084,-5.4146,-5.4069,-5.4919,-5.624,-5.7344,-5.8228,-5.9285,-6.0351,-3.5579,-3.5519,-3.5639,-3.6178,0.0,0.0,-3.7285,-3.8302,-3.9439,-4.0524,-4.1444,-4.2521,-4.3838,-4.4077,-4.4257,-4.4796,-4.6172,-4.7309,-4.7578,-4.7519,-4.7369,-4.707,-4.7309,-4.7189,-4.6531,-4.6471,-4.6292,-4.5933,-4.5514,-4.5185,-4.4915,-4.4885,-4.4646,-4.4118,-4.4077,-4.4077,-4.4077,-4.4077,-4.4197,-4.4496,-4.4766,-4.4885,-4.4915,-4.5574,-4.5903,-4.5933,-4.6591,-4.689,-4.692,-4.7189,-4.7309,-4.7309,-4.7309,-4.7309,-4.7369,-4.7728,-4.7878,-4.7938,-4.8327,-4.8865,-4.9464,-4.9733,-5.0272,-5.0823,-5.1139,-5.1229,-5.1289,-5.1678,-5.1977,-5.2516,-5.3862,-5.4281,-5.4431,-5.473,-5.4281,-5.3892,-5.4281,-5.4281,-5.4281,-5.4551,-5.461,-5.4521,-5.4251,-5.4431,-5.4521,-5.4251,-5.5346,-5.628,-5.628,-5.5669,-5.4996,-5.4324,-5.3024,-5.2312,-5.2592,-5.2767,-5.3569,-5.5174,-5.5417,-5.5498,-5.5498,-5.5093,-5.4643,-5.4281,-5.32,-5.3084,-5.4006,-5.504,-5.6411,-5.8176,-5.884,-5.9797,-3.5878,-3.5759,-3.6088,-3.7135,-3.6716,0.0,-3.7105,-3.7404,-3.7674,-3.8182,-3.923,-4.0487,-4.1841,-4.2081,-4.247,-4.3569,-4.3898,-4.4287,-4.5185,-4.5813,-4.5992,-4.5364,-4.5783,-4.5843,-4.5244,-4.5065,-4.4975,-4.4975,-4.4915,-4.4616,-4.4018,-4.3988,-4.3449,-4.2321,-4.2291,-4.2321,-4.241,-4.241,-4.2671,-4.329,-4.3888,-4.4197,-4.4227,-4.4885,-4.5185,-4.5214,-4.5903,-4.6219,-4.6339,-4.695,-4.7249,-4.7309,-4.7309,-4.7309,-4.7309,-4.7309,-4.7309,-4.7309,-4.7309,-4.7728,-4.8386,-4.903,-4.9643,-5.0315,-5.0883,-5.1169,-5.1229,-5.1319,-5.1738,-5.2486,-5.3773,-5.3653,-5.3324,-5.3952,-5.3563,-5.3084,-5.3174,-5.3653,-5.4281,-5.497,-5.5149,-5.4999,-5.4431,-5.479,-5.497,-5.4311,-5.476,-5.5149,-5.5089,-5.464,-5.4012,-5.3264,-5.2665,-5.2839,-5.4105,-5.3396,-5.3742,-5.5698,-5.5084,-5.4547,-5.4421,-5.3439,-5.309,-5.3573,-5.2604,-5.2444,-5.3296,-5.3684,-5.5149,-5.7535,-5.7724,-5.881,-3.7075,-3.7434,-3.7764,-3.7494,-3.8422,0.0,-3.7075,-3.7464,-3.8093,-3.7674,-3.7793,-3.8392,-3.9738,-4.0008,-4.0068,-4.0337,-4.1265,-4.2731,-4.4975,-4.5394,-4.5454,-4.5304,-4.4945,-4.4646,-4.4526,-4.3569,-4.298,-4.298,-4.25,-4.2073,-4.1953,-4.1953,-4.1833,-4.1602,-4.1602,-4.1871,-4.2381,-4.241,-4.2671,-4.329,-4.3409,-4.3499,-4.3499,-4.4197,-4.4496,-4.4556,-4.5214,-4.5813,-4.6279,-4.6471,-4.683,-4.7309,-4.7309,-4.7309,-4.7309,-4.7309,-4.7309,-4.7309,-4.7309,-4.7728,-4.8297,-4.8446,-4.9284,-5.0226,-5.0345,-5.0764,-5.1319,-5.1858,-5.2097,-5.2366,-5.3174,-5.3294,-5.3204,-5.3354,-5.2875,-5.2546,-5.3054,-5.3294,-5.3593,-5.4251,-5.482,-5.5149,-5.5029,-5.5089,-5.497,-5.4311,-5.476,-5.4999,-5.4461,-5.476,-5.4521,-5.3324,-5.3054,-5.2678,-5.191,-5.2485,-5.3077,-5.3526,-5.4211,-5.4211,-5.3296,-5.3033,-5.2547,-5.1753,-5.1503,-5.2148,-5.3775,-5.394,-5.4787,-5.6387,-5.7325,-5.881,-3.7674,-3.7644,-3.7973,-3.8332,-3.8422,0.0,0.0,-3.7195,-3.6956,-3.6956,-3.6686,-3.6866,-3.8182,-3.8153,-3.8272,-3.926,-3.9679,-4.0576,-4.2581,-4.3688,-4.4077,-4.3419,-4.306,-4.2581,-4.1923,-4.1564,-4.1422,-4.1422,-4.0786,-4.0546,-4.0876,-4.0876,-4.0876,-4.0876,-4.0876,-4.1055,-4.1422,-4.1752,-4.2043,-4.2372,-4.2991,-4.311,-4.288,-4.3539,-4.3798,-4.3828,-4.4526,-4.5005,-4.5323,-4.601,-4.6531,-4.686,-4.7189,-4.7309,-4.7309,-4.7309,-4.7309,-4.7309,-4.7309,-4.7519,-4.7848,-4.8177,-4.8716,-4.9374,-4.9986,-5.0644,-5.1289,-5.1618,-5.1708,-5.1858,-5.2516,-5.2456,-5.2276,-5.2606,-5.2187,-5.1798,-5.2127,-5.2456,-5.2785,-5.3144,-5.4012,-5.482,-5.5119,-5.5179,-5.5089,-5.476,-5.47,-5.4581,-5.4251,-5.4192,-5.3803,-5.2785,-5.2695,-5.2515,-5.2109,-5.2063,-5.2305,-5.2856,-5.29,-5.2664,-5.2063,-5.2368,-5.259,-5.2695,-5.2366,-5.267,-5.3556,-5.2932,-5.3776,-5.5999,-5.6586,-5.7571,-3.8661,-3.8362,-3.8721,-3.9439,-3.8781,-3.8063,0.0,0.0,0.0,-3.6447,-3.5968,-3.5818,-3.6836,-3.6626,-3.6806,-3.8392,-3.8392,-3.8571,-3.9679,-4.1294,-4.2043,-4.1115,-4.0876,-4.0397,-3.932,-3.9589,-3.9828,-3.9828,-3.932,-3.926,-3.9798,-3.9828,-3.9828,-3.9828,-3.9948,-4.0068,-4.0217,-4.0876,-4.1265,-4.1384,-4.2462,-4.2671,-4.2231,-4.2701,-4.2991,-4.318,-4.3718,-4.4077,-4.4407,-4.5484,-4.6082,-4.6381,-4.704,-4.7309,-4.7309,-4.7309,-4.7309,-4.7309,-4.7309,-4.7309,-4.7399,-4.7938,-4.8177,-4.8536,-4.9777,-5.0554,-5.1003,-5.1169,-5.1229,-5.1349,-5.1887,-5.1618,-5.1349,-5.1887,-5.1618,-5.1229,-5.1229,-5.1738,-5.2187,-5.2187,-5.3294,-5.4371,-5.491,-5.5089,-5.5149,-5.5029,-5.4551,-5.4162,-5.4012,-5.3533,-5.2935,-5.2276,-5.2187,-5.2373,-5.2731,-5.1908,-5.1799,-5.2715,-5.2029,-5.1498,-5.1229,-5.1858,-5.2725,-5.3803,-5.3264,-5.305,-5.3139,-5.1802,-5.2587,-5.5206,-5.5376,-5.5966,-4.1145,-4.1773,-4.2243,-4.0696,-4.1863,-4.2551,-3.917,0.0,-3.8512,-3.6836,0.0,-3.5549,-3.5699,0.0,0.0,-3.5908,-3.6836,-3.7584,-3.7734,-3.8452,-3.911,-3.9589,-3.911,-3.8661,-3.8512,-3.8033,-3.7734,-3.7734,-3.7674,-3.7674,-3.7734,-3.7734,-3.7734,-3.7734,-3.8332,-3.8901,-3.9493,-4.0187,-4.0816,-4.1422,-4.1534,-4.1564,-4.1542,-4.1564,-4.1961,-4.253,-4.259,-4.324,-4.4317,-4.4466,-4.5244,-4.6381,-4.704,-4.7309,-4.7309,-4.7309,-4.7309,-4.7309,-4.7309,-4.7309,-4.7309,-4.7399,-4.7818,-4.8536,-4.9777,-5.0255,-5.0435,-5.1003,-5.1229,-5.1229,-5.1319,-5.1289,-5.1229,-5.1319,-5.1259,-5.1229,-5.1229,-5.1738,-5.2187,-5.2187,-5.3294,-5.4221,-5.4311,-5.482,-5.4999,-5.4401,-5.4251,-5.3982,-5.3384,-5.3234,-5.2935,-5.2276,-5.2187,-5.2204,-5.2257,-5.2162,-5.2115,-5.2257,-5.2732,-5.2426,-5.1259,-5.1858,-5.2276,-5.2426,-5.2366,-5.2544,-5.2925,-5.1741,-5.1665,-5.2617,-5.3236,-5.4466,-4.1317,-4.1548,-4.1704,-4.159,-4.1803,-4.1594,-3.9948,-3.8871,-3.8003,-3.7195,0.0,0.0,0.0,0.0,0.0,0.0,-3.6207,-3.6447,-3.6806,-3.6776,-3.7105,-3.8123,-3.7674,-3.7285,-3.7285,-3.6686,-3.6477,-3.6836,-3.6537,-3.6477,-3.6866,-3.6866,-3.7045,-3.7404,-3.8033,-3.8542,-3.8811,-3.9858,-4.0337,-4.0247,-4.1025,-4.1175,-4.0846,-4.1632,-4.2141,-4.241,-4.2761,-4.324,-4.3738,-4.4167,-4.4885,-4.5783,-4.6471,-4.698,-4.7309,-4.7309,-4.7309,-4.7309,-4.7309,-4.7309,-4.7309,-4.7309,-4.7758,-4.8386,-4.8955,-4.9598,-5.0255,-5.0524,-5.0883,-5.1229,-5.1229,-5.1229,-5.1229,-5.1229,-5.1229,-5.1229,-5.1229,-5.1439,-5.1618,-5.1618,-5.2396,-5.3054,-5.3054,-5.4251,-5.5089,-5.482,-5.4102,-5.3503,-5.3204,-5.2516,-5.1947,-5.1648,-5.1618,-5.1798,-5.2157,-5.1858,-5.1947,-5.2725,-5.2665,-5.2725,-5.2935,-5.2456,-5.2576,-5.3354,-5.2606,-5.2502,-5.3081,-5.2184,-5.2127,-5.2785,-5.3054,-5.4007,-4.1715,-4.1912,-4.1913,-4.2097,-4.1504,-4.0786,-4.0247,-3.914,-3.8123,-3.7764,-3.7464,0.0,0.0,0.0,-3.6118,-3.6447,0.0,-3.5878,-3.6178,-3.5818,-3.5848,-3.6776,-3.6477,-3.6207,-3.6207,-3.5789,-3.5699,-3.6178,-3.5789,-3.5699,-3.6178,-3.6207,-3.6417,-3.6866,-3.7524,-3.7853,-3.7853,-3.917,-3.9619,-3.914,-4.0307,-4.0696,-4.0427,-4.1384,-4.2051,-4.241,-4.2851,-4.314,-4.3319,-4.3798,-4.4436,-4.5065,-4.5574,-4.6172,-4.68,-4.716,-4.7309,-4.7309,-4.7309,-4.7309,-4.7309,-4.7309,-4.7638,-4.8057,-4.8237,-4.8955,-4.9717,-5.0076,-5.0524,-5.099,-5.1169,-5.1229,-5.1229,-5.1229,-5.1229,-5.1229,-5.1229,-5.1229,-5.1229,-5.1229,-5.1738,-5.2187,-5.2187,-5.3713,-5.491,-5.491,-5.4102,-5.3384,-5.3204,-5.2187,-5.1409,-5.1229,-5.1229,-5.1498,-5.2127,-5.1917,-5.2306,-5.3653,-5.2935,-5.3084,-5.4431,-5.3354,-5.3204,-5.4192,-5.3234,-5.2905,-5.3174,-5.2695,-5.2815,-5.3473,-5.3473,-5.3982,-4.3278,-4.4157,-4.4545,-4.2043,-4.1901,-4.1841,-3.9888,-3.9888,-3.9948,-3.8631,-3.8871,-3.8931,-3.7614,-3.7375,-3.7165,-3.6567,-3.6477,0.0,0.0,-3.5519,-3.5519,-3.5579,-3.5549,-3.5549,-3.5549,-3.5519,-3.5519,-3.5519,-3.5519,-3.5519,-3.5519,-3.5549,-3.5549,-3.5579,-3.6207,-3.6537,-3.6537,-3.7823,-3.8452,-3.8422,-3.914,-3.9798,-4.0397,-4.0457,-4.1145,-4.241,-4.241,-4.2761,-4.329,-4.3319,-4.3708,-4.4347,-4.4377,-4.4766,-4.5514,-4.683,-4.7309,-4.7309,-4.7309,-4.7309,-4.7309,-4.7309,-4.7309,-4.7459,-4.8087,-4.8327,-4.8626,-4.9837,-5.0196,-5.0375,-5.1003,-5.1229,-5.1229,-5.1229,-5.1229,-5.1229,-5.1229,-5.1229,-5.1229,-5.1229,-5.1738,-5.2187,-5.2187,-5.3324,-5.4251,-5.4251,-5.4192,-5.3922,-5.3264,-5.2606,-5.1917,-5.1289,-5.1229,-5.1498,-5.2127,-5.2755,-5.3683,-5.5029,-5.3892,-5.3743,-5.5089,-5.4491,-5.4162,-5.4221,-5.4162,-5.3832,-5.3174,-5.3144,-5.3503,-5.4192,-5.4192,-5.4192,-4.2725,-4.3459,-4.3428,-4.2782,-4.2851,-4.2491,-4.0516,-4.0576,-4.0546,-3.8751,-3.929,-3.9529,-3.7734,-3.7075,-3.6716,-3.6507,-3.6118,-3.5759,0.0,-3.5519,-3.5519,-3.5519,-3.5519,-3.5519,-3.5519,-3.5519,-3.5519,-3.5519,-3.5519,-3.5519,-3.5519,-3.5519,-3.5519,-3.5519,-3.6148,-3.6477,-3.6477,-3.7734,-3.8392,-3.8392,-3.908,-3.9768,-4.0427,-4.0846,-4.1572,-4.241,-4.2821,-4.312,-4.329,-4.329,-4.3678,-4.4317,-4.4317,-4.4706,-4.5394,-4.6322,-4.6651,-4.6711,-4.716,-4.7309,-4.7309,-4.7309,-4.7309,-4.7339,-4.7578,-4.7938,-4.8386,-4.8835,-4.9254,-4.9733,-5.0391,-5.0242,-5.0152,-5.102,-5.0853,-5.0644,-5.1109,-5.1229,-5.1229,-5.1229,-5.1409,-5.1558,-5.1558,-5.2276,-5.3025,-5.3473,-5.3533,-5.3443,-5.3204,-5.2995,-5.2755,-5.2546,-5.2127,-5.2127,-5.2785,-5.3473,-5.4072,-5.4521,-5.4102,-5.4251,-5.5149,-5.4132,-5.3743,-5.4192,-5.3773,-5.3623,-5.3862,-5.3862,-5.4192,-5.485,-5.485,-5.485,-4.2725,-4.3684,-4.3903,-4.3712,-4.3648,-4.314,-4.1205,-4.1444,-4.1564,-3.9828,-4.0127,-4.0427,-3.9349,-3.8063,-3.7165,-3.7165,-3.6417,-3.5759,0.0,-3.5519,-3.5519,-3.5519,-3.5519,-3.5519,-3.5519,-3.528,-3.525,-3.5489,-3.528,-3.525,-3.5489,-3.5519,-3.5519,-3.5519,-3.5908,-3.6148,-3.6148,-3.7404,-3.8033,-3.8063,-3.899,-3.9888,-4.0756,-4.1175,-4.1863,-4.2731,-4.315,-4.329,-4.329,-4.329,-4.3529,-4.3988,-4.4227,-4.4556,-4.5035,-4.5723,-4.6112,-4.6369,-4.707,-4.7309,-4.7309,-4.7309,-4.7309,-4.7309,-4.7309,-4.7608,-4.8027,-4.8506,-4.882,-4.9134,-4.9956,-4.9763,-4.9539,-5.0331,-5.0391,-5.0315,-5.0734,-5.1003,-5.1229,-5.1229,-5.1229,-5.1229,-5.1229,-5.1558,-5.2067,-5.2725,-5.3025,-5.3084,-5.2875,-5.2845,-5.2725,-5.2516,-5.2097,-5.2127,-5.2785,-5.3443,-5.3952,-5.4192,-5.4431,-5.476,-5.5179,-5.4341,-5.4311,-5.5209,-5.4341,-5.4341,-5.5239,-5.479,-5.479,-5.5179,-5.5179,-5.5059]}]]